Wetterdaten: Montag, 09.01.2017
Datum Zeit Temp. A. Feuchte A. Luftdruck Regen Wind Richtung Richtung Sonnenschein ET UV Solar Taupunkt Windchill Windben Empfang
09.01.2017 00:00 -2,2 C 95 % 1030,6 hPa 0,0 l/m 9,3 km/h (2 Bft) W-SW 250 0 min 0,000 mm 0,0 UV-I 0 W/m -2,9 C -5,2 C 16,1 km/h (3 Bft) 100,00 %
09.01.2017 00:02 -2,2 C 95 % 1030,6 hPa 0,0 l/m 12,3 km/h (3 Bft) W 260 0 min 0,000 mm 0,0 UV-I 0 W/m -2,9 C -7,8 C 16,1 km/h (3 Bft) 100,00 %
09.01.2017 00:04 -2,2 C 95 % 1030,6 hPa 0,0 l/m 13,2 km/h (3 Bft) W-SW 239 0 min 0,000 mm 0,0 UV-I 0 W/m -2,9 C -8,4 C 19,3 km/h (3 Bft) 97,62 %
09.01.2017 00:06 -2,1 C 95 % 1030,5 hPa 0,0 l/m 11,7 km/h (2 Bft) NW 307 0 min 0,000 mm 0,0 UV-I 0 W/m -2,8 C -7,2 C 19,3 km/h (3 Bft) 97,56 %
09.01.2017 00:08 -2,1 C 95 % 1030,5 hPa 0,0 l/m 10,7 km/h (2 Bft) W 261 0 min 0,000 mm 0,0 UV-I 0 W/m -2,8 C -6,4 C 16,1 km/h (3 Bft) 98,11 %
09.01.2017 00:10 -2,1 C 95 % 1030,6 hPa 0,0 l/m 8,9 km/h (2 Bft) W-SW 248 0 min 0,000 mm 0,0 UV-I 0 W/m -2,8 C -4,8 C 11,3 km/h (2 Bft) 100,00 %
09.01.2017 00:12 -2,1 C 95 % 1030,6 hPa 0,0 l/m 12,4 km/h (3 Bft) W-SW 243 0 min 0,000 mm 0,0 UV-I 0 W/m -2,8 C -7,7 C 19,3 km/h (3 Bft) 100,00 %
09.01.2017 00:14 -2,1 C 95 % 1030,6 hPa 0,0 l/m 12,0 km/h (2 Bft) SW 231 0 min 0,000 mm 0,0 UV-I 0 W/m -2,8 C -7,4 C 17,7 km/h (3 Bft) 100,00 %
09.01.2017 00:16 -2,1 C 95 % 1030,5 hPa 0,0 l/m 11,5 km/h (2 Bft) W 265 0 min 0,000 mm 0,0 UV-I 0 W/m -2,8 C -7,0 C 17,7 km/h (3 Bft) 100,00 %
09.01.2017 00:18 -2,0 C 95 % 1030,5 hPa 0,0 l/m 14,1 km/h (3 Bft) W-SW 249 0 min 0,000 mm 0,0 UV-I 0 W/m -2,7 C -8,8 C 20,9 km/h (4 Bft) 100,00 %
09.01.2017 00:20 -2,0 C 96 % 1030,5 hPa 0,0 l/m 14,7 km/h (3 Bft) W 265 0 min 0,000 mm 0,0 UV-I 0 W/m -2,6 C -9,2 C 19,3 km/h (3 Bft) 100,00 %
09.01.2017 00:22 -2,0 C 96 % 1030,5 hPa 0,0 l/m 12,9 km/h (3 Bft) W-SW 238 0 min 0,000 mm 0,0 UV-I 0 W/m -2,6 C -8,0 C 19,3 km/h (3 Bft) 100,00 %
09.01.2017 00:24 -2,0 C 95 % 1030,5 hPa 0,0 l/m 10,8 km/h (2 Bft) W-SW 240 0 min 0,000 mm 0,0 UV-I 0 W/m -2,7 C -6,3 C 17,7 km/h (3 Bft) 100,00 %
09.01.2017 00:26 -1,9 C 95 % 1030,5 hPa 0,0 l/m 16,1 km/h (3 Bft) W-SW 254 0 min 0,000 mm 0,0 UV-I 0 W/m -2,6 C -10,0 C 22,5 km/h (4 Bft) 98,00 %
09.01.2017 00:28 -1,9 C 95 % 1030,4 hPa 0,0 l/m 11,4 km/h (2 Bft) W-SW 258 0 min 0,000 mm 0,0 UV-I 0 W/m -2,6 C -6,7 C 17,7 km/h (3 Bft) 100,00 %
09.01.2017 00:30 -1,9 C 95 % 1030,5 hPa 0,0 l/m 11,0 km/h (2 Bft) W-SW 238 0 min 0,000 mm 0,0 UV-I 0 W/m -2,6 C -6,4 C 19,3 km/h (3 Bft) 96,00 %
09.01.2017 00:32 -1,9 C 95 % 1030,5 hPa 0,0 l/m 10,2 km/h (2 Bft) W 262 0 min 0,000 mm 0,0 UV-I 0 W/m -2,6 C -5,7 C 14,5 km/h (3 Bft) 100,00 %
09.01.2017 00:34 -1,9 C 95 % 1030,5 hPa 0,0 l/m 7,3 km/h (2 Bft) W-SW 247 0 min 0,000 mm 0,0 UV-I 0 W/m -2,6 C -2,9 C 11,3 km/h (2 Bft) 97,56 %
09.01.2017 00:36 -1,9 C 95 % 1030,5 hPa 0,0 l/m 10,8 km/h (2 Bft) W 259 0 min 0,000 mm 0,0 UV-I 0 W/m -2,6 C -6,2 C 16,1 km/h (3 Bft) 100,00 %
09.01.2017 00:38 -1,9 C 95 % 1030,5 hPa 0,0 l/m 11,5 km/h (2 Bft) W-SW 250 0 min 0,000 mm 0,0 UV-I 0 W/m -2,6 C -6,8 C 19,3 km/h (3 Bft) 100,00 %
09.01.2017 00:40 -1,9 C 95 % 1030,5 hPa 0,0 l/m 10,6 km/h (2 Bft) W-SW 247 0 min 0,000 mm 0,0 UV-I 0 W/m -2,6 C -6,1 C 14,5 km/h (3 Bft) 97,87 %
09.01.2017 00:42 -1,9 C 95 % 1030,5 hPa 0,0 l/m 10,7 km/h (2 Bft) SW 236 0 min 0,000 mm 0,0 UV-I 0 W/m -2,6 C -6,1 C 14,5 km/h (3 Bft) 97,22 %
09.01.2017 00:44 -1,9 C 95 % 1030,5 hPa 0,0 l/m 9,7 km/h (2 Bft) W 263 0 min 0,000 mm 0,0 UV-I 0 W/m -2,6 C -5,3 C 17,7 km/h (3 Bft) 100,00 %
09.01.2017 00:46 -1,9 C 95 % 1030,5 hPa 0,0 l/m 10,1 km/h (2 Bft) W 267 0 min 0,000 mm 0,0 UV-I 0 W/m -2,6 C -5,6 C 16,1 km/h (3 Bft) 100,00 %
09.01.2017 00:48 -1,9 C 95 % 1030,4 hPa 0,0 l/m 8,5 km/h (2 Bft) W-SW 242 0 min 0,000 mm 0,0 UV-I 0 W/m -2,6 C -4,1 C 16,1 km/h (3 Bft) 95,12 %
09.01.2017 00:50 -1,9 C 95 % 1030,4 hPa 0,0 l/m 9,1 km/h (2 Bft) W-SW 257 0 min 0,000 mm 0,0 UV-I 0 W/m -2,6 C -4,7 C 14,5 km/h (3 Bft) 100,00 %
09.01.2017 00:52 -1,9 C 95 % 1030,4 hPa 0,0 l/m 9,9 km/h (2 Bft) SW 236 0 min 0,000 mm 0,0 UV-I 0 W/m -2,6 C -5,5 C 16,1 km/h (3 Bft) 98,59 %
09.01.2017 00:54 -1,9 C 95 % 1030,4 hPa 0,0 l/m 8,2 km/h (2 Bft) W 279 0 min 0,000 mm 0,0 UV-I 0 W/m -2,6 C -3,8 C 12,9 km/h (3 Bft) 97,87 %
09.01.2017 00:56 -1,9 C 95 % 1030,4 hPa 0,0 l/m 9,0 km/h (2 Bft) W-SW 252 0 min 0,000 mm 0,0 UV-I 0 W/m -2,6 C -4,6 C 12,9 km/h (3 Bft) 100,00 %
09.01.2017 00:58 -1,9 C 95 % 1030,3 hPa 0,0 l/m 11,6 km/h (2 Bft) SW 225 0 min 0,000 mm 0,0 UV-I 0 W/m -2,6 C -6,9 C 16,1 km/h (3 Bft) 98,11 %
09.01.2017 01:00 -1,9 C 95 % 1030,4 hPa 0,0 l/m 11,0 km/h (2 Bft) W-SW 242 0 min 0,000 mm 0,0 UV-I 0 W/m -2,6 C -6,4 C 16,1 km/h (3 Bft) 97,73 %
09.01.2017 01:02 -1,9 C 95 % 1030,3 hPa 0,0 l/m 11,8 km/h (2 Bft) W-SW 244 0 min 0,000 mm 0,0 UV-I 0 W/m -2,6 C -7,0 C 17,7 km/h (3 Bft) 97,56 %
09.01.2017 01:04 -1,9 C 95 % 1030,3 hPa 0,0 l/m 12,8 km/h (3 Bft) SW 232 0 min 0,000 mm 0,0 UV-I 0 W/m -2,6 C -7,8 C 19,3 km/h (3 Bft) 100,00 %
09.01.2017 01:06 -1,8 C 95 % 1030,3 hPa 0,0 l/m 10,2 km/h (2 Bft) W 259 0 min 0,000 mm 0,0 UV-I 0 W/m -2,5 C -5,6 C 12,9 km/h (3 Bft) 100,00 %
09.01.2017 01:08 -1,8 C 95 % 1030,2 hPa 0,0 l/m 9,8 km/h (2 Bft) W 267 0 min 0,000 mm 0,0 UV-I 0 W/m -2,5 C -5,3 C 14,5 km/h (3 Bft) 100,00 %
09.01.2017 01:10 -1,8 C 95 % 1030,2 hPa 0,0 l/m 8,6 km/h (2 Bft) SW 232 0 min 0,000 mm 0,0 UV-I 0 W/m -2,5 C -4,1 C 14,5 km/h (3 Bft) 100,00 %
09.01.2017 01:12 -1,8 C 95 % 1030,3 hPa 0,0 l/m 10,0 km/h (2 Bft) W-SW 258 0 min 0,000 mm 0,0 UV-I 0 W/m -2,5 C -5,4 C 14,5 km/h (3 Bft) 98,00 %
09.01.2017 01:14 -1,9 C 95 % 1030,3 hPa 0,0 l/m 10,8 km/h (2 Bft) W-SW 245 0 min 0,000 mm 0,0 UV-I 0 W/m -2,6 C -6,2 C 14,5 km/h (3 Bft) 97,37 %
09.01.2017 01:16 -1,8 C 95 % 1030,2 hPa 0,0 l/m 8,2 km/h (2 Bft) W-SW 252 0 min 0,000 mm 0,0 UV-I 0 W/m -2,5 C -3,7 C 11,3 km/h (2 Bft) 100,00 %
09.01.2017 01:18 -1,8 C 95 % 1030,3 hPa 0,0 l/m 9,7 km/h (2 Bft) W 263 0 min 0,000 mm 0,0 UV-I 0 W/m -2,5 C -5,2 C 16,1 km/h (3 Bft) 96,36 %
09.01.2017 01:20 -1,8 C 95 % 1030,2 hPa 0,0 l/m 13,0 km/h (3 Bft) W 262 0 min 0,000 mm 0,0 UV-I 0 W/m -2,5 C -7,8 C 19,3 km/h (3 Bft) 100,00 %
09.01.2017 01:22 -1,8 C 95 % 1030,2 hPa 0,0 l/m 11,7 km/h (2 Bft) W 269 0 min 0,000 mm 0,0 UV-I 0 W/m -2,5 C -6,8 C 14,5 km/h (3 Bft) 100,00 %
09.01.2017 01:24 -1,8 C 95 % 1030,2 hPa 0,0 l/m 10,0 km/h (2 Bft) W-SW 257 0 min 0,000 mm 0,0 UV-I 0 W/m -2,5 C -5,4 C 16,1 km/h (3 Bft) 100,00 %
09.01.2017 01:26 -1,8 C 95 % 1030,2 hPa 0,0 l/m 9,9 km/h (2 Bft) W-SW 240 0 min 0,000 mm 0,0 UV-I 0 W/m -2,5 C -5,4 C 12,9 km/h (3 Bft) 100,00 %
09.01.2017 01:28 -1,8 C 95 % 1030,1 hPa 0,0 l/m 9,0 km/h (2 Bft) W-SW 255 0 min 0,000 mm 0,0 UV-I 0 W/m -2,5 C -4,5 C 12,9 km/h (3 Bft) 97,56 %
09.01.2017 01:30 -1,8 C 95 % 1030,1 hPa 0,0 l/m 8,9 km/h (2 Bft) W-SW 245 0 min 0,000 mm 0,0 UV-I 0 W/m -2,5 C -4,4 C 16,1 km/h (3 Bft) 96,23 %
09.01.2017 01:32 -1,8 C 95 % 1030,1 hPa 0,0 l/m 7,1 km/h (2 Bft) W-SW 253 0 min 0,000 mm 0,0 UV-I 0 W/m -2,5 C -2,6 C 11,3 km/h (2 Bft) 96,00 %
09.01.2017 01:34 -1,8 C 95 % 1030,1 hPa 0,0 l/m 8,0 km/h (2 Bft) W-SW 250 0 min 0,000 mm 0,0 UV-I 0 W/m -2,5 C -3,5 C 12,9 km/h (3 Bft) 97,56 %
09.01.2017 01:36 -1,8 C 95 % 1030,1 hPa 0,0 l/m 9,3 km/h (2 Bft) SW 229 0 min 0,000 mm 0,0 UV-I 0 W/m -2,5 C -4,8 C 12,9 km/h (3 Bft) 96,00 %
09.01.2017 01:38 -1,8 C 95 % 1030,1 hPa 0,0 l/m 8,7 km/h (2 Bft) W-SW 251 0 min 0,000 mm 0,0 UV-I 0 W/m -2,5 C -4,2 C 12,9 km/h (3 Bft) 97,87 %
09.01.2017 01:40 -1,8 C 95 % 1030,2 hPa 0,0 l/m 7,4 km/h (2 Bft) W-SW 244 0 min 0,000 mm 0,0 UV-I 0 W/m -2,5 C -2,9 C 12,9 km/h (3 Bft) 97,87 %
09.01.2017 01:42 -1,8 C 95 % 1030,1 hPa 0,0 l/m 7,2 km/h (2 Bft) W-SW 254 0 min 0,000 mm 0,0 UV-I 0 W/m -2,5 C -2,7 C 11,3 km/h (2 Bft) 97,56 %
09.01.2017 01:44 -1,8 C 95 % 1030,1 hPa 0,0 l/m 8,2 km/h (2 Bft) SW 235 0 min 0,000 mm 0,0 UV-I 0 W/m -2,5 C -3,7 C 12,9 km/h (3 Bft) 98,00 %
09.01.2017 01:46 -1,8 C 95 % 1030,2 hPa 0,0 l/m 7,3 km/h (2 Bft) W 267 0 min 0,000 mm 0,0 UV-I 0 W/m -2,5 C -2,8 C 11,3 km/h (2 Bft) 95,12 %
09.01.2017 01:48 -1,8 C 95 % 1030,2 hPa 0,0 l/m 6,0 km/h (2 Bft) W-SW 252 0 min 0,000 mm 0,0 UV-I 0 W/m -2,5 C -1,8 C 8,0 km/h (2 Bft) 98,00 %
09.01.2017 01:50 -1,8 C 95 % 1030,1 hPa 0,0 l/m 6,8 km/h (2 Bft) W-SW 250 0 min 0,000 mm 0,0 UV-I 0 W/m -2,5 C -2,2 C 9,7 km/h (2 Bft) 98,11 %
09.01.2017 01:52 -1,8 C 95 % 1030,2 hPa 0,0 l/m 8,4 km/h (2 Bft) W-SW 242 0 min 0,000 mm 0,0 UV-I 0 W/m -2,5 C -3,9 C 14,5 km/h (3 Bft) 97,37 %
09.01.2017 01:54 -1,8 C 95 % 1030,2 hPa 0,0 l/m 8,2 km/h (2 Bft) W 265 0 min 0,000 mm 0,0 UV-I 0 W/m -2,5 C -3,7 C 12,9 km/h (3 Bft) 94,00 %
09.01.2017 01:56 -1,8 C 95 % 1030,2 hPa 0,0 l/m 6,9 km/h (2 Bft) W 262 0 min 0,000 mm 0,0 UV-I 0 W/m -2,5 C -2,3 C 11,3 km/h (2 Bft) 97,87 %
09.01.2017 01:58 -1,8 C 95 % 1030,2 hPa 0,0 l/m 6,4 km/h (2 Bft) W-SW 250 0 min 0,000 mm 0,0 UV-I 0 W/m -2,5 C -1,8 C 12,9 km/h (3 Bft) 98,00 %
09.01.2017 02:00 -1,8 C 95 % 1030,2 hPa 0,0 l/m 8,4 km/h (2 Bft) W-SW 254 0 min 0,000 mm 0,0 UV-I 0 W/m -2,5 C -3,9 C 11,3 km/h (2 Bft) 97,62 %
09.01.2017 02:02 -1,8 C 95 % 1030,2 hPa 0,0 l/m 7,1 km/h (2 Bft) W 261 0 min 0,000 mm 0,0 UV-I 0 W/m -2,5 C -2,6 C 11,3 km/h (2 Bft) 94,34 %
09.01.2017 02:04 -1,8 C 95 % 1030,2 hPa 0,0 l/m 8,2 km/h (2 Bft) W-SW 247 0 min 0,000 mm 0,0 UV-I 0 W/m -2,5 C -3,7 C 14,5 km/h (3 Bft) 97,37 %
09.01.2017 02:06 -1,8 C 95 % 1030,2 hPa 0,0 l/m 8,1 km/h (2 Bft) W 261 0 min 0,000 mm 0,0 UV-I 0 W/m -2,5 C -3,6 C 11,3 km/h (2 Bft) 98,00 %
09.01.2017 02:08 -1,8 C 95 % 1030,2 hPa 0,0 l/m 10,2 km/h (2 Bft) W-SW 248 0 min 0,000 mm 0,0 UV-I 0 W/m -2,5 C -5,6 C 14,5 km/h (3 Bft) 97,87 %
09.01.2017 02:10 -1,8 C 95 % 1030,2 hPa 0,0 l/m 7,6 km/h (2 Bft) W 268 0 min 0,000 mm 0,0 UV-I 0 W/m -2,5 C -3,1 C 12,9 km/h (3 Bft) 100,00 %
09.01.2017 02:12 -1,8 C 95 % 1030,3 hPa 0,0 l/m 9,1 km/h (2 Bft) W-SW 246 0 min 0,000 mm 0,0 UV-I 0 W/m -2,5 C -4,6 C 16,1 km/h (3 Bft) 98,11 %
09.01.2017 02:14 -1,8 C 95 % 1030,3 hPa 0,0 l/m 11,0 km/h (2 Bft) W-SW 242 0 min 0,000 mm 0,0 UV-I 0 W/m -2,5 C -6,3 C 16,1 km/h (3 Bft) 92,68 %
09.01.2017 02:16 -1,8 C 95 % 1030,3 hPa 0,0 l/m 12,4 km/h (3 Bft) W-SW 252 0 min 0,000 mm 0,0 UV-I 0 W/m -2,5 C -7,4 C 16,1 km/h (3 Bft) 100,00 %
09.01.2017 02:18 -1,8 C 95 % 1030,3 hPa 0,0 l/m 7,7 km/h (2 Bft) W-SW 254 0 min 0,000 mm 0,0 UV-I 0 W/m -2,5 C -3,2 C 12,9 km/h (3 Bft) 98,11 %
09.01.2017 02:20 -1,8 C 95 % 1030,3 hPa 0,0 l/m 10,8 km/h (2 Bft) W-SW 252 0 min 0,000 mm 0,0 UV-I 0 W/m -2,5 C -6,1 C 16,1 km/h (3 Bft) 100,00 %
09.01.2017 02:22 -1,8 C 95 % 1030,3 hPa 0,0 l/m 10,2 km/h (2 Bft) W 265 0 min 0,000 mm 0,0 UV-I 0 W/m -2,5 C -5,6 C 17,7 km/h (3 Bft) 100,00 %
09.01.2017 02:24 -1,8 C 95 % 1030,3 hPa 0,0 l/m 9,2 km/h (2 Bft) W-SW 257 0 min 0,000 mm 0,0 UV-I 0 W/m -2,5 C -4,7 C 14,5 km/h (3 Bft) 100,00 %
09.01.2017 02:26 -1,8 C 95 % 1030,3 hPa 0,0 l/m 9,5 km/h (2 Bft) W-SW 248 0 min 0,000 mm 0,0 UV-I 0 W/m -2,5 C -5,0 C 14,5 km/h (3 Bft) 100,00 %
09.01.2017 02:28 -1,8 C 95 % 1030,2 hPa 0,0 l/m 13,4 km/h (3 Bft) W-SW 255 0 min 0,000 mm 0,0 UV-I 0 W/m -2,5 C -8,1 C 16,1 km/h (3 Bft) 100,00 %
09.01.2017 02:30 -1,8 C 95 % 1030,2 hPa 0,0 l/m 12,1 km/h (2 Bft) W-SW 254 0 min 0,000 mm 0,0 UV-I 0 W/m -2,5 C -7,2 C 17,7 km/h (3 Bft) 98,00 %
09.01.2017 02:32 -1,8 C 95 % 1030,3 hPa 0,0 l/m 9,9 km/h (2 Bft) W 273 0 min 0,000 mm 0,0 UV-I 0 W/m -2,5 C -5,4 C 16,1 km/h (3 Bft) 100,00 %
09.01.2017 02:34 -1,8 C 95 % 1030,2 hPa 0,0 l/m 9,9 km/h (2 Bft) W-SW 244 0 min 0,000 mm 0,0 UV-I 0 W/m -2,5 C -5,4 C 12,9 km/h (3 Bft) 100,00 %
09.01.2017 02:36 -1,8 C 95 % 1030,3 hPa 0,0 l/m 9,8 km/h (2 Bft) W 260 0 min 0,000 mm 0,0 UV-I 0 W/m -2,5 C -5,3 C 14,5 km/h (3 Bft) 100,00 %
09.01.2017 02:38 -1,8 C 95 % 1030,3 hPa 0,0 l/m 8,5 km/h (2 Bft) W-SW 246 0 min 0,000 mm 0,0 UV-I 0 W/m -2,5 C -4,0 C 16,1 km/h (3 Bft) 100,00 %
09.01.2017 02:40 -1,8 C 95 % 1030,3 hPa 0,0 l/m 10,7 km/h (2 Bft) W 273 0 min 0,000 mm 0,0 UV-I 0 W/m -2,5 C -6,0 C 17,7 km/h (3 Bft) 97,62 %
09.01.2017 02:42 -1,8 C 95 % 1030,3 hPa 0,0 l/m 10,9 km/h (2 Bft) W-SW 250 0 min 0,000 mm 0,0 UV-I 0 W/m -2,5 C -6,2 C 17,7 km/h (3 Bft) 97,56 %
09.01.2017 02:44 -1,8 C 95 % 1030,2 hPa 0,0 l/m 9,6 km/h (2 Bft) W-SW 257 0 min 0,000 mm 0,0 UV-I 0 W/m -2,5 C -5,1 C 17,7 km/h (3 Bft) 96,23 %
09.01.2017 02:46 -1,8 C 95 % 1030,2 hPa 0,0 l/m 10,8 km/h (2 Bft) W-NW 292 0 min 0,000 mm 0,0 UV-I 0 W/m -2,5 C -6,1 C 14,5 km/h (3 Bft) 100,00 %
09.01.2017 02:48 -1,8 C 95 % 1030,3 hPa 0,0 l/m 9,7 km/h (2 Bft) W-SW 254 0 min 0,000 mm 0,0 UV-I 0 W/m -2,5 C -5,2 C 14,5 km/h (3 Bft) 97,73 %
09.01.2017 02:50 -1,8 C 95 % 1030,2 hPa 0,0 l/m 7,8 km/h (2 Bft) W-SW 257 0 min 0,000 mm 0,0 UV-I 0 W/m -2,5 C -3,3 C 12,9 km/h (3 Bft) 97,87 %
09.01.2017 02:52 -1,8 C 95 % 1030,2 hPa 0,0 l/m 10,7 km/h (2 Bft) W 263 0 min 0,000 mm 0,0 UV-I 0 W/m -2,5 C -6,0 C 16,1 km/h (3 Bft) 98,11 %
09.01.2017 02:54 -1,8 C 95 % 1030,2 hPa 0,0 l/m 6,1 km/h (2 Bft) W-SW 257 0 min 0,000 mm 0,0 UV-I 0 W/m -2,5 C -1,8 C 14,5 km/h (3 Bft) 100,00 %
09.01.2017 02:56 -1,8 C 95 % 1030,2 hPa 0,0 l/m 10,2 km/h (2 Bft) W-SW 244 0 min 0,000 mm 0,0 UV-I 0 W/m -2,5 C -5,6 C 14,5 km/h (3 Bft) 100,00 %
09.01.2017 02:58 -1,8 C 95 % 1030,2 hPa 0,0 l/m 12,2 km/h (2 Bft) W-NW 296 0 min 0,000 mm 0,0 UV-I 0 W/m -2,5 C -7,2 C 19,3 km/h (3 Bft) 97,73 %
09.01.2017 03:00 -1,8 C 95 % 1030,2 hPa 0,0 l/m 8,2 km/h (2 Bft) W-SW 244 0 min 0,000 mm 0,0 UV-I 0 W/m -2,5 C -3,7 C 14,5 km/h (3 Bft) 100,00 %
09.01.2017 03:02 -1,8 C 95 % 1030,2 hPa 0,0 l/m 7,7 km/h (2 Bft) W-SW 247 0 min 0,000 mm 0,0 UV-I 0 W/m -2,5 C -3,2 C 14,5 km/h (3 Bft) 98,11 %
09.01.2017 03:04 -1,8 C 95 % 1030,3 hPa 0,0 l/m 10,1 km/h (2 Bft) W-SW 257 0 min 0,000 mm 0,0 UV-I 0 W/m -2,5 C -5,5 C 14,5 km/h (3 Bft) 100,00 %
09.01.2017 03:06 -1,8 C 95 % 1030,2 hPa 0,0 l/m 10,2 km/h (2 Bft) W 264 0 min 0,000 mm 0,0 UV-I 0 W/m -2,5 C -5,6 C 17,7 km/h (3 Bft) 100,00 %
09.01.2017 03:08 -1,8 C 95 % 1030,2 hPa 0,0 l/m 11,3 km/h (2 Bft) W-SW 251 0 min 0,000 mm 0,0 UV-I 0 W/m -2,5 C -6,5 C 19,3 km/h (3 Bft) 97,87 %
09.01.2017 03:10 -1,8 C 95 % 1030,2 hPa 0,0 l/m 7,5 km/h (2 Bft) W-SW 256 0 min 0,000 mm 0,0 UV-I 0 W/m -2,5 C -3,0 C 12,9 km/h (3 Bft) 100,00 %
09.01.2017 03:12 -1,8 C 95 % 1030,2 hPa 0,0 l/m 7,2 km/h (2 Bft) W-SW 253 0 min 0,000 mm 0,0 UV-I 0 W/m -2,5 C -2,7 C 12,9 km/h (3 Bft) 98,21 %
09.01.2017 03:14 -1,8 C 95 % 1030,2 hPa 0,0 l/m 9,0 km/h (2 Bft) W-NW 297 0 min 0,000 mm 0,0 UV-I 0 W/m -2,5 C -4,5 C 14,5 km/h (3 Bft) 100,00 %
09.01.2017 03:16 -1,8 C 95 % 1030,2 hPa 0,0 l/m 8,5 km/h (2 Bft) W 277 0 min 0,000 mm 0,0 UV-I 0 W/m -2,5 C -4,0 C 12,9 km/h (3 Bft) 100,00 %
09.01.2017 03:18 -1,8 C 95 % 1030,2 hPa 0,0 l/m 6,7 km/h (2 Bft) W-SW 250 0 min 0,000 mm 0,0 UV-I 0 W/m -2,5 C -2,1 C 12,9 km/h (3 Bft) 97,37 %
09.01.2017 03:20 -1,8 C 95 % 1030,2 hPa 0,0 l/m 5,2 km/h (1 Bft) W-NW 289 0 min 0,000 mm 0,0 UV-I 0 W/m -2,5 C -1,8 C 6,4 km/h (2 Bft) 100,00 %
09.01.2017 03:22 -1,8 C 95 % 1030,2 hPa 0,0 l/m 4,8 km/h (1 Bft) W 264 0 min 0,000 mm 0,0 UV-I 0 W/m -2,5 C -1,8 C 11,3 km/h (2 Bft) 100,00 %
09.01.2017 03:24 -1,8 C 95 % 1030,2 hPa 0,0 l/m 4,8 km/h (1 Bft) NW 305 0 min 0,000 mm 0,0 UV-I 0 W/m -2,5 C -1,8 C 9,7 km/h (2 Bft) 100,00 %
09.01.2017 03:26 -1,8 C 95 % 1030,2 hPa 0,0 l/m 5,1 km/h (1 Bft) W 274 0 min 0,000 mm 0,0 UV-I 0 W/m -2,5 C -1,8 C 11,3 km/h (2 Bft) 100,00 %
09.01.2017 03:28 -1,8 C 95 % 1030,3 hPa 0,0 l/m 7,4 km/h (2 Bft) W-NW 282 0 min 0,000 mm 0,0 UV-I 0 W/m -2,5 C -2,9 C 12,9 km/h (3 Bft) 100,00 %
09.01.2017 03:30 -1,8 C 95 % 1030,2 hPa 0,0 l/m 8,1 km/h (2 Bft) W 267 0 min 0,000 mm 0,0 UV-I 0 W/m -2,5 C -3,6 C 16,1 km/h (3 Bft) 100,00 %
09.01.2017 03:32 -1,8 C 95 % 1030,2 hPa 0,0 l/m 6,2 km/h (2 Bft) W 263 0 min 0,000 mm 0,0 UV-I 0 W/m -2,5 C -1,8 C 14,5 km/h (3 Bft) 97,56 %
09.01.2017 03:34 -1,8 C 95 % 1030,2 hPa 0,0 l/m 5,2 km/h (1 Bft) W-NW 293 0 min 0,000 mm 0,0 UV-I 0 W/m -2,5 C -1,8 C 11,3 km/h (2 Bft) 98,00 %
09.01.2017 03:36 -1,8 C 95 % 1030,3 hPa 0,0 l/m 9,1 km/h (2 Bft) W-SW 250 0 min 0,000 mm 0,0 UV-I 0 W/m -2,5 C -4,6 C 19,3 km/h (3 Bft) 100,00 %
09.01.2017 03:38 -1,8 C 95 % 1030,3 hPa 0,0 l/m 7,0 km/h (2 Bft) W-SW 258 0 min 0,000 mm 0,0 UV-I 0 W/m -2,5 C -2,5 C 9,7 km/h (2 Bft) 100,00 %
09.01.2017 03:40 -1,8 C 95 % 1030,3 hPa 0,0 l/m 6,8 km/h (2 Bft) W 262 0 min 0,000 mm 0,0 UV-I 0 W/m -2,5 C -2,2 C 12,9 km/h (3 Bft) 98,11 %
09.01.2017 03:42 -1,9 C 95 % 1030,2 hPa 0,0 l/m 5,6 km/h (1 Bft) W-SW 241 0 min 0,000 mm 0,0 UV-I 0 W/m -2,6 C -1,9 C 11,3 km/h (2 Bft) 98,00 %
09.01.2017 03:44 -1,9 C 95 % 1030,2 hPa 0,0 l/m 4,2 km/h (1 Bft) W-NW 293 0 min 0,000 mm 0,0 UV-I 0 W/m -2,6 C -1,9 C 8,0 km/h (2 Bft) 97,56 %
09.01.2017 03:46 -1,9 C 95 % 1030,3 hPa 0,0 l/m 6,9 km/h (2 Bft) W-SW 243 0 min 0,000 mm 0,0 UV-I 0 W/m -2,6 C -2,4 C 11,3 km/h (2 Bft) 96,88 %
09.01.2017 03:48 -1,9 C 95 % 1030,3 hPa 0,0 l/m 7,3 km/h (2 Bft) W 262 0 min 0,000 mm 0,0 UV-I 0 W/m -2,6 C -2,9 C 12,9 km/h (3 Bft) 97,06 %
09.01.2017 03:50 -1,9 C 95 % 1030,3 hPa 0,0 l/m 8,2 km/h (2 Bft) W-NW 303 0 min 0,000 mm 0,0 UV-I 0 W/m -2,6 C -3,8 C 14,5 km/h (3 Bft) 97,37 %
09.01.2017 03:52 -1,9 C 95 % 1030,2 hPa 0,0 l/m 6,3 km/h (2 Bft) W 269 0 min 0,000 mm 0,0 UV-I 0 W/m -2,6 C -1,9 C 11,3 km/h (2 Bft) 94,64 %
09.01.2017 03:54 -2,0 C 95 % 1030,2 hPa 0,0 l/m 6,0 km/h (2 Bft) W-NW 291 0 min 0,000 mm 0,0 UV-I 0 W/m -2,7 C -2,0 C 9,7 km/h (2 Bft) 97,73 %
09.01.2017 03:56 -2,0 C 95 % 1030,1 hPa 0,0 l/m 7,3 km/h (2 Bft) W 270 0 min 0,000 mm 0,0 UV-I 0 W/m -2,7 C -3,0 C 12,9 km/h (3 Bft) 98,00 %
09.01.2017 03:58 -2,0 C 95 % 1030,1 hPa 0,0 l/m 9,4 km/h (2 Bft) W 262 0 min 0,000 mm 0,0 UV-I 0 W/m -2,7 C -5,1 C 14,5 km/h (3 Bft) 97,56 %
09.01.2017 04:00 -2,1 C 95 % 1030,2 hPa 0,0 l/m 8,9 km/h (2 Bft) W-SW 258 0 min 0,000 mm 0,0 UV-I 0 W/m -2,8 C -4,8 C 19,3 km/h (3 Bft) 97,44 %
09.01.2017 04:02 -2,1 C 95 % 1030,2 hPa 0,0 l/m 4,8 km/h (1 Bft) W 266 0 min 0,000 mm 0,0 UV-I 0 W/m -2,8 C -2,1 C 6,4 km/h (2 Bft) 96,55 %
09.01.2017 04:04 -2,1 C 95 % 1030,2 hPa 0,0 l/m 6,0 km/h (2 Bft) W 259 0 min 0,000 mm 0,0 UV-I 0 W/m -2,8 C -2,1 C 16,1 km/h (3 Bft) 98,00 %
09.01.2017 04:06 -2,1 C 95 % 1030,2 hPa 0,0 l/m 7,5 km/h (2 Bft) W-SW 258 0 min 0,000 mm 0,0 UV-I 0 W/m -2,8 C -3,3 C 17,7 km/h (3 Bft) 98,00 %
09.01.2017 04:08 -2,1 C 95 % 1030,1 hPa 0,0 l/m 8,3 km/h (2 Bft) W 270 0 min 0,000 mm 0,0 UV-I 0 W/m -2,8 C -4,2 C 16,1 km/h (3 Bft) 97,56 %
09.01.2017 04:10 -2,1 C 95 % 1030,2 hPa 0,0 l/m 8,4 km/h (2 Bft) W 270 0 min 0,000 mm 0,0 UV-I 0 W/m -2,8 C -4,3 C 12,9 km/h (3 Bft) 98,11 %
09.01.2017 04:12 -2,1 C 95 % 1030,1 hPa 0,0 l/m 8,1 km/h (2 Bft) W 262 0 min 0,000 mm 0,0 UV-I 0 W/m -2,8 C -4,0 C 14,5 km/h (3 Bft) 97,56 %
09.01.2017 04:14 -2,1 C 95 % 1030,0 hPa 0,0 l/m 8,1 km/h (2 Bft) W-NW 292 0 min 0,000 mm 0,0 UV-I 0 W/m -2,8 C -4,0 C 16,1 km/h (3 Bft) 96,23 %
09.01.2017 04:16 -2,1 C 95 % 1030,0 hPa 0,0 l/m 7,5 km/h (2 Bft) W 268 0 min 0,000 mm 0,0 UV-I 0 W/m -2,8 C -3,3 C 11,3 km/h (2 Bft) 97,37 %
09.01.2017 04:18 -2,2 C 95 % 1030,0 hPa 0,0 l/m 7,7 km/h (2 Bft) W 277 0 min 0,000 mm 0,0 UV-I 0 W/m -2,9 C -3,6 C 11,3 km/h (2 Bft) 94,64 %
09.01.2017 04:20 -2,2 C 95 % 1029,9 hPa 0,0 l/m 5,9 km/h (2 Bft) W-SW 238 0 min 0,000 mm 0,0 UV-I 0 W/m -2,9 C -2,2 C 11,3 km/h (2 Bft) 100,00 %
09.01.2017 04:22 -2,2 C 95 % 1029,9 hPa 0,0 l/m 7,8 km/h (2 Bft) W 259 0 min 0,000 mm 0,0 UV-I 0 W/m -2,9 C -3,7 C 16,1 km/h (3 Bft) 100,00 %
09.01.2017 04:24 -2,2 C 95 % 1029,9 hPa 0,0 l/m 9,4 km/h (2 Bft) W-SW 252 0 min 0,000 mm 0,0 UV-I 0 W/m -2,9 C -5,3 C 16,1 km/h (3 Bft) 100,00 %
09.01.2017 04:26 -2,2 C 95 % 1029,9 hPa 0,0 l/m 6,0 km/h (2 Bft) W 266 0 min 0,000 mm 0,0 UV-I 0 W/m -2,9 C -2,2 C 12,9 km/h (3 Bft) 100,00 %
09.01.2017 04:28 -2,2 C 95 % 1029,9 hPa 0,0 l/m 7,3 km/h (2 Bft) W-SW 243 0 min 0,000 mm 0,0 UV-I 0 W/m -2,9 C -3,2 C 11,3 km/h (2 Bft) 97,14 %
09.01.2017 04:30 -2,2 C 95 % 1029,9 hPa 0,0 l/m 6,3 km/h (2 Bft) W 276 0 min 0,000 mm 0,0 UV-I 0 W/m -2,9 C -2,2 C 11,3 km/h (2 Bft) 100,00 %
09.01.2017 04:32 -2,2 C 95 % 1029,9 hPa 0,0 l/m 7,5 km/h (2 Bft) W 267 0 min 0,000 mm 0,0 UV-I 0 W/m -2,9 C -3,4 C 12,9 km/h (3 Bft) 100,00 %
09.01.2017 04:34 -2,2 C 95 % 1029,9 hPa 0,0 l/m 11,3 km/h (2 Bft) W 261 0 min 0,000 mm 0,0 UV-I 0 W/m -2,9 C -7,0 C 17,7 km/h (3 Bft) 100,00 %
09.01.2017 04:36 -2,2 C 95 % 1029,9 hPa 0,0 l/m 7,3 km/h (2 Bft) W 266 0 min 0,000 mm 0,0 UV-I 0 W/m -2,9 C -3,2 C 17,7 km/h (3 Bft) 100,00 %
09.01.2017 04:38 -2,2 C 95 % 1029,9 hPa 0,0 l/m 5,5 km/h (1 Bft) W 279 0 min 0,000 mm 0,0 UV-I 0 W/m -2,9 C -2,2 C 11,3 km/h (2 Bft) 100,00 %
09.01.2017 04:40 -2,2 C 95 % 1030,0 hPa 0,0 l/m 8,7 km/h (2 Bft) W 277 0 min 0,000 mm 0,0 UV-I 0 W/m -2,9 C -4,7 C 14,5 km/h (3 Bft) 100,00 %
09.01.2017 04:42 -2,2 C 95 % 1030,0 hPa 0,0 l/m 9,3 km/h (2 Bft) W 271 0 min 0,000 mm 0,0 UV-I 0 W/m -2,9 C -5,2 C 14,5 km/h (3 Bft) 98,11 %
09.01.2017 04:44 -2,2 C 95 % 1030,0 hPa 0,0 l/m 6,9 km/h (2 Bft) W-SW 254 0 min 0,000 mm 0,0 UV-I 0 W/m -2,9 C -2,7 C 11,3 km/h (2 Bft) 100,00 %
09.01.2017 04:46 -2,2 C 95 % 1030,0 hPa 0,0 l/m 7,2 km/h (2 Bft) W-SW 238 0 min 0,000 mm 0,0 UV-I 0 W/m -2,9 C -3,1 C 14,5 km/h (3 Bft) 98,11 %
09.01.2017 04:48 -2,2 C 95 % 1030,0 hPa 0,0 l/m 8,8 km/h (2 Bft) W 268 0 min 0,000 mm 0,0 UV-I 0 W/m -2,9 C -4,8 C 14,5 km/h (3 Bft) 100,00 %
09.01.2017 04:50 -2,2 C 95 % 1029,9 hPa 0,0 l/m 8,5 km/h (2 Bft) W-SW 252 0 min 0,000 mm 0,0 UV-I 0 W/m -2,9 C -4,5 C 12,9 km/h (3 Bft) 100,00 %
09.01.2017 04:52 -2,2 C 95 % 1029,9 hPa 0,0 l/m 8,8 km/h (2 Bft) W-SW 246 0 min 0,000 mm 0,0 UV-I 0 W/m -2,9 C -4,8 C 17,7 km/h (3 Bft) 100,00 %
09.01.2017 04:54 -2,2 C 95 % 1029,9 hPa 0,0 l/m 8,4 km/h (2 Bft) W-NW 288 0 min 0,000 mm 0,0 UV-I 0 W/m -2,9 C -4,4 C 14,5 km/h (3 Bft) 100,00 %
09.01.2017 04:56 -2,2 C 95 % 1029,9 hPa 0,0 l/m 8,4 km/h (2 Bft) W-NW 297 0 min 0,000 mm 0,0 UV-I 0 W/m -2,9 C -4,4 C 12,9 km/h (3 Bft) 100,00 %
09.01.2017 04:58 -2,2 C 95 % 1029,8 hPa 0,0 l/m 10,7 km/h (2 Bft) W 265 0 min 0,000 mm 0,0 UV-I 0 W/m -2,9 C -6,5 C 17,7 km/h (3 Bft) 100,00 %
09.01.2017 05:00 -2,2 C 95 % 1029,8 hPa 0,0 l/m 6,6 km/h (2 Bft) W-NW 288 0 min 0,000 mm 0,0 UV-I 0 W/m -2,9 C -2,4 C 11,3 km/h (2 Bft) 98,31 %
09.01.2017 05:02 -2,2 C 95 % 1029,8 hPa 0,0 l/m 9,7 km/h (2 Bft) W 277 0 min 0,000 mm 0,0 UV-I 0 W/m -2,9 C -5,6 C 17,7 km/h (3 Bft) 97,22 %
09.01.2017 05:04 -2,2 C 94 % 1029,8 hPa 0,0 l/m 7,1 km/h (2 Bft) W-SW 252 0 min 0,000 mm 0,0 UV-I 0 W/m -3,0 C -3,0 C 9,7 km/h (2 Bft) 98,21 %
09.01.2017 05:06 -2,2 C 94 % 1029,8 hPa 0,0 l/m 8,3 km/h (2 Bft) W 260 0 min 0,000 mm 0,0 UV-I 0 W/m -3,0 C -4,3 C 14,5 km/h (3 Bft) 100,00 %
09.01.2017 05:08 -2,2 C 94 % 1029,8 hPa 0,0 l/m 9,2 km/h (2 Bft) W 267 0 min 0,000 mm 0,0 UV-I 0 W/m -3,0 C -5,1 C 12,9 km/h (3 Bft) 100,00 %
09.01.2017 05:10 -2,2 C 94 % 1029,8 hPa 0,0 l/m 9,9 km/h (2 Bft) NW 324 0 min 0,000 mm 0,0 UV-I 0 W/m -3,0 C -5,8 C 14,5 km/h (3 Bft) 100,00 %
09.01.2017 05:12 -2,2 C 94 % 1029,8 hPa 0,0 l/m 8,9 km/h (2 Bft) W 277 0 min 0,000 mm 0,0 UV-I 0 W/m -3,0 C -4,9 C 14,5 km/h (3 Bft) 100,00 %
09.01.2017 05:14 -2,2 C 94 % 1029,8 hPa 0,0 l/m 7,9 km/h (2 Bft) W-NW 282 0 min 0,000 mm 0,0 UV-I 0 W/m -3,0 C -3,9 C 12,9 km/h (3 Bft) 100,00 %
09.01.2017 05:16 -2,2 C 94 % 1029,9 hPa 0,0 l/m 10,3 km/h (2 Bft) W 263 0 min 0,000 mm 0,0 UV-I 0 W/m -3,0 C -6,1 C 14,5 km/h (3 Bft) 100,00 %
09.01.2017 05:18 -2,3 C 94 % 1029,9 hPa 0,0 l/m 11,1 km/h (2 Bft) W 279 0 min 0,000 mm 0,0 UV-I 0 W/m -3,1 C -6,9 C 17,7 km/h (3 Bft) 100,00 %
09.01.2017 05:20 -2,2 C 94 % 1030,0 hPa 0,0 l/m 8,1 km/h (2 Bft) W 265 0 min 0,000 mm 0,0 UV-I 0 W/m -3,0 C -4,1 C 16,1 km/h (3 Bft) 100,00 %
09.01.2017 05:22 -2,2 C 94 % 1029,9 hPa 0,0 l/m 6,3 km/h (2 Bft) W 274 0 min 0,000 mm 0,0 UV-I 0 W/m -3,0 C -2,2 C 9,7 km/h (2 Bft) 97,87 %
09.01.2017 05:24 -2,2 C 94 % 1029,9 hPa 0,0 l/m 6,5 km/h (2 Bft) W 279 0 min 0,000 mm 0,0 UV-I 0 W/m -3,0 C -2,3 C 11,3 km/h (2 Bft) 100,00 %
09.01.2017 05:26 -2,2 C 94 % 1030,0 hPa 0,0 l/m 6,1 km/h (2 Bft) W-SW 255 0 min 0,000 mm 0,0 UV-I 0 W/m -3,0 C -2,2 C 9,7 km/h (2 Bft) 100,00 %
09.01.2017 05:28 -2,2 C 94 % 1030,0 hPa 0,0 l/m 4,4 km/h (1 Bft) W 279 0 min 0,000 mm 0,0 UV-I 0 W/m -3,0 C -2,2 C 8,0 km/h (2 Bft) 98,21 %
09.01.2017 05:30 -2,2 C 94 % 1030,0 hPa 0,0 l/m 6,9 km/h (2 Bft) W-SW 258 0 min 0,000 mm 0,0 UV-I 0 W/m -3,0 C -2,7 C 14,5 km/h (3 Bft) 100,00 %
09.01.2017 05:32 -2,2 C 94 % 1029,9 hPa 0,0 l/m 10,0 km/h (2 Bft) W-NW 285 0 min 0,000 mm 0,0 UV-I 0 W/m -3,0 C -5,9 C 16,1 km/h (3 Bft) 100,00 %
09.01.2017 05:34 -2,2 C 94 % 1029,9 hPa 0,0 l/m 7,4 km/h (2 Bft) W 268 0 min 0,000 mm 0,0 UV-I 0 W/m -3,0 C -3,3 C 11,3 km/h (2 Bft) 100,00 %
09.01.2017 05:36 -2,3 C 94 % 1029,9 hPa 0,0 l/m 6,9 km/h (2 Bft) W-SW 241 0 min 0,000 mm 0,0 UV-I 0 W/m -3,1 C -2,8 C 9,7 km/h (2 Bft) 97,56 %
09.01.2017 05:38 -2,3 C 94 % 1029,9 hPa 0,0 l/m 8,6 km/h (2 Bft) W 280 0 min 0,000 mm 0,0 UV-I 0 W/m -3,1 C -4,7 C 12,9 km/h (3 Bft) 100,00 %
09.01.2017 05:40 -2,3 C 94 % 1029,9 hPa 0,0 l/m 8,1 km/h (2 Bft) W 261 0 min 0,000 mm 0,0 UV-I 0 W/m -3,1 C -4,2 C 12,9 km/h (3 Bft) 98,11 %
09.01.2017 05:42 -2,3 C 94 % 1029,9 hPa 0,0 l/m 7,4 km/h (2 Bft) W 272 0 min 0,000 mm 0,0 UV-I 0 W/m -3,1 C -3,4 C 11,3 km/h (2 Bft) 100,00 %
09.01.2017 05:44 -2,3 C 94 % 1029,9 hPa 0,0 l/m 6,4 km/h (2 Bft) SW 236 0 min 0,000 mm 0,0 UV-I 0 W/m -3,1 C -2,3 C 11,3 km/h (2 Bft) 98,00 %
09.01.2017 05:46 -2,3 C 94 % 1029,9 hPa 0,0 l/m 5,2 km/h (1 Bft) W 269 0 min 0,000 mm 0,0 UV-I 0 W/m -3,1 C -2,3 C 9,7 km/h (2 Bft) 100,00 %
09.01.2017 05:48 -2,3 C 94 % 1029,9 hPa 0,0 l/m 6,1 km/h (2 Bft) W-SW 258 0 min 0,000 mm 0,0 UV-I 0 W/m -3,1 C -2,3 C 12,9 km/h (3 Bft) 92,68 %
09.01.2017 05:50 -2,3 C 94 % 1030,0 hPa 0,0 l/m 6,3 km/h (2 Bft) W 263 0 min 0,000 mm 0,0 UV-I 0 W/m -3,1 C -2,3 C 12,9 km/h (3 Bft) 98,21 %
09.01.2017 05:52 -2,3 C 94 % 1030,0 hPa 0,0 l/m 5,6 km/h (1 Bft) W-SW 244 0 min 0,000 mm 0,0 UV-I 0 W/m -3,1 C -2,3 C 6,4 km/h (2 Bft) 97,37 %
09.01.2017 05:54 -2,3 C 94 % 1030,0 hPa 0,0 l/m 3,9 km/h (1 Bft) W 261 0 min 0,000 mm 0,0 UV-I 0 W/m -3,1 C -2,3 C 6,4 km/h (2 Bft) 98,11 %
09.01.2017 05:56 -2,3 C 94 % 1030,1 hPa 0,0 l/m 5,8 km/h (2 Bft) W-SW 254 0 min 0,000 mm 0,0 UV-I 0 W/m -3,1 C -2,3 C 11,3 km/h (2 Bft) 97,44 %
09.01.2017 05:58 -2,3 C 94 % 1030,1 hPa 0,0 l/m 5,8 km/h (2 Bft) W-NW 299 0 min 0,000 mm 0,0 UV-I 0 W/m -3,1 C -2,3 C 11,3 km/h (2 Bft) 96,36 %
09.01.2017 06:00 -2,2 C 94 % 1030,1 hPa 0,0 l/m 4,3 km/h (1 Bft) W 267 0 min 0,000 mm 0,0 UV-I 0 W/m -3,0 C -2,2 C 9,7 km/h (2 Bft) 97,62 %
09.01.2017 06:02 -2,2 C 94 % 1030,1 hPa 0,0 l/m 4,7 km/h (1 Bft) W 268 0 min 0,000 mm 0,0 UV-I 0 W/m -3,0 C -2,2 C 6,4 km/h (2 Bft) 97,87 %
09.01.2017 06:04 -2,3 C 94 % 1030,1 hPa 0,0 l/m 4,8 km/h (1 Bft) W 280 0 min 0,000 mm 0,0 UV-I 0 W/m -3,1 C -2,3 C 9,7 km/h (2 Bft) 98,00 %
09.01.2017 06:06 -2,2 C 94 % 1030,1 hPa 0,0 l/m 5,1 km/h (1 Bft) W 276 0 min 0,000 mm 0,0 UV-I 0 W/m -3,0 C -2,2 C 9,7 km/h (2 Bft) 96,00 %
09.01.2017 06:08 -2,2 C 94 % 1030,0 hPa 0,0 l/m 5,4 km/h (1 Bft) W 260 0 min 0,000 mm 0,0 UV-I 0 W/m -3,0 C -2,2 C 9,7 km/h (2 Bft) 97,37 %
09.01.2017 06:10 -2,3 C 94 % 1030,0 hPa 0,0 l/m 7,5 km/h (2 Bft) W-NW 288 0 min 0,000 mm 0,0 UV-I 0 W/m -3,1 C -3,5 C 11,3 km/h (2 Bft) 98,00 %
09.01.2017 06:12 -2,2 C 94 % 1030,0 hPa 0,0 l/m 2,2 km/h (1 Bft) W-NW 283 0 min 0,000 mm 0,0 UV-I 0 W/m -3,0 C -2,2 C 4,8 km/h (1 Bft) 95,45 %
09.01.2017 06:14 -2,3 C 94 % 1029,9 hPa 0,0 l/m 2,8 km/h (1 Bft) W 268 0 min 0,000 mm 0,0 UV-I 0 W/m -3,1 C -2,3 C 6,4 km/h (2 Bft) 96,00 %
09.01.2017 06:16 -2,3 C 94 % 1029,9 hPa 0,0 l/m 4,1 km/h (1 Bft) W 279 0 min 0,000 mm 0,0 UV-I 0 W/m -3,1 C -2,3 C 6,4 km/h (2 Bft) 97,87 %
09.01.2017 06:18 -2,3 C 94 % 1029,9 hPa 0,0 l/m 3,5 km/h (1 Bft) W 272 0 min 0,000 mm 0,0 UV-I 0 W/m -3,1 C -2,3 C 6,4 km/h (2 Bft) 98,00 %
09.01.2017 06:20 -2,3 C 94 % 1029,9 hPa 0,0 l/m 3,7 km/h (1 Bft) W 271 0 min 0,000 mm 0,0 UV-I 0 W/m -3,1 C -2,3 C 6,4 km/h (2 Bft) 97,87 %
09.01.2017 06:22 -2,3 C 94 % 1029,9 hPa 0,0 l/m 6,7 km/h (2 Bft) W 274 0 min 0,000 mm 0,0 UV-I 0 W/m -3,1 C -2,6 C 12,9 km/h (3 Bft) 97,87 %
09.01.2017 06:24 -2,3 C 94 % 1029,9 hPa 0,0 l/m 3,7 km/h (1 Bft) W 269 0 min 0,000 mm 0,0 UV-I 0 W/m -3,1 C -2,3 C 9,7 km/h (2 Bft) 94,29 %
09.01.2017 06:26 -2,3 C 94 % 1029,8 hPa 0,0 l/m 5,8 km/h (2 Bft) W 262 0 min 0,000 mm 0,0 UV-I 0 W/m -3,1 C -2,3 C 11,3 km/h (2 Bft) 100,00 %
09.01.2017 06:28 -2,3 C 94 % 1029,8 hPa 0,0 l/m 4,7 km/h (1 Bft) W 262 0 min 0,000 mm 0,0 UV-I 0 W/m -3,1 C -2,3 C 6,4 km/h (2 Bft) 100,00 %
09.01.2017 06:30 -2,3 C 94 % 1029,8 hPa 0,0 l/m 4,9 km/h (1 Bft) W 259 0 min 0,000 mm 0,0 UV-I 0 W/m -3,1 C -2,3 C 6,4 km/h (2 Bft) 100,00 %
09.01.2017 06:32 -2,4 C 94 % 1029,8 hPa 0,0 l/m 6,9 km/h (2 Bft) W-SW 258 0 min 0,000 mm 0,0 UV-I 0 W/m -3,2 C -2,9 C 11,3 km/h (2 Bft) 97,87 %
09.01.2017 06:34 -2,3 C 94 % 1029,7 hPa 0,0 l/m 6,4 km/h (2 Bft) W-SW 250 0 min 0,000 mm 0,0 UV-I 0 W/m -3,1 C -2,3 C 12,9 km/h (3 Bft) 100,00 %
09.01.2017 06:36 -2,3 C 94 % 1029,7 hPa 0,0 l/m 5,5 km/h (1 Bft) W-SW 245 0 min 0,000 mm 0,0 UV-I 0 W/m -3,1 C -2,3 C 9,7 km/h (2 Bft) 100,00 %
09.01.2017 06:38 -2,3 C 94 % 1029,7 hPa 0,0 l/m 6,3 km/h (2 Bft) W 279 0 min 0,000 mm 0,0 UV-I 0 W/m -3,1 C -2,3 C 11,3 km/h (2 Bft) 100,00 %
09.01.2017 06:40 -2,3 C 94 % 1029,7 hPa 0,0 l/m 4,4 km/h (1 Bft) W 277 0 min 0,000 mm 0,0 UV-I 0 W/m -3,1 C -2,3 C 12,9 km/h (3 Bft) 100,00 %
09.01.2017 06:42 -2,3 C 94 % 1029,7 hPa 0,0 l/m 6,6 km/h (2 Bft) W-SW 250 0 min 0,000 mm 0,0 UV-I 0 W/m -3,1 C -2,5 C 11,3 km/h (2 Bft) 100,00 %
09.01.2017 06:44 -2,3 C 94 % 1029,6 hPa 0,0 l/m 5,5 km/h (1 Bft) W-SW 254 0 min 0,000 mm 0,0 UV-I 0 W/m -3,1 C -2,3 C 9,7 km/h (2 Bft) 100,00 %
09.01.2017 06:46 -2,3 C 94 % 1029,6 hPa 0,0 l/m 5,6 km/h (1 Bft) W-SW 249 0 min 0,000 mm 0,0 UV-I 0 W/m -3,1 C -2,3 C 9,7 km/h (2 Bft) 100,00 %
09.01.2017 06:48 -2,3 C 94 % 1029,6 hPa 0,0 l/m 6,1 km/h (2 Bft) W-SW 258 0 min 0,000 mm 0,0 UV-I 0 W/m -3,1 C -2,3 C 11,3 km/h (2 Bft) 97,87 %
09.01.2017 06:50 -2,3 C 94 % 1029,6 hPa 0,0 l/m 6,4 km/h (2 Bft) W-SW 252 0 min 0,000 mm 0,0 UV-I 0 W/m -3,1 C -2,3 C 11,3 km/h (2 Bft) 100,00 %
09.01.2017 06:52 -2,3 C 94 % 1029,5 hPa 0,0 l/m 6,7 km/h (2 Bft) W 265 0 min 0,000 mm 0,0 UV-I 0 W/m -3,1 C -2,6 C 9,7 km/h (2 Bft) 100,00 %
09.01.2017 06:54 -2,3 C 94 % 1029,6 hPa 0,0 l/m 6,0 km/h (2 Bft) W 263 0 min 0,000 mm 0,0 UV-I 0 W/m -3,1 C -2,3 C 9,7 km/h (2 Bft) 98,21 %
09.01.2017 06:56 -2,3 C 94 % 1029,6 hPa 0,0 l/m 6,8 km/h (2 Bft) W-SW 241 0 min 0,000 mm 0,0 UV-I 0 W/m -3,1 C -2,7 C 12,9 km/h (3 Bft) 100,00 %
09.01.2017 06:58 -2,3 C 94 % 1029,6 hPa 0,0 l/m 8,2 km/h (2 Bft) W-SW 252 0 min 0,000 mm 0,0 UV-I 0 W/m -3,1 C -4,3 C 14,5 km/h (3 Bft) 100,00 %
09.01.2017 07:00 -2,3 C 94 % 1029,5 hPa 0,0 l/m 5,4 km/h (1 Bft) W-SW 248 0 min 0,000 mm 0,0 UV-I 0 W/m -3,1 C -2,3 C 8,0 km/h (2 Bft) 98,00 %
09.01.2017 07:02 -2,3 C 94 % 1029,5 hPa 0,0 l/m 7,6 km/h (2 Bft) W-SW 248 0 min 0,000 mm 0,0 UV-I 0 W/m -3,1 C -3,6 C 11,3 km/h (2 Bft) 100,00 %
09.01.2017 07:04 -2,3 C 94 % 1029,4 hPa 0,0 l/m 6,3 km/h (2 Bft) SW 232 0 min 0,000 mm 0,0 UV-I 0 W/m -3,1 C -2,3 C 9,7 km/h (2 Bft) 100,00 %
09.01.2017 07:06 -2,3 C 94 % 1029,4 hPa 0,0 l/m 5,9 km/h (2 Bft) W 262 0 min 0,000 mm 0,0 UV-I 0 W/m -3,1 C -2,3 C 11,3 km/h (2 Bft) 100,00 %
09.01.2017 07:08 -2,3 C 94 % 1029,4 hPa 0,0 l/m 6,0 km/h (2 Bft) W-SW 246 0 min 0,000 mm 0,0 UV-I 0 W/m -3,1 C -2,3 C 9,7 km/h (2 Bft) 100,00 %
09.01.2017 07:10 -2,3 C 94 % 1029,4 hPa 0,0 l/m 6,6 km/h (2 Bft) W-SW 252 0 min 0,000 mm 0,0 UV-I 0 W/m -3,1 C -2,5 C 11,3 km/h (2 Bft) 98,11 %
09.01.2017 07:12 -2,3 C 94 % 1029,4 hPa 0,0 l/m 5,5 km/h (1 Bft) W-SW 252 0 min 0,000 mm 0,0 UV-I 0 W/m -3,1 C -2,3 C 8,0 km/h (2 Bft) 100,00 %
09.01.2017 07:14 -2,3 C 94 % 1029,3 hPa 0,0 l/m 5,9 km/h (2 Bft) W-SW 249 0 min 0,000 mm 0,0 UV-I 0 W/m -3,1 C -2,3 C 8,0 km/h (2 Bft) 97,37 %
09.01.2017 07:16 -2,3 C 94 % 1029,3 hPa 0,0 l/m 6,4 km/h (2 Bft) SW 236 0 min 0,000 mm 0,0 UV-I 0 W/m -3,1 C -2,3 C 11,3 km/h (2 Bft) 100,00 %
09.01.2017 07:18 -2,3 C 94 % 1029,3 hPa 0,0 l/m 6,2 km/h (2 Bft) W-SW 240 0 min 0,000 mm 0,0 UV-I 0 W/m -3,1 C -2,3 C 9,7 km/h (2 Bft) 100,00 %
09.01.2017 07:20 -2,3 C 94 % 1029,3 hPa 0,0 l/m 6,8 km/h (2 Bft) SW 223 0 min 0,000 mm 0,0 UV-I 0 W/m -3,1 C -2,7 C 9,7 km/h (2 Bft) 100,00 %
09.01.2017 07:22 -2,3 C 94 % 1029,2 hPa 0,0 l/m 8,7 km/h (2 Bft) W-SW 254 0 min 0,000 mm 0,0 UV-I 0 W/m -3,1 C -4,8 C 14,5 km/h (3 Bft) 98,11 %
09.01.2017 07:24 -2,3 C 94 % 1029,2 hPa 0,0 l/m 8,6 km/h (2 Bft) SW 231 0 min 0,000 mm 0,0 UV-I 0 W/m -3,1 C -4,7 C 12,9 km/h (3 Bft) 100,00 %
09.01.2017 07:26 -2,3 C 94 % 1029,2 hPa 0,0 l/m 7,1 km/h (2 Bft) SW 228 0 min 0,000 mm 0,0 UV-I 0 W/m -3,1 C -3,1 C 9,7 km/h (2 Bft) 100,00 %
09.01.2017 07:28 -2,2 C 94 % 1029,2 hPa 0,0 l/m 6,7 km/h (2 Bft) SW 220 0 min 0,000 mm 0,0 UV-I 0 W/m -3,0 C -2,5 C 11,3 km/h (2 Bft) 100,00 %
09.01.2017 07:30 -2,2 C 94 % 1029,1 hPa 0,0 l/m 8,9 km/h (2 Bft) W-SW 255 0 min 0,000 mm 0,0 UV-I 0 W/m -3,0 C -4,9 C 12,9 km/h (3 Bft) 100,00 %
09.01.2017 07:32 -2,2 C 94 % 1029,1 hPa 0,0 l/m 8,5 km/h (2 Bft) W 268 0 min 0,000 mm 0,0 UV-I 0 W/m -3,0 C -4,5 C 11,3 km/h (2 Bft) 97,37 %
09.01.2017 07:34 -2,2 C 94 % 1029,1 hPa 0,0 l/m 10,2 km/h (2 Bft) W 263 0 min 0,000 mm 0,0 UV-I 0 W/m -3,0 C -6,1 C 17,7 km/h (3 Bft) 100,00 %
09.01.2017 07:36 -2,2 C 94 % 1029,1 hPa 0,0 l/m 11,1 km/h (2 Bft) W-SW 254 0 min 0,000 mm 0,0 UV-I 0 W/m -3,0 C -6,8 C 16,1 km/h (3 Bft) 98,00 %
09.01.2017 07:38 -2,2 C 94 % 1029,1 hPa 0,0 l/m 8,4 km/h (2 Bft) SW 223 0 min 0,000 mm 0,0 UV-I 0 W/m -3,0 C -4,4 C 12,9 km/h (3 Bft) 100,00 %
09.01.2017 07:40 -2,2 C 94 % 1029,0 hPa 0,0 l/m 10,3 km/h (2 Bft) W-SW 257 0 min 0,000 mm 0,0 UV-I 0 W/m -3,0 C -6,1 C 16,1 km/h (3 Bft) 100,00 %
09.01.2017 07:42 -2,2 C 94 % 1029,1 hPa 0,0 l/m 6,7 km/h (2 Bft) SW 236 0 min 0,000 mm 0,0 UV-I 0 W/m -3,0 C -2,5 C 11,3 km/h (2 Bft) 100,00 %
09.01.2017 07:44 -2,2 C 93 % 1029,1 hPa 0,0 l/m 6,4 km/h (2 Bft) W 260 0 min 0,000 mm 0,0 UV-I 2 W/m -3,2 C -2,2 C 9,7 km/h (2 Bft) 100,00 %
09.01.2017 07:46 -2,2 C 93 % 1029,2 hPa 0,0 l/m 5,7 km/h (1 Bft) W 269 0 min 0,000 mm 0,0 UV-I 5 W/m -3,2 C -2,2 C 11,3 km/h (2 Bft) 100,00 %
09.01.2017 07:48 -2,2 C 93 % 1029,1 hPa 0,0 l/m 8,5 km/h (2 Bft) W-SW 251 0 min 0,000 mm 0,0 UV-I 5 W/m -3,2 C -4,5 C 12,9 km/h (3 Bft) 100,00 %
09.01.2017 07:50 -2,1 C 93 % 1029,0 hPa 0,0 l/m 6,5 km/h (2 Bft) W-SW 256 0 min 0,000 mm 0,0 UV-I 5 W/m -3,1 C -2,2 C 11,3 km/h (2 Bft) 97,87 %
09.01.2017 07:52 -2,1 C 93 % 1029,0 hPa 0,0 l/m 6,8 km/h (2 Bft) W-SW 239 0 min 0,000 mm 0,0 UV-I 5 W/m -3,1 C -2,5 C 11,3 km/h (2 Bft) 97,37 %
09.01.2017 07:54 -2,1 C 93 % 1029,0 hPa 0,0 l/m 7,3 km/h (2 Bft) W-SW 252 0 min 0,000 mm 0,0 UV-I 5 W/m -3,1 C -3,1 C 11,3 km/h (2 Bft) 100,00 %
09.01.2017 07:56 -2,1 C 93 % 1029,1 hPa 0,0 l/m 6,8 km/h (2 Bft) W-SW 254 0 min 0,000 mm 0,0 UV-I 5 W/m -3,1 C -2,5 C 11,3 km/h (2 Bft) 100,00 %
09.01.2017 07:58 -2,1 C 93 % 1029,0 hPa 0,0 l/m 8,0 km/h (2 Bft) W 265 0 min 0,000 mm 0,0 UV-I 5 W/m -3,1 C -3,9 C 12,9 km/h (3 Bft) 98,18 %
09.01.2017 08:00 -2,1 C 93 % 1029,0 hPa 0,0 l/m 7,6 km/h (2 Bft) W-SW 255 0 min 0,000 mm 0,0 UV-I 6 W/m -3,1 C -3,4 C 14,5 km/h (3 Bft) 95,74 %
09.01.2017 08:03 -2,1 C 93 % 1029,0 hPa 0,0 l/m 7,2 km/h (2 Bft) W 278 0 min 0,000 mm 0,0 UV-I 7 W/m -3,1 C -3,0 C 12,9 km/h (3 Bft) 98,39 %
09.01.2017 08:04 -2,1 C 93 % 1029,0 hPa 0,0 l/m 4,6 km/h (1 Bft) W 261 0 min 0,000 mm 0,0 UV-I 7 W/m -3,1 C -2,1 C 6,4 km/h (2 Bft) 95,83 %
09.01.2017 08:06 -2,1 C 93 % 1029,0 hPa 0,0 l/m 5,2 km/h (1 Bft) W-SW 255 0 min 0,000 mm 0,0 UV-I 8 W/m -3,1 C -2,1 C 9,7 km/h (2 Bft) 98,11 %
09.01.2017 08:08 -2,1 C 93 % 1029,0 hPa 0,0 l/m 7,7 km/h (2 Bft) W-SW 248 0 min 0,000 mm 0,0 UV-I 9 W/m -3,1 C -3,5 C 12,9 km/h (3 Bft) 98,00 %
09.01.2017 08:10 -2,1 C 93 % 1029,0 hPa 0,0 l/m 6,6 km/h (2 Bft) W 271 0 min 0,000 mm 0,0 UV-I 9 W/m -3,1 C -2,3 C 9,7 km/h (2 Bft) 97,14 %
09.01.2017 08:12 -2,1 C 93 % 1029,0 hPa 0,0 l/m 6,9 km/h (2 Bft) W-SW 249 0 min 0,000 mm 0,0 UV-I 10 W/m -3,1 C -2,6 C 9,7 km/h (2 Bft) 98,15 %
09.01.2017 08:14 -2,1 C 93 % 1029,0 hPa 0,0 l/m 6,3 km/h (2 Bft) W 262 0 min 0,000 mm 0,0 UV-I 11 W/m -3,1 C -2,1 C 11,3 km/h (2 Bft) 96,00 %
09.01.2017 08:16 -2,1 C 93 % 1028,9 hPa 0,0 l/m 6,1 km/h (2 Bft) W-SW 253 0 min 0,000 mm 0,0 UV-I 12 W/m -3,1 C -2,1 C 9,7 km/h (2 Bft) 97,87 %
09.01.2017 08:18 -2,0 C 94 % 1028,8 hPa 0,0 l/m 5,1 km/h (1 Bft) W-SW 257 0 min 0,000 mm 0,0 UV-I 13 W/m -2,8 C -2,0 C 11,3 km/h (2 Bft) 97,56 %
09.01.2017 08:20 -2,0 C 94 % 1028,8 hPa 0,0 l/m 9,1 km/h (2 Bft) W 261 0 min 0,000 mm 0,0 UV-I 14 W/m -2,8 C -4,8 C 14,5 km/h (3 Bft) 97,87 %
09.01.2017 08:22 -2,0 C 94 % 1028,9 hPa 0,0 l/m 7,9 km/h (2 Bft) SW 236 0 min 0,000 mm 0,0 UV-I 14 W/m -2,8 C -3,6 C 14,5 km/h (3 Bft) 97,56 %
09.01.2017 08:24 -2,0 C 94 % 1028,9 hPa 0,0 l/m 6,1 km/h (2 Bft) W-SW 257 0 min 0,000 mm 0,0 UV-I 16 W/m -2,8 C -2,0 C 8,0 km/h (2 Bft) 94,00 %
09.01.2017 08:26 -1,9 C 94 % 1028,9 hPa 0,0 l/m 7,1 km/h (2 Bft) W 259 0 min 0,000 mm 0,0 UV-I 18 W/m -2,7 C -2,7 C 11,3 km/h (2 Bft) 97,56 %
09.01.2017 08:28 -1,9 C 94 % 1028,9 hPa 0,0 l/m 9,5 km/h (2 Bft) W 269 0 min 0,000 mm 0,0 UV-I 19 W/m -2,7 C -5,1 C 12,9 km/h (3 Bft) 96,23 %
09.01.2017 08:30 -1,9 C 94 % 1029,0 hPa 0,0 l/m 6,1 km/h (2 Bft) W-SW 246 0 min 0,000 mm 0,0 UV-I 19 W/m -2,7 C -1,9 C 11,3 km/h (2 Bft) 98,00 %
09.01.2017 08:32 -1,9 C 93 % 1029,0 hPa 0,0 l/m 5,9 km/h (2 Bft) SW 228 0 min 0,000 mm 0,0 UV-I 21 W/m -2,9 C -1,9 C 11,3 km/h (2 Bft) 96,00 %
09.01.2017 08:34 -1,9 C 93 % 1029,0 hPa 0,0 l/m 7,9 km/h (2 Bft) W-SW 252 0 min 0,000 mm 0,0 UV-I 21 W/m -2,9 C -3,5 C 12,9 km/h (3 Bft) 97,56 %
09.01.2017 08:36 -1,8 C 93 % 1029,0 hPa 0,0 l/m 5,9 km/h (2 Bft) W-NW 291 0 min 0,000 mm 0,0 UV-I 22 W/m -2,8 C -1,8 C 9,7 km/h (2 Bft) 100,00 %
09.01.2017 08:38 -1,8 C 93 % 1029,1 hPa 0,0 l/m 6,2 km/h (2 Bft) W-SW 254 0 min 0,000 mm 0,0 UV-I 23 W/m -2,8 C -1,8 C 12,9 km/h (3 Bft) 97,62 %
09.01.2017 08:40 -1,8 C 93 % 1029,1 hPa 0,0 l/m 7,9 km/h (2 Bft) W 280 0 min 0,000 mm 0,0 UV-I 24 W/m -2,8 C -3,4 C 12,9 km/h (3 Bft) 97,73 %
09.01.2017 08:42 -1,8 C 93 % 1029,1 hPa 0,0 l/m 6,3 km/h (2 Bft) W 264 0 min 0,000 mm 0,0 UV-I 25 W/m -2,8 C -1,8 C 9,7 km/h (2 Bft) 98,11 %
09.01.2017 08:44 -1,8 C 93 % 1029,1 hPa 0,0 l/m 3,7 km/h (1 Bft) W 261 0 min 0,000 mm 0,0 UV-I 26 W/m -2,8 C -1,8 C 6,4 km/h (2 Bft) 100,00 %
09.01.2017 08:46 -1,8 C 93 % 1029,0 hPa 0,0 l/m 6,9 km/h (2 Bft) W 261 0 min 0,000 mm 0,0 UV-I 27 W/m -2,8 C -2,3 C 16,1 km/h (3 Bft) 100,00 %
09.01.2017 08:48 -1,8 C 93 % 1029,0 hPa 0,0 l/m 7,1 km/h (2 Bft) W-SW 257 0 min 0,000 mm 0,0 UV-I 28 W/m -2,8 C -2,6 C 11,3 km/h (2 Bft) 97,87 %
09.01.2017 08:50 -1,8 C 93 % 1028,9 hPa 0,0 l/m 6,5 km/h (2 Bft) W 269 0 min 0,000 mm 0,0 UV-I 28 W/m -2,8 C -1,9 C 14,5 km/h (3 Bft) 100,00 %
09.01.2017 08:52 -1,8 C 93 % 1029,0 hPa 0,0 l/m 5,7 km/h (1 Bft) W-SW 250 0 min 0,000 mm 0,0 UV-I 26 W/m -2,8 C -1,8 C 8,0 km/h (2 Bft) 100,00 %
09.01.2017 08:54 -1,7 C 93 % 1029,0 hPa 0,0 l/m 6,6 km/h (2 Bft) W-SW 252 0 min 0,000 mm 0,0 UV-I 28 W/m -2,7 C -1,9 C 9,7 km/h (2 Bft) 100,00 %
09.01.2017 08:56 -1,7 C 93 % 1028,9 hPa 0,0 l/m 6,9 km/h (2 Bft) W-SW 245 0 min 0,000 mm 0,0 UV-I 30 W/m -2,7 C -2,2 C 11,3 km/h (2 Bft) 100,00 %
09.01.2017 08:58 -1,7 C 93 % 1029,0 hPa 0,0 l/m 3,9 km/h (1 Bft) W 259 0 min 0,000 mm 0,0 UV-I 31 W/m -2,7 C -1,7 C 6,4 km/h (2 Bft) 100,00 %
09.01.2017 09:00 -1,7 C 93 % 1029,1 hPa 0,0 l/m 5,2 km/h (1 Bft) W 277 0 min 0,000 mm 0,0 UV-I 32 W/m -2,7 C -1,7 C 6,4 km/h (2 Bft) 100,00 %
09.01.2017 09:02 -1,7 C 93 % 1029,0 hPa 0,0 l/m 4,8 km/h (1 Bft) W 281 0 min 0,000 mm 0,0 UV-I 33 W/m -2,7 C -1,7 C 9,7 km/h (2 Bft) 100,00 %
09.01.2017 09:04 -1,7 C 93 % 1029,0 hPa 0,0 l/m 8,8 km/h (2 Bft) SW 235 0 min 0,000 mm 0,0 UV-I 34 W/m -2,7 C -4,2 C 12,9 km/h (3 Bft) 100,00 %
09.01.2017 09:06 -1,7 C 93 % 1028,9 hPa 0,0 l/m 5,6 km/h (1 Bft) W 266 0 min 0,000 mm 0,0 UV-I 35 W/m -2,7 C -1,7 C 9,7 km/h (2 Bft) 97,87 %
09.01.2017 09:10 -1,7 C 93 % 1028,9 hPa 0,0 l/m 6,4 km/h (2 Bft) W 270 0 min 0,000 mm 0,0 UV-I 35 W/m -2,7 C -1,7 C 14,5 km/h (3 Bft) 97,37 %
09.01.2017 09:15 -1,7 C 93 % 1029,0 hPa 0,0 l/m 4,8 km/h (1 Bft) W-SW 247 0 min 0,000 mm 0,0 UV-I 35 W/m -2,7 C -1,7 C 11,3 km/h (2 Bft) 99,12 %
09.01.2017 09:22 -1,7 C 93 % 1029,0 hPa 0,0 l/m 4,2 km/h (1 Bft) W 266 0 min 0,000 mm 0,0 UV-I 40 W/m -2,7 C -1,7 C 4,8 km/h (1 Bft) 100,00 %
09.01.2017 09:24 -1,7 C 93 % 1029,0 hPa 0,0 l/m 5,0 km/h (1 Bft) W 260 0 min 0,000 mm 0,0 UV-I 41 W/m -2,7 C -1,7 C 9,7 km/h (2 Bft) 95,74 %
09.01.2017 09:26 -1,7 C 93 % 1029,0 hPa 0,0 l/m 5,4 km/h (1 Bft) W 278 0 min 0,000 mm 0,0 UV-I 43 W/m -2,7 C -1,7 C 9,7 km/h (2 Bft) 100,00 %
09.01.2017 09:28 -1,7 C 93 % 1029,0 hPa 0,0 l/m 6,7 km/h (2 Bft) W-NW 282 0 min 0,000 mm 0,0 UV-I 46 W/m -2,7 C -2,0 C 9,7 km/h (2 Bft) 100,00 %
09.01.2017 09:30 -1,6 C 93 % 1029,0 hPa 0,0 l/m 6,4 km/h (2 Bft) W 267 0 min 0,000 mm 0,0 UV-I 46 W/m -2,6 C -1,6 C 11,3 km/h (2 Bft) 100,00 %
09.01.2017 09:32 -1,6 C 93 % 1029,1 hPa 0,0 l/m 4,7 km/h (1 Bft) W 266 0 min 0,000 mm 0,0 UV-I 47 W/m -2,6 C -1,6 C 6,4 km/h (2 Bft) 100,00 %
09.01.2017 09:34 -1,6 C 93 % 1029,0 hPa 0,0 l/m 6,5 km/h (2 Bft) SW 233 0 min 0,000 mm 0,0 UV-I 51 W/m -2,6 C -1,7 C 11,3 km/h (2 Bft) 100,00 %
09.01.2017 09:36 -1,6 C 92 % 1029,0 hPa 0,0 l/m 7,2 km/h (2 Bft) W 281 0 min 0,000 mm 0,0 UV-I 52 W/m -2,7 C -2,5 C 12,9 km/h (3 Bft) 100,00 %
09.01.2017 09:38 -1,6 C 92 % 1029,0 hPa 0,0 l/m 6,7 km/h (2 Bft) W 267 0 min 0,000 mm 0,0 UV-I 54 W/m -2,7 C -1,9 C 12,9 km/h (3 Bft) 100,00 %
09.01.2017 09:40 -1,6 C 92 % 1029,0 hPa 0,0 l/m 5,6 km/h (1 Bft) W-SW 250 0 min 0,000 mm 0,0 UV-I 56 W/m -2,7 C -1,6 C 9,7 km/h (2 Bft) 100,00 %
09.01.2017 09:42 -1,6 C 92 % 1028,9 hPa 0,0 l/m 8,0 km/h (2 Bft) W 275 0 min 0,000 mm 0,0 UV-I 61 W/m -2,7 C -3,3 C 12,9 km/h (3 Bft) 100,00 %
09.01.2017 09:44 -1,6 C 92 % 1028,9 hPa 0,0 l/m 6,5 km/h (2 Bft) W-SW 253 0 min 0,000 mm 0,0 UV-I 63 W/m -2,7 C -1,7 C 11,3 km/h (2 Bft) 100,00 %
09.01.2017 09:46 -1,5 C 92 % 1028,8 hPa 0,0 l/m 8,2 km/h (2 Bft) W-SW 254 0 min 0,000 mm 0,0 UV-I 63 W/m -2,6 C -3,4 C 12,9 km/h (3 Bft) 100,00 %
09.01.2017 09:48 -1,5 C 92 % 1028,9 hPa 0,0 l/m 6,5 km/h (2 Bft) W-SW 257 0 min 0,000 mm 0,0 UV-I 64 W/m -2,6 C -1,6 C 9,7 km/h (2 Bft) 100,00 %
09.01.2017 09:50 -1,5 C 92 % 1028,9 hPa 0,0 l/m 4,2 km/h (1 Bft) W 261 0 min 0,000 mm 0,0 UV-I 66 W/m -2,6 C -1,5 C 6,4 km/h (2 Bft) 100,00 %
09.01.2017 09:52 -1,5 C 92 % 1028,9 hPa 0,0 l/m 5,3 km/h (1 Bft) W-SW 257 0 min 0,000 mm 0,0 UV-I 66 W/m -2,6 C -1,5 C 6,4 km/h (2 Bft) 97,87 %
09.01.2017 09:54 -1,5 C 92 % 1028,8 hPa 0,0 l/m 7,4 km/h (2 Bft) W 261 0 min 0,000 mm 0,0 UV-I 63 W/m -2,6 C -2,6 C 11,3 km/h (2 Bft) 100,00 %
09.01.2017 09:56 -1,5 C 92 % 1028,8 hPa 0,0 l/m 6,4 km/h (2 Bft) W-SW 251 0 min 0,000 mm 0,0 UV-I 65 W/m -2,6 C -1,5 C 11,3 km/h (2 Bft) 100,00 %
09.01.2017 09:58 -1,5 C 92 % 1028,7 hPa 0,0 l/m 7,6 km/h (2 Bft) W-NW 285 0 min 0,000 mm 0,0 UV-I 65 W/m -2,6 C -2,8 C 11,3 km/h (2 Bft) 100,00 %
09.01.2017 10:00 -1,5 C 92 % 1028,8 hPa 0,0 l/m 8,1 km/h (2 Bft) W 273 0 min 0,025 mm 0,0 UV-I 68 W/m -2,6 C -3,3 C 12,9 km/h (3 Bft) 100,00 %
09.01.2017 10:02 -1,4 C 92 % 1028,8 hPa 0,0 l/m 6,6 km/h (2 Bft) W 263 0 min 0,000 mm 0,0 UV-I 70 W/m -2,5 C -1,6 C 9,7 km/h (2 Bft) 100,00 %
09.01.2017 10:04 -1,4 C 92 % 1028,9 hPa 0,0 l/m 6,1 km/h (2 Bft) W 263 0 min 0,000 mm 0,0 UV-I 72 W/m -2,5 C -1,4 C 11,3 km/h (2 Bft) 98,11 %
09.01.2017 10:06 -1,4 C 92 % 1028,9 hPa 0,0 l/m 9,1 km/h (2 Bft) W 264 0 min 0,000 mm 0,0 UV-I 72 W/m -2,5 C -4,2 C 14,5 km/h (3 Bft) 95,12 %
09.01.2017 10:08 -1,4 C 92 % 1028,9 hPa 0,0 l/m 4,5 km/h (1 Bft) W-SW 254 0 min 0,000 mm 0,0 UV-I 72 W/m -2,5 C -1,4 C 8,0 km/h (2 Bft) 98,00 %
09.01.2017 10:10 -1,4 C 92 % 1028,9 hPa 0,0 l/m 5,4 km/h (1 Bft) W-NW 282 0 min 0,000 mm 0,0 UV-I 76 W/m -2,5 C -1,4 C 8,0 km/h (2 Bft) 97,56 %
09.01.2017 10:12 -1,3 C 92 % 1028,9 hPa 0,0 l/m 6,0 km/h (2 Bft) W 269 0 min 0,000 mm 0,0 UV-I 80 W/m -2,4 C -1,3 C 9,7 km/h (2 Bft) 97,62 %
09.01.2017 10:14 -1,3 C 92 % 1028,9 hPa 0,0 l/m 4,2 km/h (1 Bft) W-NW 285 0 min 0,000 mm 0,0 UV-I 83 W/m -2,4 C -1,3 C 6,4 km/h (2 Bft) 98,11 %
09.01.2017 10:16 -1,3 C 92 % 1028,8 hPa 0,0 l/m 4,9 km/h (1 Bft) W 279 0 min 0,000 mm 0,0 UV-I 83 W/m -2,4 C -1,3 C 9,7 km/h (2 Bft) 97,56 %
09.01.2017 10:18 -1,3 C 92 % 1028,8 hPa 0,0 l/m 4,3 km/h (1 Bft) W 267 0 min 0,000 mm 0,0 UV-I 84 W/m -2,4 C -1,3 C 9,7 km/h (2 Bft) 96,15 %
09.01.2017 10:20 -1,3 C 92 % 1028,9 hPa 0,0 l/m 4,1 km/h (1 Bft) W-SW 242 0 min 0,000 mm 0,0 UV-I 84 W/m -2,4 C -1,3 C 6,4 km/h (2 Bft) 98,00 %
09.01.2017 10:22 -1,3 C 91 % 1028,8 hPa 0,0 l/m 4,9 km/h (1 Bft) W-SW 251 0 min 0,000 mm 0,0 UV-I 83 W/m -2,6 C -1,3 C 6,4 km/h (2 Bft) 96,00 %
09.01.2017 10:24 -1,3 C 91 % 1028,8 hPa 0,0 l/m 5,9 km/h (2 Bft) W-SW 243 0 min 0,000 mm 0,0 UV-I 84 W/m -2,6 C -1,3 C 8,0 km/h (2 Bft) 97,37 %
09.01.2017 10:26 -1,3 C 91 % 1028,7 hPa 0,0 l/m 5,3 km/h (1 Bft) W 259 0 min 0,000 mm 0,0 UV-I 84 W/m -2,6 C -1,3 C 11,3 km/h (2 Bft) 98,11 %
09.01.2017 10:28 -1,3 C 91 % 1028,7 hPa 0,0 l/m 8,2 km/h (2 Bft) W-SW 244 0 min 0,000 mm 0,0 UV-I 84 W/m -2,6 C -3,2 C 12,9 km/h (3 Bft) 96,00 %
09.01.2017 10:30 -1,2 C 91 % 1028,6 hPa 0,0 l/m 7,4 km/h (2 Bft) W-SW 250 0 min 0,000 mm 0,0 UV-I 84 W/m -2,5 C -2,3 C 11,3 km/h (2 Bft) 97,56 %
09.01.2017 10:32 -1,2 C 91 % 1028,6 hPa 0,0 l/m 6,4 km/h (2 Bft) W 259 0 min 0,000 mm 0,0 UV-I 84 W/m -2,5 C -1,2 C 9,7 km/h (2 Bft) 96,00 %
09.01.2017 10:34 -1,2 C 91 % 1028,5 hPa 0,0 l/m 7,1 km/h (2 Bft) W-SW 240 0 min 0,000 mm 0,0 UV-I 87 W/m -2,5 C -2,0 C 9,7 km/h (2 Bft) 97,56 %
09.01.2017 10:36 -1,2 C 91 % 1028,5 hPa 0,0 l/m 7,2 km/h (2 Bft) W 266 0 min 0,000 mm 0,0 UV-I 90 W/m -2,5 C -2,1 C 11,3 km/h (2 Bft) 96,49 %
09.01.2017 10:38 -1,2 C 91 % 1028,4 hPa 0,0 l/m 9,4 km/h (2 Bft) W-SW 250 0 min 0,000 mm 0,0 UV-I 90 W/m -2,5 C -4,2 C 14,5 km/h (3 Bft) 97,37 %
09.01.2017 10:40 -1,2 C 91 % 1028,5 hPa 0,0 l/m 7,4 km/h (2 Bft) W-SW 252 0 min 0,000 mm 0,0 UV-I 91 W/m -2,5 C -2,3 C 11,3 km/h (2 Bft) 98,00 %
09.01.2017 10:42 -1,2 C 91 % 1028,5 hPa 0,0 l/m 7,2 km/h (2 Bft) W-SW 253 0 min 0,000 mm 0,0 UV-I 94 W/m -2,5 C -2,1 C 11,3 km/h (2 Bft) 100,00 %
09.01.2017 10:44 -1,2 C 91 % 1028,5 hPa 0,0 l/m 5,9 km/h (2 Bft) SW 234 0 min 0,000 mm 0,0 UV-I 97 W/m -2,5 C -1,2 C 9,7 km/h (2 Bft) 97,56 %
09.01.2017 10:46 -1,1 C 91 % 1028,5 hPa 0,0 l/m 5,3 km/h (1 Bft) W-SW 244 0 min 0,000 mm 0,0 UV-I 98 W/m -2,4 C -1,1 C 9,7 km/h (2 Bft) 98,21 %
09.01.2017 10:48 -1,1 C 90 % 1028,5 hPa 0,0 l/m 8,4 km/h (2 Bft) W-SW 250 0 min 0,000 mm 0,0 UV-I 100 W/m -2,5 C -3,2 C 14,5 km/h (3 Bft) 100,00 %
09.01.2017 10:50 -1,1 C 90 % 1028,5 hPa 0,0 l/m 8,6 km/h (2 Bft) W-SW 252 0 min 0,000 mm 0,0 UV-I 102 W/m -2,5 C -3,4 C 12,9 km/h (3 Bft) 100,00 %
09.01.2017 10:52 -1,1 C 90 % 1028,5 hPa 0,0 l/m 8,1 km/h (2 Bft) W 275 0 min 0,000 mm 0,0 UV-I 100 W/m -2,5 C -2,9 C 12,9 km/h (3 Bft) 97,44 %
09.01.2017 10:54 -1,1 C 90 % 1028,6 hPa 0,0 l/m 6,3 km/h (2 Bft) W-SW 238 0 min 0,000 mm 0,0 UV-I 101 W/m -2,5 C -1,1 C 9,7 km/h (2 Bft) 100,00 %
09.01.2017 10:56 -1,1 C 90 % 1028,5 hPa 0,0 l/m 5,7 km/h (1 Bft) W-SW 256 0 min 0,000 mm 0,0 UV-I 99 W/m -2,5 C -1,1 C 6,4 km/h (2 Bft) 100,00 %
09.01.2017 10:58 -1,0 C 90 % 1028,6 hPa 0,0 l/m 5,0 km/h (1 Bft) W-SW 244 0 min 0,000 mm 0,0 UV-I 96 W/m -2,4 C -1,0 C 11,3 km/h (2 Bft) 100,00 %
09.01.2017 11:00 -1,0 C 90 % 1028,6 hPa 0,0 l/m 6,9 km/h (2 Bft) W-SW 245 0 min 0,026 mm 0,0 UV-I 93 W/m -2,4 C -1,5 C 11,3 km/h (2 Bft) 100,00 %
09.01.2017 11:02 -1,0 C 90 % 1028,6 hPa 0,0 l/m 5,6 km/h (1 Bft) W-SW 254 0 min 0,000 mm 0,0 UV-I 97 W/m -2,4 C -1,0 C 8,0 km/h (2 Bft) 100,00 %
09.01.2017 11:04 -0,9 C 90 % 1028,6 hPa 0,0 l/m 6,2 km/h (2 Bft) W-SW 253 0 min 0,000 mm 0,0 UV-I 98 W/m -2,3 C -0,9 C 11,3 km/h (2 Bft) 100,00 %
09.01.2017 11:06 -0,9 C 90 % 1028,5 hPa 0,0 l/m 8,3 km/h (2 Bft) W-SW 239 0 min 0,000 mm 0,0 UV-I 103 W/m -2,3 C -2,9 C 14,5 km/h (3 Bft) 100,00 %
09.01.2017 11:08 -0,9 C 89 % 1028,5 hPa 0,0 l/m 10,2 km/h (2 Bft) W 261 0 min 0,000 mm 0,0 UV-I 110 W/m -2,5 C -4,6 C 14,5 km/h (3 Bft) 97,56 %
09.01.2017 11:10 -0,9 C 89 % 1028,5 hPa 0,0 l/m 7,1 km/h (2 Bft) W 263 0 min 0,000 mm 0,0 UV-I 119 W/m -2,5 C -1,6 C 12,9 km/h (3 Bft) 100,00 %
09.01.2017 11:12 -0,9 C 89 % 1028,4 hPa 0,0 l/m 8,0 km/h (2 Bft) W-SW 254 0 min 0,000 mm 0,0 UV-I 129 W/m -2,5 C -2,6 C 12,9 km/h (3 Bft) 100,00 %
09.01.2017 11:14 -0,9 C 89 % 1028,3 hPa 0,0 l/m 10,2 km/h (2 Bft) W-SW 254 0 min 0,000 mm 0,0 UV-I 140 W/m -2,5 C -4,6 C 16,1 km/h (3 Bft) 100,00 %
09.01.2017 11:16 -0,8 C 89 % 1028,3 hPa 0,0 l/m 10,9 km/h (2 Bft) W 262 0 min 0,000 mm 0,0 UV-I 152 W/m -2,4 C -5,1 C 16,1 km/h (3 Bft) 100,00 %
09.01.2017 11:18 -0,8 C 89 % 1028,2 hPa 0,0 l/m 10,6 km/h (2 Bft) W-SW 254 0 min 0,000 mm 0,0 UV-I 161 W/m -2,4 C -4,8 C 12,9 km/h (3 Bft) 100,00 %
09.01.2017 11:20 -0,8 C 89 % 1028,2 hPa 0,0 l/m 10,6 km/h (2 Bft) W-SW 253 0 min 0,000 mm 0,0 UV-I 165 W/m -2,4 C -4,8 C 14,5 km/h (3 Bft) 98,39 %
09.01.2017 11:22 -0,8 C 89 % 1028,1 hPa 0,0 l/m 8,3 km/h (2 Bft) W-SW 250 0 min 0,000 mm 0,0 UV-I 166 W/m -2,4 C -2,8 C 12,9 km/h (3 Bft) 100,00 %
09.01.2017 11:24 -0,7 C 89 % 1028,0 hPa 0,0 l/m 12,9 km/h (3 Bft) W-SW 245 0 min 0,000 mm 0,0 UV-I 169 W/m -2,3 C -6,5 C 19,3 km/h (3 Bft) 100,00 %
09.01.2017 11:26 -0,7 C 89 % 1028,1 hPa 0,0 l/m 8,6 km/h (2 Bft) W-SW 238 0 min 0,000 mm 0,1 UV-I 171 W/m -2,3 C -3,0 C 17,7 km/h (3 Bft) 100,00 %
09.01.2017 11:28 -0,7 C 89 % 1028,0 hPa 0,0 l/m 5,6 km/h (1 Bft) W-SW 255 0 min 0,000 mm 0,5 UV-I 171 W/m -2,3 C -0,7 C 9,7 km/h (2 Bft) 100,00 %
09.01.2017 11:30 -0,7 C 89 % 1028,0 hPa 0,0 l/m 6,4 km/h (2 Bft) W 281 0 min 0,000 mm 0,5 UV-I 171 W/m -2,3 C -0,7 C 11,3 km/h (2 Bft) 100,00 %
09.01.2017 11:32 -0,7 C 89 % 1028,1 hPa 0,0 l/m 8,0 km/h (2 Bft) W-NW 288 0 min 0,000 mm 0,5 UV-I 171 W/m -2,3 C -2,4 C 12,9 km/h (3 Bft) 98,44 %
09.01.2017 11:34 -0,7 C 89 % 1028,0 hPa 0,0 l/m 8,8 km/h (2 Bft) W 270 0 min 0,000 mm 0,5 UV-I 168 W/m -2,3 C -3,2 C 17,7 km/h (3 Bft) 100,00 %
09.01.2017 11:36 -0,6 C 89 % 1028,1 hPa 0,0 l/m 5,3 km/h (1 Bft) W 261 0 min 0,000 mm 0,5 UV-I 167 W/m -2,2 C -0,6 C 11,3 km/h (2 Bft) 100,00 %
09.01.2017 11:38 -0,6 C 89 % 1028,0 hPa 0,0 l/m 6,5 km/h (2 Bft) W 262 0 min 0,000 mm 0,5 UV-I 169 W/m -2,2 C -0,7 C 14,5 km/h (3 Bft) 100,00 %
09.01.2017 11:40 -0,6 C 89 % 1028,0 hPa 0,0 l/m 11,4 km/h (2 Bft) W-SW 255 0 min 0,000 mm 0,5 UV-I 176 W/m -2,2 C -5,2 C 16,1 km/h (3 Bft) 100,00 %
09.01.2017 11:42 -0,6 C 89 % 1028,0 hPa 0,0 l/m 11,5 km/h (2 Bft) W-SW 258 0 min 0,000 mm 0,5 UV-I 179 W/m -2,2 C -5,3 C 16,1 km/h (3 Bft) 100,00 %
09.01.2017 11:44 -0,6 C 89 % 1027,9 hPa 0,0 l/m 10,2 km/h (2 Bft) W-SW 257 0 min 0,000 mm 0,5 UV-I 182 W/m -2,2 C -4,3 C 14,5 km/h (3 Bft) 100,00 %
09.01.2017 11:46 -0,6 C 89 % 1027,9 hPa 0,0 l/m 9,7 km/h (2 Bft) W-SW 252 0 min 0,000 mm 0,5 UV-I 183 W/m -2,2 C -3,9 C 14,5 km/h (3 Bft) 100,00 %
09.01.2017 11:48 -0,6 C 89 % 1027,9 hPa 0,0 l/m 6,5 km/h (2 Bft) W 268 0 min 0,000 mm 0,5 UV-I 184 W/m -2,2 C -0,7 C 12,9 km/h (3 Bft) 100,00 %
09.01.2017 11:50 -0,6 C 89 % 1027,9 hPa 0,0 l/m 7,1 km/h (2 Bft) W-SW 240 0 min 0,000 mm 0,5 UV-I 186 W/m -2,2 C -1,3 C 11,3 km/h (2 Bft) 100,00 %
09.01.2017 11:52 -0,6 C 89 % 1027,9 hPa 0,0 l/m 5,6 km/h (1 Bft) W-SW 255 0 min 0,000 mm 0,5 UV-I 186 W/m -2,2 C -0,6 C 11,3 km/h (2 Bft) 100,00 %
09.01.2017 11:54 -0,5 C 89 % 1027,9 hPa 0,0 l/m 6,1 km/h (2 Bft) W 279 0 min 0,000 mm 0,5 UV-I 184 W/m -2,1 C -0,5 C 11,3 km/h (2 Bft) 100,00 %
09.01.2017 11:56 -0,5 C 89 % 1027,9 hPa 0,0 l/m 7,0 km/h (2 Bft) W-NW 285 0 min 0,000 mm 0,5 UV-I 183 W/m -2,1 C -1,1 C 12,9 km/h (3 Bft) 100,00 %
09.01.2017 11:58 -0,5 C 89 % 1027,8 hPa 0,0 l/m 6,5 km/h (2 Bft) W 269 0 min 0,000 mm 0,5 UV-I 183 W/m -2,1 C -0,6 C 11,3 km/h (2 Bft) 100,00 %
09.01.2017 12:00 -0,5 C 89 % 1027,7 hPa 0,0 l/m 6,5 km/h (2 Bft) W-SW 258 0 min 0,000 mm 0,5 UV-I 183 W/m -2,1 C -0,6 C 12,9 km/h (3 Bft) 100,00 %
09.01.2017 12:02 -0,4 C 90 % 1027,6 hPa 0,0 l/m 5,5 km/h (1 Bft) W-SW 240 0 min 0,051 mm 0,5 UV-I 183 W/m -1,8 C -0,4 C 12,9 km/h (3 Bft) 100,00 %
09.01.2017 12:04 -0,4 C 89 % 1027,6 hPa 0,0 l/m 4,3 km/h (1 Bft) W 269 0 min 0,000 mm 0,5 UV-I 186 W/m -2,0 C -0,4 C 8,0 km/h (2 Bft) 98,00 %
09.01.2017 12:06 -0,4 C 89 % 1027,6 hPa 0,0 l/m 6,1 km/h (2 Bft) W-NW 289 0 min 0,000 mm 0,5 UV-I 185 W/m -2,0 C -0,4 C 11,3 km/h (2 Bft) 94,74 %
09.01.2017 12:08 -0,4 C 89 % 1027,6 hPa 0,0 l/m 5,3 km/h (1 Bft) W 263 0 min 0,000 mm 0,5 UV-I 181 W/m -2,0 C -0,4 C 9,7 km/h (2 Bft) 95,74 %
09.01.2017 12:10 -0,4 C 89 % 1027,6 hPa 0,0 l/m 5,4 km/h (1 Bft) W 259 0 min 0,000 mm 0,5 UV-I 177 W/m -2,0 C -0,4 C 9,7 km/h (2 Bft) 96,00 %
09.01.2017 12:12 -0,4 C 89 % 1027,6 hPa 0,0 l/m 5,2 km/h (1 Bft) W-SW 241 0 min 0,000 mm 0,5 UV-I 176 W/m -2,0 C -0,4 C 9,7 km/h (2 Bft) 95,74 %
09.01.2017 12:14 -0,4 C 89 % 1027,5 hPa 0,0 l/m 5,8 km/h (2 Bft) W-SW 253 0 min 0,000 mm 0,5 UV-I 178 W/m -2,0 C -0,4 C 6,4 km/h (2 Bft) 96,23 %
09.01.2017 12:16 -0,4 C 90 % 1027,4 hPa 0,0 l/m 5,8 km/h (2 Bft) W 269 0 min 0,000 mm 0,5 UV-I 180 W/m -1,8 C -0,4 C 9,7 km/h (2 Bft) 97,44 %
09.01.2017 12:18 -0,3 C 89 % 1027,4 hPa 0,0 l/m 6,7 km/h (2 Bft) W 270 0 min 0,000 mm 0,5 UV-I 183 W/m -1,9 C -0,6 C 9,7 km/h (2 Bft) 96,23 %
09.01.2017 12:20 -0,4 C 89 % 1027,3 hPa 0,0 l/m 7,8 km/h (2 Bft) W-SW 240 0 min 0,000 mm 0,5 UV-I 181 W/m -2,0 C -1,9 C 12,9 km/h (3 Bft) 97,87 %
09.01.2017 12:22 -0,3 C 89 % 1027,3 hPa 0,0 l/m 5,3 km/h (1 Bft) W-SW 244 0 min 0,000 mm 0,5 UV-I 180 W/m -1,9 C -0,3 C 8,0 km/h (2 Bft) 96,00 %
09.01.2017 12:24 -0,3 C 89 % 1027,3 hPa 0,0 l/m 7,7 km/h (2 Bft) W-NW 292 0 min 0,000 mm 0,5 UV-I 176 W/m -1,9 C -1,7 C 14,5 km/h (3 Bft) 94,29 %
09.01.2017 12:26 -0,3 C 89 % 1027,2 hPa 0,0 l/m 5,2 km/h (1 Bft) W-NW 289 0 min 0,000 mm 0,5 UV-I 173 W/m -1,9 C -0,3 C 8,0 km/h (2 Bft) 98,21 %
09.01.2017 12:28 -0,3 C 89 % 1027,2 hPa 0,0 l/m 5,5 km/h (1 Bft) W-SW 253 0 min 0,000 mm 0,5 UV-I 169 W/m -1,9 C -0,3 C 11,3 km/h (2 Bft) 97,87 %
09.01.2017 12:30 -0,3 C 89 % 1027,2 hPa 0,0 l/m 5,4 km/h (1 Bft) W-SW 245 0 min 0,000 mm 0,2 UV-I 155 W/m -1,9 C -0,3 C 8,0 km/h (2 Bft) 97,37 %
09.01.2017 12:32 -0,3 C 89 % 1027,2 hPa 0,0 l/m 4,7 km/h (1 Bft) SW 235 0 min 0,000 mm 0,4 UV-I 160 W/m -1,9 C -0,3 C 6,4 km/h (2 Bft) 98,11 %
09.01.2017 12:34 -0,3 C 89 % 1027,2 hPa 0,0 l/m 4,6 km/h (1 Bft) W 265 0 min 0,000 mm 0,5 UV-I 162 W/m -1,9 C -0,3 C 9,7 km/h (2 Bft) 97,87 %
09.01.2017 12:36 -0,3 C 89 % 1027,2 hPa 0,0 l/m 7,1 km/h (2 Bft) W-SW 248 0 min 0,000 mm 0,5 UV-I 156 W/m -1,9 C -1,0 C 12,9 km/h (3 Bft) 100,00 %
09.01.2017 12:38 -0,3 C 89 % 1027,1 hPa 0,0 l/m 6,4 km/h (2 Bft) W-SW 254 0 min 0,000 mm 0,5 UV-I 158 W/m -1,9 C -0,3 C 11,3 km/h (2 Bft) 100,00 %
09.01.2017 12:40 -0,3 C 89 % 1027,1 hPa 0,0 l/m 5,9 km/h (2 Bft) W-SW 250 0 min 0,000 mm 0,5 UV-I 161 W/m -1,9 C -0,3 C 8,0 km/h (2 Bft) 98,00 %
09.01.2017 12:42 -0,3 C 89 % 1027,0 hPa 0,0 l/m 5,9 km/h (2 Bft) W-SW 249 0 min 0,000 mm 0,5 UV-I 150 W/m -1,9 C -0,3 C 11,3 km/h (2 Bft) 98,00 %
09.01.2017 12:44 -0,3 C 89 % 1027,0 hPa 0,0 l/m 4,9 km/h (1 Bft) W-SW 250 0 min 0,000 mm 0,5 UV-I 142 W/m -1,9 C -0,3 C 8,0 km/h (2 Bft) 100,00 %
09.01.2017 12:46 -0,3 C 89 % 1027,0 hPa 0,0 l/m 4,2 km/h (1 Bft) W 263 0 min 0,000 mm 0,5 UV-I 142 W/m -1,9 C -0,3 C 8,0 km/h (2 Bft) 97,62 %
09.01.2017 12:48 -0,3 C 89 % 1027,0 hPa 0,0 l/m 6,2 km/h (2 Bft) W 260 0 min 0,000 mm 0,5 UV-I 142 W/m -1,9 C -0,3 C 9,7 km/h (2 Bft) 98,18 %
09.01.2017 12:50 -0,3 C 89 % 1027,0 hPa 0,0 l/m 3,5 km/h (1 Bft) W 279 0 min 0,000 mm 0,5 UV-I 145 W/m -1,9 C -0,3 C 9,7 km/h (2 Bft) 100,00 %
09.01.2017 12:52 -0,3 C 89 % 1027,0 hPa 0,0 l/m 6,0 km/h (2 Bft) W 269 0 min 0,000 mm 0,5 UV-I 159 W/m -1,9 C -0,3 C 9,7 km/h (2 Bft) 100,00 %
09.01.2017 12:54 -0,3 C 88 % 1027,0 hPa 0,0 l/m 5,8 km/h (2 Bft) W 273 0 min 0,000 mm 0,5 UV-I 181 W/m -2,0 C -0,3 C 12,9 km/h (3 Bft) 100,00 %
09.01.2017 12:56 -0,3 C 88 % 1027,0 hPa 0,0 l/m 8,4 km/h (2 Bft) W-SW 247 2 min 0,000 mm 0,5 UV-I 195 W/m -2,0 C -2,4 C 14,5 km/h (3 Bft) 100,00 %
09.01.2017 12:58 -0,3 C 88 % 1027,0 hPa 0,0 l/m 8,6 km/h (2 Bft) W 281 2 min 0,000 mm 0,5 UV-I 214 W/m -2,0 C -2,5 C 12,9 km/h (3 Bft) 100,00 %
09.01.2017 13:00 -0,2 C 88 % 1027,0 hPa 0,0 l/m 7,6 km/h (2 Bft) SW 236 2 min 0,050 mm 0,5 UV-I 215 W/m -1,9 C -1,5 C 11,3 km/h (2 Bft) 96,23 %
09.01.2017 13:02 -0,2 C 88 % 1027,0 hPa 0,0 l/m 6,7 km/h (2 Bft) W 266 0 min 0,000 mm 0,5 UV-I 174 W/m -1,9 C -0,5 C 9,7 km/h (2 Bft) 100,00 %
09.01.2017 13:04 -0,2 C 88 % 1026,9 hPa 0,0 l/m 5,4 km/h (1 Bft) W 261 0 min 0,000 mm 0,5 UV-I 155 W/m -1,9 C -0,2 C 9,7 km/h (2 Bft) 100,00 %
09.01.2017 13:06 -0,2 C 89 % 1026,9 hPa 0,0 l/m 4,2 km/h (1 Bft) W 277 0 min 0,000 mm 0,5 UV-I 142 W/m -1,8 C -0,2 C 6,4 km/h (2 Bft) 100,00 %
09.01.2017 13:08 -0,2 C 88 % 1027,0 hPa 0,0 l/m 3,1 km/h (1 Bft) W 271 0 min 0,000 mm 0,5 UV-I 153 W/m -1,9 C -0,2 C 4,8 km/h (1 Bft) 97,56 %
09.01.2017 13:10 -0,2 C 88 % 1027,0 hPa 0,0 l/m 4,4 km/h (1 Bft) W-SW 255 0 min 0,000 mm 0,5 UV-I 172 W/m -1,9 C -0,2 C 6,4 km/h (2 Bft) 100,00 %
09.01.2017 13:12 -0,2 C 88 % 1027,0 hPa 0,0 l/m 5,3 km/h (1 Bft) W-SW 252 2 min 0,000 mm 0,5 UV-I 184 W/m -1,9 C -0,2 C 9,7 km/h (2 Bft) 100,00 %
09.01.2017 13:14 -0,2 C 88 % 1026,9 hPa 0,0 l/m 3,2 km/h (1 Bft) W-SW 244 0 min 0,000 mm 0,5 UV-I 177 W/m -1,9 C -0,2 C 4,8 km/h (1 Bft) 100,00 %
09.01.2017 13:16 -0,2 C 88 % 1026,9 hPa 0,0 l/m 3,8 km/h (1 Bft) W 269 0 min 0,000 mm 0,5 UV-I 169 W/m -1,9 C -0,2 C 6,4 km/h (2 Bft) 100,00 %
09.01.2017 13:18 -0,1 C 88 % 1026,9 hPa 0,0 l/m 3,3 km/h (1 Bft) W 274 2 min 0,000 mm 0,5 UV-I 178 W/m -1,8 C -0,1 C 6,4 km/h (2 Bft) 100,00 %
09.01.2017 13:20 -0,1 C 88 % 1026,9 hPa 0,0 l/m 2,9 km/h (1 Bft) W 269 2 min 0,000 mm 0,5 UV-I 198 W/m -1,8 C -0,1 C 6,4 km/h (2 Bft) 98,11 %
09.01.2017 13:22 -0,1 C 88 % 1026,9 hPa 0,0 l/m 3,9 km/h (1 Bft) W 279 2 min 0,000 mm 0,4 UV-I 202 W/m -1,8 C -0,1 C 6,4 km/h (2 Bft) 97,56 %
09.01.2017 13:24 0,0 C 88 % 1026,9 hPa 0,0 l/m 4,1 km/h (1 Bft) W 275 2 min 0,000 mm 0,0 UV-I 198 W/m -1,7 C 0,0 C 6,4 km/h (2 Bft) 100,00 %
09.01.2017 13:26 0,0 C 87 % 1026,9 hPa 0,0 l/m 5,4 km/h (1 Bft) W 273 2 min 0,000 mm 0,4 UV-I 213 W/m -1,9 C 0,0 C 9,7 km/h (2 Bft) 100,00 %
09.01.2017 13:28 0,0 C 87 % 1026,9 hPa 0,0 l/m 5,5 km/h (1 Bft) W-SW 256 2 min 0,000 mm 0,2 UV-I 189 W/m -1,9 C 0,0 C 6,4 km/h (2 Bft) 100,00 %
09.01.2017 13:30 -0,1 C 87 % 1026,9 hPa 0,0 l/m 5,4 km/h (1 Bft) W 261 0 min 0,000 mm 0,0 UV-I 159 W/m -2,0 C -0,1 C 9,7 km/h (2 Bft) 100,00 %
09.01.2017 13:32 -0,1 C 88 % 1026,8 hPa 0,0 l/m 2,1 km/h (1 Bft) W 281 0 min 0,000 mm 0,0 UV-I 142 W/m -1,8 C -0,1 C 6,4 km/h (2 Bft) 100,00 %
09.01.2017 13:34 -0,1 C 88 % 1026,8 hPa 0,0 l/m 4,0 km/h (1 Bft) W-NW 283 0 min 0,000 mm 0,0 UV-I 128 W/m -1,8 C -0,1 C 4,8 km/h (1 Bft) 100,00 %
09.01.2017 13:36 -0,1 C 88 % 1026,9 hPa 0,0 l/m 4,7 km/h (1 Bft) W 263 0 min 0,000 mm 0,0 UV-I 121 W/m -1,8 C -0,1 C 6,4 km/h (2 Bft) 100,00 %
09.01.2017 13:38 -0,1 C 88 % 1026,8 hPa 0,0 l/m 2,0 km/h (1 Bft) W 263 0 min 0,000 mm 0,0 UV-I 115 W/m -1,8 C -0,1 C 4,8 km/h (1 Bft) 98,00 %
09.01.2017 13:40 -0,1 C 88 % 1026,7 hPa 0,0 l/m 0,8 km/h (0 Bft) W 264 0 min 0,000 mm 0,0 UV-I 109 W/m -1,8 C -0,1 C 1,6 km/h (1 Bft) 100,00 %
09.01.2017 13:42 -0,1 C 88 % 1026,7 hPa 0,0 l/m 1,2 km/h (1 Bft) W 269 0 min 0,000 mm 0,0 UV-I 105 W/m -1,8 C -0,1 C 4,8 km/h (1 Bft) 100,00 %
09.01.2017 13:44 -0,2 C 88 % 1026,7 hPa 0,0 l/m 3,0 km/h (1 Bft) W 281 0 min 0,000 mm 0,0 UV-I 101 W/m -1,9 C -0,2 C 6,4 km/h (2 Bft) 100,00 %
09.01.2017 13:46 -0,3 C 88 % 1026,6 hPa 0,0 l/m 5,0 km/h (1 Bft) W 261 0 min 0,000 mm 0,0 UV-I 99 W/m -2,0 C -0,3 C 12,9 km/h (3 Bft) 100,00 %
09.01.2017 13:48 -0,3 C 88 % 1026,6 hPa 0,0 l/m 3,5 km/h (1 Bft) W-NW 300 0 min 0,000 mm 0,0 UV-I 100 W/m -2,0 C -0,3 C 6,4 km/h (2 Bft) 100,00 %
09.01.2017 13:50 -0,3 C 88 % 1026,6 hPa 0,0 l/m 4,5 km/h (1 Bft) W-NW 301 0 min 0,000 mm 0,0 UV-I 95 W/m -2,0 C -0,3 C 9,7 km/h (2 Bft) 100,00 %
09.01.2017 13:52 -0,4 C 88 % 1026,6 hPa 0,0 l/m 3,1 km/h (1 Bft) W-NW 287 0 min 0,000 mm 0,0 UV-I 88 W/m -2,1 C -0,4 C 8,0 km/h (2 Bft) 100,00 %
09.01.2017 13:54 -0,4 C 88 % 1026,7 hPa 0,0 l/m 2,2 km/h (1 Bft) W 281 0 min 0,000 mm 0,0 UV-I 85 W/m -2,1 C -0,4 C 4,8 km/h (1 Bft) 100,00 %
09.01.2017 13:56 -0,4 C 88 % 1026,7 hPa 0,0 l/m 2,2 km/h (1 Bft) W-SW 249 0 min 0,000 mm 0,0 UV-I 84 W/m -2,1 C -0,4 C 9,7 km/h (2 Bft) 100,00 %
09.01.2017 13:58 -0,4 C 88 % 1026,7 hPa 0,0 l/m 0,1 km/h (0 Bft) W-SW 249 0 min 0,000 mm 0,0 UV-I 88 W/m -2,1 C -0,4 C 1,6 km/h (1 Bft) 100,00 %
09.01.2017 14:00 -0,4 C 88 % 1026,7 hPa 0,0 l/m 1,1 km/h (1 Bft) W-SW 250 0 min 0,051 mm 0,0 UV-I 96 W/m -2,1 C -0,4 C 4,8 km/h (1 Bft) 96,23 %
09.01.2017 14:02 -0,4 C 88 % 1026,6 hPa 0,0 l/m 0,4 km/h (0 Bft) W-SW 250 0 min 0,000 mm 0,0 UV-I 104 W/m -2,1 C -0,4 C 1,6 km/h (1 Bft) 100,00 %
09.01.2017 14:04 -0,4 C 89 % 1026,5 hPa 0,0 l/m 0,3 km/h (0 Bft) W-SW 250 0 min 0,000 mm 0,0 UV-I 108 W/m -2,0 C -0,4 C 1,6 km/h (1 Bft) 96,00 %
09.01.2017 14:06 -0,4 C 88 % 1026,5 hPa 0,0 l/m 2,1 km/h (1 Bft) W 277 0 min 0,000 mm 0,0 UV-I 105 W/m -2,1 C -0,4 C 4,8 km/h (1 Bft) 97,87 %
09.01.2017 14:08 -0,4 C 89 % 1026,5 hPa 0,0 l/m 3,5 km/h (1 Bft) W-NW 286 0 min 0,000 mm 0,0 UV-I 105 W/m -2,0 C -0,4 C 4,8 km/h (1 Bft) 98,11 %
09.01.2017 14:10 -0,4 C 88 % 1026,5 hPa 0,0 l/m 1,7 km/h (1 Bft) W-SW 256 0 min 0,000 mm 0,0 UV-I 106 W/m -2,1 C -0,4 C 6,4 km/h (2 Bft) 97,87 %
09.01.2017 14:12 -0,4 C 89 % 1026,5 hPa 0,0 l/m 2,3 km/h (1 Bft) W-SW 253 0 min 0,000 mm 0,0 UV-I 106 W/m -2,0 C -0,4 C 4,8 km/h (1 Bft) 97,67 %
09.01.2017 14:14 -0,4 C 89 % 1026,5 hPa 0,0 l/m 2,0 km/h (1 Bft) W 278 0 min 0,000 mm 0,0 UV-I 108 W/m -2,0 C -0,4 C 4,8 km/h (1 Bft) 97,44 %
09.01.2017 14:16 -0,4 C 88 % 1026,4 hPa 0,0 l/m 3,4 km/h (1 Bft) W-NW 284 0 min 0,000 mm 0,0 UV-I 109 W/m -2,1 C -0,4 C 6,4 km/h (2 Bft) 96,61 %
09.01.2017 14:18 -0,4 C 88 % 1026,4 hPa 0,0 l/m 5,5 km/h (1 Bft) SW 236 0 min 0,000 mm 0,0 UV-I 108 W/m -2,1 C -0,4 C 11,3 km/h (2 Bft) 94,74 %
09.01.2017 14:20 -0,4 C 88 % 1026,4 hPa 0,0 l/m 2,5 km/h (1 Bft) W-SW 241 0 min 0,000 mm 0,0 UV-I 103 W/m -2,1 C -0,4 C 4,8 km/h (1 Bft) 96,00 %
09.01.2017 14:22 -0,4 C 88 % 1026,4 hPa 0,0 l/m 2,6 km/h (1 Bft) W-SW 242 0 min 0,000 mm 0,0 UV-I 94 W/m -2,1 C -0,4 C 4,8 km/h (1 Bft) 96,00 %
09.01.2017 14:24 -0,4 C 88 % 1026,4 hPa 0,0 l/m 5,7 km/h (1 Bft) W 260 0 min 0,000 mm 0,0 UV-I 90 W/m -2,1 C -0,4 C 9,7 km/h (2 Bft) 98,00 %
09.01.2017 14:26 -0,4 C 88 % 1026,4 hPa 0,0 l/m 4,1 km/h (1 Bft) W 275 0 min 0,000 mm 0,0 UV-I 88 W/m -2,1 C -0,4 C 9,7 km/h (2 Bft) 94,74 %
09.01.2017 14:28 -0,4 C 88 % 1026,4 hPa 0,0 l/m 4,8 km/h (1 Bft) W-SW 253 0 min 0,000 mm 0,0 UV-I 86 W/m -2,1 C -0,4 C 6,4 km/h (2 Bft) 96,23 %
09.01.2017 14:30 -0,4 C 88 % 1026,3 hPa 0,0 l/m 2,7 km/h (1 Bft) W-SW 253 0 min 0,000 mm 0,0 UV-I 86 W/m -2,1 C -0,4 C 4,8 km/h (1 Bft) 97,92 %
09.01.2017 14:32 -0,4 C 88 % 1026,3 hPa 0,0 l/m 2,2 km/h (1 Bft) W-SW 253 0 min 0,000 mm 0,0 UV-I 85 W/m -2,1 C -0,4 C 6,4 km/h (2 Bft) 98,00 %
09.01.2017 14:34 -0,4 C 88 % 1026,3 hPa 0,0 l/m 2,7 km/h (1 Bft) W-SW 253 0 min 0,000 mm 0,0 UV-I 81 W/m -2,1 C -0,4 C 4,8 km/h (1 Bft) 100,00 %
09.01.2017 14:36 -0,5 C 88 % 1026,3 hPa 0,0 l/m 3,1 km/h (1 Bft) W 261 0 min 0,000 mm 0,0 UV-I 79 W/m -2,2 C -0,5 C 6,4 km/h (2 Bft) 96,23 %
09.01.2017 14:38 -0,5 C 88 % 1026,2 hPa 0,0 l/m 7,4 km/h (2 Bft) W-SW 239 0 min 0,000 mm 0,0 UV-I 80 W/m -2,2 C -1,6 C 12,9 km/h (3 Bft) 100,00 %
09.01.2017 14:40 -0,5 C 88 % 1026,2 hPa 0,0 l/m 4,3 km/h (1 Bft) W 268 0 min 0,000 mm 0,0 UV-I 79 W/m -2,2 C -0,5 C 9,7 km/h (2 Bft) 98,00 %
09.01.2017 14:42 -0,5 C 88 % 1026,2 hPa 0,0 l/m 2,9 km/h (1 Bft) W 268 0 min 0,000 mm 0,0 UV-I 84 W/m -2,2 C -0,5 C 4,8 km/h (1 Bft) 100,00 %
09.01.2017 14:44 -0,5 C 89 % 1026,2 hPa 0,0 l/m 3,6 km/h (1 Bft) W-NW 291 0 min 0,000 mm 0,0 UV-I 90 W/m -2,1 C -0,5 C 8,0 km/h (2 Bft) 100,00 %
09.01.2017 14:46 -0,5 C 89 % 1026,2 hPa 0,0 l/m 3,6 km/h (1 Bft) W 269 0 min 0,000 mm 0,0 UV-I 91 W/m -2,1 C -0,5 C 6,4 km/h (2 Bft) 97,87 %
09.01.2017 14:48 -0,5 C 89 % 1026,2 hPa 0,0 l/m 5,4 km/h (1 Bft) W 279 0 min 0,000 mm 0,0 UV-I 89 W/m -2,1 C -0,5 C 12,9 km/h (3 Bft) 97,87 %
09.01.2017 14:50 -0,6 C 88 % 1026,1 hPa 0,0 l/m 5,2 km/h (1 Bft) W-SW 240 0 min 0,000 mm 0,0 UV-I 84 W/m -2,3 C -0,6 C 12,9 km/h (3 Bft) 100,00 %
09.01.2017 14:52 -0,6 C 88 % 1026,1 hPa 0,0 l/m 3,9 km/h (1 Bft) W 264 0 min 0,000 mm 0,0 UV-I 81 W/m -2,3 C -0,6 C 9,7 km/h (2 Bft) 100,00 %
09.01.2017 14:54 -0,6 C 88 % 1026,1 hPa 0,0 l/m 5,6 km/h (1 Bft) W 281 0 min 0,000 mm 0,0 UV-I 77 W/m -2,3 C -0,6 C 11,3 km/h (2 Bft) 100,00 %
09.01.2017 14:56 -0,6 C 88 % 1026,1 hPa 0,0 l/m 3,5 km/h (1 Bft) W 266 0 min 0,000 mm 0,0 UV-I 75 W/m -2,3 C -0,6 C 8,0 km/h (2 Bft) 98,21 %
09.01.2017 14:58 -0,7 C 88 % 1026,0 hPa 0,0 l/m 3,3 km/h (1 Bft) W 261 0 min 0,000 mm 0,0 UV-I 72 W/m -2,4 C -0,7 C 4,8 km/h (1 Bft) 100,00 %
09.01.2017 15:00 -0,7 C 88 % 1025,9 hPa 0,0 l/m 4,3 km/h (1 Bft) W 275 0 min 0,000 mm 0,0 UV-I 72 W/m -2,4 C -0,7 C 9,7 km/h (2 Bft) 98,04 %
09.01.2017 15:02 -0,7 C 89 % 1025,9 hPa 0,0 l/m 3,0 km/h (1 Bft) W 275 0 min 0,026 mm 0,0 UV-I 72 W/m -2,3 C -0,7 C 4,8 km/h (1 Bft) 100,00 %
09.01.2017 15:04 -0,7 C 89 % 1025,9 hPa 0,0 l/m 4,3 km/h (1 Bft) W-NW 300 0 min 0,000 mm 0,0 UV-I 70 W/m -2,3 C -0,7 C 6,4 km/h (2 Bft) 100,00 %
09.01.2017 15:06 -0,7 C 89 % 1025,9 hPa 0,0 l/m 3,8 km/h (1 Bft) W 277 0 min 0,000 mm 0,0 UV-I 68 W/m -2,3 C -0,7 C 6,4 km/h (2 Bft) 100,00 %
09.01.2017 15:08 -0,7 C 89 % 1025,8 hPa 0,0 l/m 5,6 km/h (1 Bft) W 265 0 min 0,000 mm 0,0 UV-I 66 W/m -2,3 C -0,7 C 11,3 km/h (2 Bft) 100,00 %
09.01.2017 15:10 -0,7 C 89 % 1025,8 hPa 0,0 l/m 5,3 km/h (1 Bft) W 265 0 min 0,000 mm 0,0 UV-I 65 W/m -2,3 C -0,7 C 9,7 km/h (2 Bft) 100,00 %
09.01.2017 15:12 -0,7 C 89 % 1025,7 hPa 0,0 l/m 4,6 km/h (1 Bft) W 277 0 min 0,000 mm 0,0 UV-I 65 W/m -2,3 C -0,7 C 6,4 km/h (2 Bft) 100,00 %
09.01.2017 15:14 -0,7 C 89 % 1025,7 hPa 0,0 l/m 4,6 km/h (1 Bft) W 269 0 min 0,000 mm 0,0 UV-I 65 W/m -2,3 C -0,7 C 9,7 km/h (2 Bft) 100,00 %
09.01.2017 15:16 -0,7 C 89 % 1025,7 hPa 0,0 l/m 3,7 km/h (1 Bft) W 261 0 min 0,000 mm 0,0 UV-I 63 W/m -2,3 C -0,7 C 6,4 km/h (2 Bft) 100,00 %
09.01.2017 15:18 -0,7 C 89 % 1025,7 hPa 0,0 l/m 3,9 km/h (1 Bft) W 261 0 min 0,000 mm 0,0 UV-I 59 W/m -2,3 C -0,7 C 6,4 km/h (2 Bft) 98,00 %
09.01.2017 15:20 -0,7 C 89 % 1025,6 hPa 0,0 l/m 5,2 km/h (1 Bft) W 259 0 min 0,000 mm 0,0 UV-I 54 W/m -2,3 C -0,7 C 11,3 km/h (2 Bft) 100,00 %
09.01.2017 15:22 -0,7 C 89 % 1025,7 hPa 0,0 l/m 3,0 km/h (1 Bft) W 259 0 min 0,000 mm 0,0 UV-I 52 W/m -2,3 C -0,7 C 4,8 km/h (1 Bft) 100,00 %
09.01.2017 15:24 -0,7 C 89 % 1025,6 hPa 0,0 l/m 2,2 km/h (1 Bft) W 275 0 min 0,000 mm 0,0 UV-I 50 W/m -2,3 C -0,7 C 4,8 km/h (1 Bft) 100,00 %
09.01.2017 15:26 -0,8 C 89 % 1025,6 hPa 0,0 l/m 1,7 km/h (1 Bft) W 275 0 min 0,000 mm 0,0 UV-I 48 W/m -2,4 C -0,8 C 4,8 km/h (1 Bft) 100,00 %
09.01.2017 15:28 -0,8 C 89 % 1025,6 hPa 0,0 l/m 2,3 km/h (1 Bft) W 275 0 min 0,000 mm 0,0 UV-I 47 W/m -2,4 C -0,8 C 3,2 km/h (1 Bft) 100,00 %
09.01.2017 15:30 -0,8 C 89 % 1025,7 hPa 0,0 l/m 1,8 km/h (1 Bft) W 275 0 min 0,000 mm 0,0 UV-I 47 W/m -2,4 C -0,8 C 3,2 km/h (1 Bft) 100,00 %
09.01.2017 15:32 -0,8 C 89 % 1025,6 hPa 0,0 l/m 3,6 km/h (1 Bft) W 279 0 min 0,000 mm 0,0 UV-I 46 W/m -2,4 C -0,8 C 9,7 km/h (2 Bft) 97,87 %
09.01.2017 15:34 -0,8 C 89 % 1025,6 hPa 0,0 l/m 3,4 km/h (1 Bft) W 271 0 min 0,000 mm 0,0 UV-I 43 W/m -2,4 C -0,8 C 6,4 km/h (2 Bft) 100,00 %
09.01.2017 15:36 -0,8 C 89 % 1025,6 hPa 0,0 l/m 7,1 km/h (2 Bft) W 259 0 min 0,000 mm 0,0 UV-I 41 W/m -2,4 C -1,5 C 11,3 km/h (2 Bft) 100,00 %
09.01.2017 15:38 -0,8 C 89 % 1025,6 hPa 0,0 l/m 3,2 km/h (1 Bft) W 259 0 min 0,000 mm 0,0 UV-I 38 W/m -2,4 C -0,8 C 4,8 km/h (1 Bft) 100,00 %
09.01.2017 15:40 -0,8 C 89 % 1025,6 hPa 0,0 l/m 5,0 km/h (1 Bft) W-SW 247 0 min 0,000 mm 0,0 UV-I 34 W/m -2,4 C -0,8 C 12,9 km/h (3 Bft) 100,00 %
09.01.2017 15:42 -0,8 C 89 % 1025,7 hPa 0,0 l/m 4,9 km/h (1 Bft) W 271 0 min 0,000 mm 0,0 UV-I 32 W/m -2,4 C -0,8 C 11,3 km/h (2 Bft) 100,00 %
09.01.2017 15:44 -0,9 C 89 % 1025,7 hPa 0,0 l/m 4,3 km/h (1 Bft) W 278 0 min 0,000 mm 0,0 UV-I 30 W/m -2,5 C -0,9 C 9,7 km/h (2 Bft) 100,00 %
09.01.2017 15:46 -0,9 C 89 % 1025,7 hPa 0,0 l/m 4,6 km/h (1 Bft) W-NW 285 0 min 0,000 mm 0,0 UV-I 28 W/m -2,5 C -0,9 C 9,7 km/h (2 Bft) 100,00 %
09.01.2017 15:48 -0,9 C 89 % 1025,7 hPa 0,0 l/m 2,4 km/h (1 Bft) W-NW 292 0 min 0,000 mm 0,0 UV-I 26 W/m -2,5 C -0,9 C 4,8 km/h (1 Bft) 100,00 %
09.01.2017 15:50 -0,9 C 89 % 1025,7 hPa 0,0 l/m 2,2 km/h (1 Bft) W-NW 292 0 min 0,000 mm 0,0 UV-I 25 W/m -2,5 C -0,9 C 4,8 km/h (1 Bft) 100,00 %
09.01.2017 15:52 -1,0 C 89 % 1025,7 hPa 0,0 l/m 2,7 km/h (1 Bft) W-NW 292 0 min 0,000 mm 0,0 UV-I 24 W/m -2,6 C -1,0 C 4,8 km/h (1 Bft) 100,00 %
09.01.2017 15:54 -1,1 C 90 % 1025,7 hPa 0,0 l/m 2,3 km/h (1 Bft) W-NW 292 0 min 0,000 mm 0,0 UV-I 23 W/m -2,5 C -1,1 C 4,8 km/h (1 Bft) 100,00 %
09.01.2017 15:56 -1,1 C 90 % 1025,7 hPa 0,0 l/m 4,1 km/h (1 Bft) W-SW 258 0 min 0,000 mm 0,0 UV-I 21 W/m -2,5 C -1,1 C 6,4 km/h (2 Bft) 100,00 %
09.01.2017 15:58 -1,1 C 90 % 1025,7 hPa 0,0 l/m 3,6 km/h (1 Bft) W 274 0 min 0,000 mm 0,0 UV-I 21 W/m -2,5 C -1,1 C 6,4 km/h (2 Bft) 97,37 %
09.01.2017 16:00 -1,1 C 90 % 1025,6 hPa 0,0 l/m 2,2 km/h (1 Bft) W 270 0 min 0,000 mm 0,0 UV-I 21 W/m -2,5 C -1,1 C 3,2 km/h (1 Bft) 98,46 %
09.01.2017 16:02 -1,1 C 90 % 1025,6 hPa 0,0 l/m 3,3 km/h (1 Bft) W-NW 288 0 min 0,025 mm 0,0 UV-I 19 W/m -2,5 C -1,1 C 4,8 km/h (1 Bft) 95,74 %
09.01.2017 16:04 -1,1 C 90 % 1025,7 hPa 0,0 l/m 3,2 km/h (1 Bft) W 277 0 min 0,000 mm 0,0 UV-I 18 W/m -2,5 C -1,1 C 6,4 km/h (2 Bft) 95,74 %
09.01.2017 16:06 -1,1 C 90 % 1025,6 hPa 0,0 l/m 3,3 km/h (1 Bft) W 270 0 min 0,000 mm 0,0 UV-I 18 W/m -2,5 C -1,1 C 4,8 km/h (1 Bft) 96,00 %
09.01.2017 16:08 -1,1 C 90 % 1025,6 hPa 0,0 l/m 3,5 km/h (1 Bft) W 275 0 min 0,000 mm 0,0 UV-I 16 W/m -2,5 C -1,1 C 4,8 km/h (1 Bft) 97,56 %
09.01.2017 16:10 -1,1 C 90 % 1025,6 hPa 0,0 l/m 4,9 km/h (1 Bft) W-NW 282 0 min 0,000 mm 0,0 UV-I 16 W/m -2,5 C -1,1 C 9,7 km/h (2 Bft) 98,00 %
09.01.2017 16:12 -1,2 C 90 % 1025,6 hPa 0,0 l/m 4,1 km/h (1 Bft) W-NW 285 0 min 0,000 mm 0,0 UV-I 14 W/m -2,6 C -1,2 C 6,4 km/h (2 Bft) 97,62 %
09.01.2017 16:14 -1,2 C 90 % 1025,6 hPa 0,0 l/m 3,1 km/h (1 Bft) W 269 0 min 0,000 mm 0,0 UV-I 13 W/m -2,6 C -1,2 C 4,8 km/h (1 Bft) 94,74 %
09.01.2017 16:16 -1,2 C 90 % 1025,6 hPa 0,0 l/m 1,1 km/h (1 Bft) W 269 2 min 0,000 mm 0,0 UV-I 12 W/m -2,6 C -1,2 C 3,2 km/h (1 Bft) 98,00 %
09.01.2017 16:18 -1,2 C 90 % 1025,6 hPa 0,0 l/m 1,0 km/h (0 Bft) W 269 0 min 0,000 mm 0,0 UV-I 11 W/m -2,6 C -1,2 C 3,2 km/h (1 Bft) 96,23 %
09.01.2017 16:20 -1,2 C 90 % 1025,6 hPa 0,0 l/m 2,3 km/h (1 Bft) W 269 0 min 0,000 mm 0,0 UV-I 11 W/m -2,6 C -1,2 C 4,8 km/h (1 Bft) 97,87 %
09.01.2017 16:22 -1,2 C 89 % 1025,6 hPa 0,0 l/m 3,4 km/h (1 Bft) W 273 0 min 0,000 mm 0,0 UV-I 11 W/m -2,8 C -1,2 C 4,8 km/h (1 Bft) 94,34 %
09.01.2017 16:24 -1,2 C 90 % 1025,6 hPa 0,0 l/m 2,3 km/h (1 Bft) W 273 0 min 0,000 mm 0,0 UV-I 11 W/m -2,6 C -1,2 C 3,2 km/h (1 Bft) 94,74 %
09.01.2017 16:26 -1,2 C 89 % 1025,6 hPa 0,0 l/m 2,7 km/h (1 Bft) W 278 0 min 0,000 mm 0,0 UV-I 11 W/m -2,8 C -1,2 C 4,8 km/h (1 Bft) 97,37 %
09.01.2017 16:28 -1,2 C 90 % 1025,6 hPa 0,0 l/m 3,8 km/h (1 Bft) W 273 0 min 0,000 mm 0,0 UV-I 11 W/m -2,6 C -1,2 C 6,4 km/h (2 Bft) 94,92 %
09.01.2017 16:30 -1,2 C 90 % 1025,5 hPa 0,0 l/m 3,6 km/h (1 Bft) W 275 0 min 0,000 mm 0,0 UV-I 10 W/m -2,6 C -1,2 C 6,4 km/h (2 Bft) 98,00 %
09.01.2017 16:32 -1,2 C 90 % 1025,5 hPa 0,0 l/m 3,5 km/h (1 Bft) W 275 0 min 0,000 mm 0,0 UV-I 9 W/m -2,6 C -1,2 C 4,8 km/h (1 Bft) 98,00 %
09.01.2017 16:34 -1,2 C 90 % 1025,5 hPa 0,0 l/m 3,8 km/h (1 Bft) W 275 0 min 0,000 mm 0,0 UV-I 7 W/m -2,6 C -1,2 C 4,8 km/h (1 Bft) 95,74 %
09.01.2017 16:36 -1,2 C 90 % 1025,6 hPa 0,0 l/m 3,1 km/h (1 Bft) W 277 0 min 0,000 mm 0,0 UV-I 7 W/m -2,6 C -1,2 C 4,8 km/h (1 Bft) 97,56 %
09.01.2017 16:38 -1,3 C 90 % 1025,6 hPa 0,0 l/m 2,7 km/h (1 Bft) W 277 0 min 0,000 mm 0,0 UV-I 5 W/m -2,7 C -1,3 C 3,2 km/h (1 Bft) 100,00 %
09.01.2017 16:40 -1,3 C 90 % 1025,5 hPa 0,0 l/m 3,7 km/h (1 Bft) W 272 0 min 0,000 mm 0,0 UV-I 5 W/m -2,7 C -1,3 C 4,8 km/h (1 Bft) 98,00 %
09.01.2017 16:42 -1,3 C 90 % 1025,5 hPa 0,0 l/m 3,2 km/h (1 Bft) W-SW 254 0 min 0,000 mm 0,0 UV-I 1 W/m -2,7 C -1,3 C 4,8 km/h (1 Bft) 97,37 %
09.01.2017 16:44 -1,3 C 90 % 1025,5 hPa 0,0 l/m 3,9 km/h (1 Bft) W-SW 253 0 min 0,000 mm 0,0 UV-I 0 W/m -2,7 C -1,3 C 4,8 km/h (1 Bft) 100,00 %
09.01.2017 16:46 -1,3 C 90 % 1025,4 hPa 0,0 l/m 2,7 km/h (1 Bft) W-SW 255 0 min 0,000 mm 0,0 UV-I 0 W/m -2,7 C -1,3 C 4,8 km/h (1 Bft) 97,87 %
09.01.2017 16:48 -1,4 C 90 % 1025,5 hPa 0,0 l/m 3,6 km/h (1 Bft) W-SW 255 0 min 0,000 mm 0,0 UV-I 0 W/m -2,8 C -1,4 C 4,8 km/h (1 Bft) 100,00 %
09.01.2017 16:50 -1,4 C 90 % 1025,4 hPa 0,0 l/m 3,2 km/h (1 Bft) W-SW 255 0 min 0,000 mm 0,0 UV-I 0 W/m -2,8 C -1,4 C 4,8 km/h (1 Bft) 100,00 %
09.01.2017 16:52 -1,4 C 90 % 1025,5 hPa 0,0 l/m 2,8 km/h (1 Bft) W-SW 255 0 min 0,000 mm 0,0 UV-I 0 W/m -2,8 C -1,4 C 4,8 km/h (1 Bft) 100,00 %
09.01.2017 16:54 -1,4 C 90 % 1025,4 hPa 0,0 l/m 3,0 km/h (1 Bft) W-SW 255 0 min 0,000 mm 0,0 UV-I 0 W/m -2,8 C -1,4 C 4,8 km/h (1 Bft) 100,00 %
09.01.2017 16:56 -1,4 C 90 % 1025,5 hPa 0,0 l/m 2,8 km/h (1 Bft) W 269 0 min 0,000 mm 0,0 UV-I 0 W/m -2,8 C -1,4 C 4,8 km/h (1 Bft) 97,44 %
09.01.2017 16:58 -1,4 C 90 % 1025,4 hPa 0,0 l/m 3,0 km/h (1 Bft) W 269 0 min 0,000 mm 0,0 UV-I 0 W/m -2,8 C -1,4 C 4,8 km/h (1 Bft) 100,00 %
09.01.2017 17:00 -1,4 C 91 % 1025,3 hPa 0,0 l/m 3,6 km/h (1 Bft) W 269 0 min 0,000 mm 0,0 UV-I 0 W/m -2,7 C -1,4 C 6,4 km/h (2 Bft) 100,00 %
09.01.2017 17:02 -1,4 C 90 % 1025,3 hPa 0,0 l/m 2,5 km/h (1 Bft) W 269 0 min 0,000 mm 0,0 UV-I 0 W/m -2,8 C -1,4 C 3,2 km/h (1 Bft) 98,00 %
09.01.2017 17:04 -1,4 C 90 % 1025,3 hPa 0,0 l/m 3,3 km/h (1 Bft) W 269 0 min 0,000 mm 0,0 UV-I 0 W/m -2,8 C -1,4 C 4,8 km/h (1 Bft) 97,37 %
09.01.2017 17:06 -1,4 C 90 % 1025,3 hPa 0,0 l/m 3,4 km/h (1 Bft) W-SW 252 0 min 0,000 mm 0,0 UV-I 0 W/m -2,8 C -1,4 C 6,4 km/h (2 Bft) 100,00 %
09.01.2017 17:08 -1,4 C 91 % 1025,3 hPa 0,0 l/m 2,9 km/h (1 Bft) W-SW 252 0 min 0,000 mm 0,0 UV-I 0 W/m -2,7 C -1,4 C 6,4 km/h (2 Bft) 100,00 %
09.01.2017 17:10 -1,4 C 90 % 1025,3 hPa 0,0 l/m 0,9 km/h (0 Bft) W-SW 252 0 min 0,000 mm 0,0 UV-I 0 W/m -2,8 C -1,4 C 3,2 km/h (1 Bft) 97,56 %
09.01.2017 17:12 -1,4 C 90 % 1025,3 hPa 0,0 l/m 0,6 km/h (0 Bft) W-SW 252 0 min 0,000 mm 0,0 UV-I 0 W/m -2,8 C -1,4 C 1,6 km/h (1 Bft) 100,00 %
09.01.2017 17:14 -1,4 C 90 % 1025,3 hPa 0,0 l/m 0,0 km/h (0 Bft) W-SW 252 0 min 0,000 mm 0,0 UV-I 0 W/m -2,8 C -1,4 C 0,0 km/h (0 Bft) 100,00 %
09.01.2017 17:16 -1,4 C 90 % 1025,2 hPa 0,0 l/m 1,4 km/h (1 Bft) W-SW 252 0 min 0,000 mm 0,0 UV-I 0 W/m -2,8 C -1,4 C 3,2 km/h (1 Bft) 95,74 %
09.01.2017 17:18 -1,4 C 90 % 1025,2 hPa 0,0 l/m 2,0 km/h (1 Bft) W-SW 252 0 min 0,000 mm 0,0 UV-I 0 W/m -2,8 C -1,4 C 3,2 km/h (1 Bft) 100,00 %
09.01.2017 17:20 -1,4 C 90 % 1025,1 hPa 0,0 l/m 1,8 km/h (1 Bft) W-SW 252 0 min 0,000 mm 0,0 UV-I 0 W/m -2,8 C -1,4 C 3,2 km/h (1 Bft) 100,00 %
09.01.2017 17:22 -1,4 C 90 % 1025,1 hPa 0,0 l/m 3,5 km/h (1 Bft) W-SW 252 0 min 0,000 mm 0,0 UV-I 0 W/m -2,8 C -1,4 C 4,8 km/h (1 Bft) 97,87 %
09.01.2017 17:24 -1,4 C 90 % 1025,1 hPa 0,0 l/m 3,1 km/h (1 Bft) W-SW 252 0 min 0,000 mm 0,0 UV-I 0 W/m -2,8 C -1,4 C 4,8 km/h (1 Bft) 100,00 %
09.01.2017 17:26 -1,5 C 90 % 1025,1 hPa 0,0 l/m 3,0 km/h (1 Bft) W-SW 252 0 min 0,000 mm 0,0 UV-I 0 W/m -2,9 C -1,5 C 4,8 km/h (1 Bft) 100,00 %
09.01.2017 17:28 -1,4 C 90 % 1025,1 hPa 0,0 l/m 0,8 km/h (0 Bft) W-SW 252 0 min 0,000 mm 0,0 UV-I 0 W/m -2,8 C -1,4 C 3,2 km/h (1 Bft) 98,00 %
09.01.2017 17:30 -1,4 C 90 % 1025,1 hPa 0,0 l/m 0,1 km/h (0 Bft) W-SW 252 0 min 0,000 mm 0,0 UV-I 0 W/m -2,8 C -1,4 C 1,6 km/h (1 Bft) 97,44 %
09.01.2017 17:32 -1,5 C 90 % 1025,1 hPa 0,0 l/m 0,6 km/h (0 Bft) W-SW 252 0 min 0,000 mm 0,0 UV-I 0 W/m -2,9 C -1,5 C 1,6 km/h (1 Bft) 100,00 %
09.01.2017 17:34 -1,6 C 90 % 1025,0 hPa 0,0 l/m 0,0 km/h (0 Bft) W-SW 252 0 min 0,000 mm 0,0 UV-I 0 W/m -3,0 C -1,6 C 1,6 km/h (1 Bft) 100,00 %
09.01.2017 17:36 -1,7 C 90 % 1025,0 hPa 0,0 l/m 0,0 km/h (0 Bft) W-SW 252 0 min 0,000 mm 0,0 UV-I 0 W/m -3,1 C -1,7 C 0,0 km/h (0 Bft) 100,00 %
09.01.2017 17:38 -1,7 C 91 % 1025,0 hPa 0,0 l/m 0,3 km/h (0 Bft) W-SW 252 0 min 0,000 mm 0,0 UV-I 0 W/m -3,0 C -1,7 C 1,6 km/h (1 Bft) 100,00 %
09.01.2017 17:40 -1,7 C 91 % 1025,0 hPa 0,0 l/m 0,8 km/h (0 Bft) W-SW 252 0 min 0,000 mm 0,0 UV-I 0 W/m -3,0 C -1,7 C 1,6 km/h (1 Bft) 100,00 %
09.01.2017 17:42 -1,7 C 91 % 1025,0 hPa 0,0 l/m 0,1 km/h (0 Bft) W-SW 252 0 min 0,000 mm 0,0 UV-I 0 W/m -3,0 C -1,7 C 1,6 km/h (1 Bft) 100,00 %
09.01.2017 17:44 -1,7 C 91 % 1025,0 hPa 0,0 l/m 0,0 km/h (0 Bft) W-SW 252 0 min 0,000 mm 0,0 UV-I 0 W/m -3,0 C -1,7 C 0,0 km/h (0 Bft) 100,00 %
09.01.2017 17:46 -1,7 C 91 % 1025,0 hPa 0,0 l/m 0,0 km/h (0 Bft) W-SW 252 0 min 0,000 mm 0,0 UV-I 0 W/m -3,0 C -1,7 C 0,0 km/h (0 Bft) 100,00 %
09.01.2017 17:48 -1,8 C 91 % 1025,0 hPa 0,0 l/m 0,3 km/h (0 Bft) W-SW 252 0 min 0,000 mm 0,0 UV-I 0 W/m -3,1 C -1,8 C 1,6 km/h (1 Bft) 100,00 %
09.01.2017 17:50 -1,8 C 91 % 1025,1 hPa 0,0 l/m 2,0 km/h (1 Bft) W-SW 252 0 min 0,000 mm 0,0 UV-I 0 W/m -3,1 C -1,8 C 3,2 km/h (1 Bft) 97,14 %
09.01.2017 17:52 -1,8 C 92 % 1025,0 hPa 0,0 l/m 2,1 km/h (1 Bft) W-SW 252 0 min 0,000 mm 0,0 UV-I 0 W/m -2,9 C -1,8 C 3,2 km/h (1 Bft) 98,11 %
09.01.2017 17:54 -1,8 C 92 % 1024,9 hPa 0,0 l/m 0,0 km/h (0 Bft) W-SW 252 0 min 0,000 mm 0,0 UV-I 0 W/m -2,9 C -1,8 C 1,6 km/h (1 Bft) 100,00 %
09.01.2017 17:56 -1,8 C 92 % 1024,9 hPa 0,0 l/m 0,0 km/h (0 Bft) W-SW 252 0 min 0,000 mm 0,0 UV-I 0 W/m -2,9 C -1,8 C 0,0 km/h (0 Bft) 100,00 %
09.01.2017 17:58 -1,9 C 92 % 1024,9 hPa 0,0 l/m 0,0 km/h (0 Bft) W-SW 252 0 min 0,000 mm 0,0 UV-I 0 W/m -3,0 C -1,9 C 0,0 km/h (0 Bft) 97,87 %
09.01.2017 18:00 -1,9 C 92 % 1024,9 hPa 0,0 l/m 0,0 km/h (0 Bft) W-SW 252 0 min 0,000 mm 0,0 UV-I 0 W/m -3,0 C -1,9 C 0,0 km/h (0 Bft) 100,00 %
09.01.2017 18:02 -1,9 C 92 % 1024,9 hPa 0,0 l/m 0,0 km/h (0 Bft) W-SW 252 0 min 0,000 mm 0,0 UV-I 0 W/m -3,0 C -1,9 C 0,0 km/h (0 Bft) 97,87 %
09.01.2017 18:04 -1,9 C 92 % 1024,9 hPa 0,0 l/m 0,0 km/h (0 Bft) W-SW 252 0 min 0,000 mm 0,0 UV-I 0 W/m -3,0 C -1,9 C 0,0 km/h (0 Bft) 97,87 %
09.01.2017 18:06 -1,9 C 93 % 1024,9 hPa 0,0 l/m 0,1 km/h (0 Bft) W-SW 252 0 min 0,000 mm 0,0 UV-I 0 W/m -2,9 C -1,9 C 1,6 km/h (1 Bft) 96,00 %
09.01.2017 18:08 -2,0 C 93 % 1024,8 hPa 0,0 l/m 1,4 km/h (1 Bft) W-SW 252 0 min 0,000 mm 0,0 UV-I 0 W/m -3,0 C -2,0 C 1,6 km/h (1 Bft) 98,00 %
09.01.2017 18:10 -2,1 C 93 % 1024,8 hPa 0,0 l/m 1,8 km/h (1 Bft) W-SW 252 0 min 0,000 mm 0,0 UV-I 0 W/m -3,1 C -2,1 C 3,2 km/h (1 Bft) 97,73 %
09.01.2017 18:12 -2,0 C 93 % 1024,8 hPa 0,0 l/m 2,0 km/h (1 Bft) W-SW 252 0 min 0,000 mm 0,0 UV-I 0 W/m -3,0 C -2,0 C 3,2 km/h (1 Bft) 98,00 %
09.01.2017 18:14 -2,0 C 93 % 1024,9 hPa 0,0 l/m 1,0 km/h (0 Bft) W-SW 252 0 min 0,000 mm 0,0 UV-I 0 W/m -3,0 C -2,0 C 1,6 km/h (1 Bft) 97,44 %
09.01.2017 18:16 -2,0 C 93 % 1024,8 hPa 0,0 l/m 0,5 km/h (0 Bft) W-SW 252 0 min 0,000 mm 0,0 UV-I 0 W/m -3,0 C -2,0 C 1,6 km/h (1 Bft) 96,00 %
09.01.2017 18:18 -2,0 C 93 % 1024,8 hPa 0,0 l/m 0,0 km/h (0 Bft) W-SW 252 0 min 0,000 mm 0,0 UV-I 0 W/m -3,0 C -2,0 C 1,6 km/h (1 Bft) 96,00 %
09.01.2017 18:20 -1,9 C 93 % 1024,8 hPa 0,0 l/m 0,0 km/h (0 Bft) W-SW 252 0 min 0,000 mm 0,0 UV-I 0 W/m -2,9 C -1,9 C 0,0 km/h (0 Bft) 95,74 %
09.01.2017 18:22 -2,0 C 93 % 1024,8 hPa 0,0 l/m 0,0 km/h (0 Bft) W-SW 252 0 min 0,000 mm 0,0 UV-I 0 W/m -3,0 C -2,0 C 0,0 km/h (0 Bft) 100,00 %
09.01.2017 18:24 -2,1 C 93 % 1024,8 hPa 0,0 l/m 0,0 km/h (0 Bft) W-SW 252 0 min 0,000 mm 0,0 UV-I 0 W/m -3,1 C -2,1 C 0,0 km/h (0 Bft) 96,00 %
09.01.2017 18:26 -2,1 C 93 % 1024,8 hPa 0,0 l/m 0,0 km/h (0 Bft) W-SW 252 0 min 0,000 mm 0,0 UV-I 0 W/m -3,1 C -2,1 C 0,0 km/h (0 Bft) 95,92 %
09.01.2017 18:28 -2,1 C 93 % 1024,7 hPa 0,0 l/m 0,0 km/h (0 Bft) W-SW 252 0 min 0,000 mm 0,0 UV-I 0 W/m -3,1 C -2,1 C 1,6 km/h (1 Bft) 98,00 %
09.01.2017 18:30 -2,1 C 93 % 1024,7 hPa 0,0 l/m 0,1 km/h (0 Bft) W-SW 252 0 min 0,000 mm 0,0 UV-I 0 W/m -3,1 C -2,1 C 1,6 km/h (1 Bft) 97,87 %
09.01.2017 18:32 -2,1 C 93 % 1024,7 hPa 0,0 l/m 0,1 km/h (0 Bft) W-SW 252 0 min 0,000 mm 0,0 UV-I 0 W/m -3,1 C -2,1 C 1,6 km/h (1 Bft) 94,29 %
09.01.2017 18:34 -2,1 C 93 % 1024,7 hPa 0,0 l/m 0,0 km/h (0 Bft) W-SW 252 0 min 0,000 mm 0,0 UV-I 0 W/m -3,1 C -2,1 C 1,6 km/h (1 Bft) 98,11 %
09.01.2017 18:36 -2,1 C 93 % 1024,6 hPa 0,0 l/m 0,0 km/h (0 Bft) W-SW 252 0 min 0,000 mm 0,0 UV-I 0 W/m -3,1 C -2,1 C 0,0 km/h (0 Bft) 98,00 %
09.01.2017 18:38 -2,1 C 93 % 1024,6 hPa 0,0 l/m 0,0 km/h (0 Bft) W-SW 252 0 min 0,000 mm 0,0 UV-I 0 W/m -3,1 C -2,1 C 0,0 km/h (0 Bft) 95,74 %
09.01.2017 18:40 -2,1 C 93 % 1024,5 hPa 0,0 l/m 0,1 km/h (0 Bft) W-SW 252 0 min 0,000 mm 0,0 UV-I 0 W/m -3,1 C -2,1 C 1,6 km/h (1 Bft) 100,00 %
09.01.2017 18:42 -2,1 C 93 % 1024,5 hPa 0,0 l/m 1,2 km/h (1 Bft) W-SW 252 0 min 0,000 mm 0,0 UV-I 0 W/m -3,1 C -2,1 C 3,2 km/h (1 Bft) 100,00 %
09.01.2017 18:44 -2,1 C 93 % 1024,5 hPa 0,0 l/m 1,7 km/h (1 Bft) W-SW 252 0 min 0,000 mm 0,0 UV-I 0 W/m -3,1 C -2,1 C 3,2 km/h (1 Bft) 97,87 %
09.01.2017 18:46 -2,1 C 93 % 1024,5 hPa 0,0 l/m 2,0 km/h (1 Bft) W-SW 252 0 min 0,000 mm 0,0 UV-I 0 W/m -3,1 C -2,1 C 3,2 km/h (1 Bft) 100,00 %
09.01.2017 18:48 -2,1 C 93 % 1024,4 hPa 0,0 l/m 1,4 km/h (1 Bft) W-SW 252 0 min 0,000 mm 0,0 UV-I 0 W/m -3,1 C -2,1 C 1,6 km/h (1 Bft) 98,00 %
09.01.2017 18:50 -2,2 C 93 % 1024,5 hPa 0,0 l/m 0,2 km/h (0 Bft) W-SW 252 0 min 0,000 mm 0,0 UV-I 0 W/m -3,2 C -2,2 C 1,6 km/h (1 Bft) 100,00 %
09.01.2017 18:52 -2,2 C 93 % 1024,5 hPa 0,0 l/m 0,0 km/h (0 Bft) W-SW 252 0 min 0,000 mm 0,0 UV-I 0 W/m -3,2 C -2,2 C 0,0 km/h (0 Bft) 98,44 %
09.01.2017 18:54 -2,2 C 94 % 1024,4 hPa 0,0 l/m 0,6 km/h (0 Bft) W-SW 252 0 min 0,000 mm 0,0 UV-I 0 W/m -3,0 C -2,2 C 1,6 km/h (1 Bft) 100,00 %
09.01.2017 18:56 -2,2 C 94 % 1024,4 hPa 0,0 l/m 1,7 km/h (1 Bft) W-SW 252 0 min 0,000 mm 0,0 UV-I 0 W/m -3,0 C -2,2 C 3,2 km/h (1 Bft) 100,00 %
09.01.2017 18:58 -2,2 C 94 % 1024,3 hPa 0,0 l/m 1,9 km/h (1 Bft) W-SW 252 0 min 0,000 mm 0,0 UV-I 0 W/m -3,0 C -2,2 C 3,2 km/h (1 Bft) 100,00 %
09.01.2017 19:00 -2,2 C 94 % 1024,3 hPa 0,0 l/m 0,9 km/h (0 Bft) W-SW 252 0 min 0,000 mm 0,0 UV-I 0 W/m -3,0 C -2,2 C 3,2 km/h (1 Bft) 97,87 %
09.01.2017 19:02 -2,3 C 94 % 1024,3 hPa 0,0 l/m 0,0 km/h (0 Bft) W-SW 252 0 min 0,000 mm 0,0 UV-I 0 W/m -3,1 C -2,3 C 0,0 km/h (0 Bft) 97,87 %
09.01.2017 19:04 -2,3 C 94 % 1024,3 hPa 0,0 l/m 0,0 km/h (0 Bft) W-SW 252 0 min 0,000 mm 0,0 UV-I 0 W/m -3,1 C -2,3 C 0,0 km/h (0 Bft) 100,00 %
09.01.2017 19:06 -2,3 C 94 % 1024,2 hPa 0,0 l/m 0,0 km/h (0 Bft) W-SW 252 0 min 0,000 mm 0,0 UV-I 0 W/m -3,1 C -2,3 C 0,0 km/h (0 Bft) 100,00 %
09.01.2017 19:08 -2,2 C 94 % 1024,2 hPa 0,0 l/m 0,0 km/h (0 Bft) W-SW 252 0 min 0,000 mm 0,0 UV-I 0 W/m -3,0 C -2,2 C 1,6 km/h (1 Bft) 100,00 %
09.01.2017 19:10 -2,2 C 94 % 1024,3 hPa 0,0 l/m 0,0 km/h (0 Bft) W-SW 252 0 min 0,000 mm 0,0 UV-I 0 W/m -3,0 C -2,2 C 0,0 km/h (0 Bft) 100,00 %
09.01.2017 19:12 -2,2 C 94 % 1024,2 hPa 0,0 l/m 0,0 km/h (0 Bft) W-SW 252 0 min 0,000 mm 0,0 UV-I 0 W/m -3,0 C -2,2 C 0,0 km/h (0 Bft) 97,87 %
09.01.2017 19:14 -2,2 C 94 % 1024,1 hPa 0,0 l/m 1,3 km/h (1 Bft) W-SW 252 0 min 0,000 mm 0,0 UV-I 0 W/m -3,0 C -2,2 C 3,2 km/h (1 Bft) 100,00 %
09.01.2017 19:16 -2,2 C 94 % 1024,1 hPa 0,0 l/m 2,3 km/h (1 Bft) W-SW 252 0 min 0,000 mm 0,0 UV-I 0 W/m -3,0 C -2,2 C 3,2 km/h (1 Bft) 100,00 %
09.01.2017 19:18 -2,2 C 94 % 1024,1 hPa 0,0 l/m 2,4 km/h (1 Bft) W-SW 252 0 min 0,000 mm 0,0 UV-I 0 W/m -3,0 C -2,2 C 3,2 km/h (1 Bft) 100,00 %
09.01.2017 19:20 -2,2 C 94 % 1024,1 hPa 0,0 l/m 1,0 km/h (0 Bft) W-SW 252 0 min 0,000 mm 0,0 UV-I 0 W/m -3,0 C -2,2 C 3,2 km/h (1 Bft) 100,00 %
09.01.2017 19:22 -2,2 C 94 % 1024,2 hPa 0,0 l/m 1,8 km/h (1 Bft) W-SW 252 0 min 0,000 mm 0,0 UV-I 0 W/m -3,0 C -2,2 C 3,2 km/h (1 Bft) 98,00 %
09.01.2017 19:24 -2,2 C 94 % 1024,2 hPa 0,0 l/m 3,1 km/h (1 Bft) W-SW 252 0 min 0,000 mm 0,0 UV-I 0 W/m -3,0 C -2,2 C 4,8 km/h (1 Bft) 100,00 %
09.01.2017 19:26 -2,2 C 94 % 1024,1 hPa 0,0 l/m 3,0 km/h (1 Bft) W-SW 252 0 min 0,000 mm 0,0 UV-I 0 W/m -3,0 C -2,2 C 4,8 km/h (1 Bft) 98,21 %
09.01.2017 19:28 -2,3 C 94 % 1024,1 hPa 0,0 l/m 3,4 km/h (1 Bft) W-SW 252 0 min 0,000 mm 0,0 UV-I 0 W/m -3,1 C -2,3 C 4,8 km/h (1 Bft) 100,00 %
09.01.2017 19:30 -2,3 C 94 % 1024,1 hPa 0,0 l/m 1,5 km/h (1 Bft) W-SW 252 0 min 0,000 mm 0,0 UV-I 0 W/m -3,1 C -2,3 C 3,2 km/h (1 Bft) 98,11 %
09.01.2017 19:32 -2,3 C 94 % 1024,1 hPa 0,0 l/m 1,2 km/h (1 Bft) W-SW 252 0 min 0,000 mm 0,0 UV-I 0 W/m -3,1 C -2,3 C 3,2 km/h (1 Bft) 100,00 %
09.01.2017 19:34 -2,4 C 94 % 1024,1 hPa 0,0 l/m 0,6 km/h (0 Bft) W-SW 252 0 min 0,000 mm 0,0 UV-I 0 W/m -3,2 C -2,4 C 3,2 km/h (1 Bft) 100,00 %
09.01.2017 19:36 -2,4 C 94 % 1024,0 hPa 0,0 l/m 0,4 km/h (0 Bft) W-SW 252 0 min 0,000 mm 0,0 UV-I 0 W/m -3,2 C -2,4 C 1,6 km/h (1 Bft) 100,00 %
09.01.2017 19:38 -2,4 C 94 % 1024,0 hPa 0,0 l/m 0,1 km/h (0 Bft) W-SW 252 0 min 0,000 mm 0,0 UV-I 0 W/m -3,2 C -2,4 C 1,6 km/h (1 Bft) 100,00 %
09.01.2017 19:40 -2,4 C 94 % 1024,0 hPa 0,0 l/m 0,0 km/h (0 Bft) W-SW 252 0 min 0,000 mm 0,0 UV-I 0 W/m -3,2 C -2,4 C 0,0 km/h (0 Bft) 100,00 %
09.01.2017 19:42 -2,4 C 94 % 1024,0 hPa 0,0 l/m 1,3 km/h (1 Bft) W-SW 252 0 min 0,000 mm 0,0 UV-I 0 W/m -3,2 C -2,4 C 3,2 km/h (1 Bft) 100,00 %
09.01.2017 19:44 -2,4 C 94 % 1023,9 hPa 0,0 l/m 2,3 km/h (1 Bft) W-SW 252 0 min 0,000 mm 0,0 UV-I 0 W/m -3,2 C -2,4 C 4,8 km/h (1 Bft) 98,46 %
09.01.2017 19:46 -2,3 C 94 % 1023,9 hPa 0,0 l/m 2,6 km/h (1 Bft) W-SW 252 0 min 0,000 mm 0,0 UV-I 0 W/m -3,1 C -2,3 C 3,2 km/h (1 Bft) 98,21 %
09.01.2017 19:48 -2,3 C 94 % 1023,9 hPa 0,0 l/m 1,5 km/h (1 Bft) W-SW 252 0 min 0,000 mm 0,0 UV-I 0 W/m -3,1 C -2,3 C 3,2 km/h (1 Bft) 100,00 %
09.01.2017 19:50 -2,3 C 94 % 1023,8 hPa 0,0 l/m 1,6 km/h (1 Bft) W-SW 252 0 min 0,000 mm 0,0 UV-I 0 W/m -3,1 C -2,3 C 3,2 km/h (1 Bft) 100,00 %
09.01.2017 19:52 -2,3 C 94 % 1023,8 hPa 0,0 l/m 2,1 km/h (1 Bft) W-SW 252 0 min 0,000 mm 0,0 UV-I 0 W/m -3,1 C -2,3 C 3,2 km/h (1 Bft) 100,00 %
09.01.2017 19:54 -2,3 C 94 % 1023,7 hPa 0,0 l/m 2,6 km/h (1 Bft) W-SW 252 0 min 0,000 mm 0,0 UV-I 0 W/m -3,1 C -2,3 C 3,2 km/h (1 Bft) 100,00 %
09.01.2017 19:56 -2,3 C 94 % 1023,8 hPa 0,0 l/m 2,6 km/h (1 Bft) W-SW 252 0 min 0,000 mm 0,0 UV-I 0 W/m -3,1 C -2,3 C 3,2 km/h (1 Bft) 100,00 %
09.01.2017 19:58 -2,3 C 94 % 1023,7 hPa 0,0 l/m 1,6 km/h (1 Bft) W-SW 252 0 min 0,000 mm 0,0 UV-I 0 W/m -3,1 C -2,3 C 3,2 km/h (1 Bft) 97,87 %
09.01.2017 20:00 -2,4 C 94 % 1023,7 hPa 0,0 l/m 0,1 km/h (0 Bft) W-SW 252 0 min 0,000 mm 0,0 UV-I 0 W/m -3,2 C -2,4 C 1,6 km/h (1 Bft) 100,00 %
09.01.2017 20:02 -2,3 C 94 % 1023,7 hPa 0,0 l/m 0,2 km/h (0 Bft) W-SW 252 0 min 0,000 mm 0,0 UV-I 0 W/m -3,1 C -2,3 C 1,6 km/h (1 Bft) 100,00 %
09.01.2017 20:04 -2,4 C 94 % 1023,7 hPa 0,0 l/m 0,8 km/h (0 Bft) W-SW 252 0 min 0,000 mm 0,0 UV-I 0 W/m -3,2 C -2,4 C 1,6 km/h (1 Bft) 100,00 %
09.01.2017 20:06 -2,4 C 93 % 1023,6 hPa 0,0 l/m 1,8 km/h (1 Bft) W-SW 252 0 min 0,000 mm 0,0 UV-I 0 W/m -3,4 C -2,4 C 3,2 km/h (1 Bft) 100,00 %
09.01.2017 20:08 -2,4 C 93 % 1023,6 hPa 0,0 l/m 2,1 km/h (1 Bft) W-SW 252 0 min 0,000 mm 0,0 UV-I 0 W/m -3,4 C -2,4 C 3,2 km/h (1 Bft) 100,00 %
09.01.2017 20:10 -2,4 C 93 % 1023,6 hPa 0,0 l/m 1,5 km/h (1 Bft) W-SW 252 0 min 0,000 mm 0,0 UV-I 0 W/m -3,4 C -2,4 C 3,2 km/h (1 Bft) 100,00 %
09.01.2017 20:12 -2,4 C 93 % 1023,6 hPa 0,0 l/m 0,3 km/h (0 Bft) W-SW 252 0 min 0,000 mm 0,0 UV-I 0 W/m -3,4 C -2,4 C 1,6 km/h (1 Bft) 100,00 %
09.01.2017 20:14 -2,4 C 93 % 1023,6 hPa 0,0 l/m 0,2 km/h (0 Bft) W-SW 252 0 min 0,000 mm 0,0 UV-I 0 W/m -3,4 C -2,4 C 1,6 km/h (1 Bft) 98,08 %
09.01.2017 20:16 -2,4 C 93 % 1023,6 hPa 0,0 l/m 0,3 km/h (0 Bft) W-SW 252 0 min 0,000 mm 0,0 UV-I 0 W/m -3,4 C -2,4 C 1,6 km/h (1 Bft) 97,87 %
09.01.2017 20:18 -2,5 C 93 % 1023,6 hPa 0,0 l/m 1,5 km/h (1 Bft) W-SW 252 0 min 0,000 mm 0,0 UV-I 0 W/m -3,5 C -2,5 C 3,2 km/h (1 Bft) 95,24 %
09.01.2017 20:20 -2,5 C 93 % 1023,6 hPa 0,0 l/m 2,8 km/h (1 Bft) W-SW 252 0 min 0,000 mm 0,0 UV-I 0 W/m -3,5 C -2,5 C 4,8 km/h (1 Bft) 97,87 %
09.01.2017 20:22 -2,4 C 94 % 1023,5 hPa 0,0 l/m 1,1 km/h (1 Bft) W-SW 252 0 min 0,000 mm 0,0 UV-I 0 W/m -3,2 C -2,4 C 1,6 km/h (1 Bft) 96,00 %
09.01.2017 20:24 -2,4 C 94 % 1023,5 hPa 0,0 l/m 0,9 km/h (0 Bft) W-SW 252 0 min 0,000 mm 0,0 UV-I 0 W/m -3,2 C -2,4 C 3,2 km/h (1 Bft) 100,00 %
09.01.2017 20:26 -2,4 C 94 % 1023,5 hPa 0,0 l/m 0,8 km/h (0 Bft) W-SW 252 0 min 0,000 mm 0,0 UV-I 0 W/m -3,2 C -2,4 C 1,6 km/h (1 Bft) 96,00 %
09.01.2017 20:28 -2,4 C 94 % 1023,5 hPa 0,0 l/m 2,0 km/h (1 Bft) W-SW 252 0 min 0,000 mm 0,0 UV-I 0 W/m -3,2 C -2,4 C 4,8 km/h (1 Bft) 97,87 %
09.01.2017 20:30 -2,4 C 93 % 1023,4 hPa 0,0 l/m 3,1 km/h (1 Bft) W-SW 252 0 min 0,000 mm 0,0 UV-I 0 W/m -3,4 C -2,4 C 3,2 km/h (1 Bft) 97,87 %
09.01.2017 20:32 -2,4 C 93 % 1023,4 hPa 0,0 l/m 2,0 km/h (1 Bft) W-SW 252 0 min 0,000 mm 0,0 UV-I 0 W/m -3,4 C -2,4 C 3,2 km/h (1 Bft) 98,11 %
09.01.2017 20:34 -2,4 C 93 % 1023,4 hPa 0,0 l/m 0,4 km/h (0 Bft) W-SW 252 0 min 0,000 mm 0,0 UV-I 0 W/m -3,4 C -2,4 C 3,2 km/h (1 Bft) 97,37 %
09.01.2017 20:36 -2,4 C 93 % 1023,4 hPa 0,0 l/m 0,5 km/h (0 Bft) W-SW 252 0 min 0,000 mm 0,0 UV-I 0 W/m -3,4 C -2,4 C 1,6 km/h (1 Bft) 98,11 %
09.01.2017 20:38 -2,4 C 93 % 1023,4 hPa 0,0 l/m 1,3 km/h (1 Bft) W-SW 252 0 min 0,000 mm 0,0 UV-I 0 W/m -3,4 C -2,4 C 3,2 km/h (1 Bft) 96,30 %
09.01.2017 20:40 -2,5 C 93 % 1023,4 hPa 0,0 l/m 1,9 km/h (1 Bft) W-SW 252 0 min 0,000 mm 0,0 UV-I 0 W/m -3,5 C -2,5 C 3,2 km/h (1 Bft) 98,44 %
09.01.2017 20:42 -2,6 C 93 % 1023,4 hPa 0,0 l/m 1,9 km/h (1 Bft) W-SW 252 0 min 0,000 mm 0,0 UV-I 0 W/m -3,6 C -2,6 C 3,2 km/h (1 Bft) 94,00 %
09.01.2017 20:44 -2,6 C 94 % 1023,4 hPa 0,0 l/m 1,8 km/h (1 Bft) W-SW 252 0 min 0,000 mm 0,0 UV-I 0 W/m -3,4 C -2,6 C 3,2 km/h (1 Bft) 97,87 %
09.01.2017 20:46 -2,6 C 94 % 1023,4 hPa 0,0 l/m 2,2 km/h (1 Bft) W-SW 252 0 min 0,000 mm 0,0 UV-I 0 W/m -3,4 C -2,6 C 3,2 km/h (1 Bft) 98,00 %
09.01.2017 20:48 -2,5 C 94 % 1023,4 hPa 0,0 l/m 1,8 km/h (1 Bft) W-SW 252 0 min 0,000 mm 0,0 UV-I 0 W/m -3,3 C -2,5 C 3,2 km/h (1 Bft) 97,73 %
09.01.2017 20:50 -2,5 C 94 % 1023,4 hPa 0,0 l/m 0,1 km/h (0 Bft) W-SW 252 0 min 0,000 mm 0,0 UV-I 0 W/m -3,3 C -2,5 C 1,6 km/h (1 Bft) 100,00 %
09.01.2017 20:52 -2,5 C 94 % 1023,4 hPa 0,0 l/m 0,2 km/h (0 Bft) W-SW 252 0 min 0,000 mm 0,0 UV-I 0 W/m -3,3 C -2,5 C 1,6 km/h (1 Bft) 100,00 %
09.01.2017 20:54 -2,4 C 94 % 1023,4 hPa 0,0 l/m 0,2 km/h (0 Bft) W-SW 252 0 min 0,000 mm 0,0 UV-I 0 W/m -3,2 C -2,4 C 1,6 km/h (1 Bft) 95,74 %
09.01.2017 20:56 -2,4 C 94 % 1023,4 hPa 0,0 l/m 1,8 km/h (1 Bft) W-SW 252 0 min 0,000 mm 0,0 UV-I 0 W/m -3,2 C -2,4 C 3,2 km/h (1 Bft) 100,00 %
09.01.2017 20:58 -2,4 C 94 % 1023,4 hPa 0,0 l/m 1,5 km/h (1 Bft) W-SW 252 0 min 0,000 mm 0,0 UV-I 0 W/m -3,2 C -2,4 C 1,6 km/h (1 Bft) 100,00 %
09.01.2017 21:00 -2,4 C 94 % 1023,4 hPa 0,0 l/m 1,5 km/h (1 Bft) W-SW 252 0 min 0,000 mm 0,0 UV-I 0 W/m -3,2 C -2,4 C 3,2 km/h (1 Bft) 100,00 %
09.01.2017 21:02 -2,4 C 94 % 1023,3 hPa 0,0 l/m 1,7 km/h (1 Bft) W-SW 252 0 min 0,000 mm 0,0 UV-I 0 W/m -3,2 C -2,4 C 3,2 km/h (1 Bft) 98,21 %
09.01.2017 21:04 -2,4 C 94 % 1023,3 hPa 0,0 l/m 1,5 km/h (1 Bft) W-SW 252 0 min 0,000 mm 0,0 UV-I 0 W/m -3,2 C -2,4 C 3,2 km/h (1 Bft) 97,87 %
09.01.2017 21:06 -2,4 C 94 % 1023,4 hPa 0,0 l/m 0,5 km/h (0 Bft) W-SW 252 0 min 0,000 mm 0,0 UV-I 0 W/m -3,2 C -2,4 C 1,6 km/h (1 Bft) 100,00 %
09.01.2017 21:08 -2,3 C 94 % 1023,4 hPa 0,0 l/m 0,0 km/h (0 Bft) W-SW 252 0 min 0,000 mm 0,0 UV-I 0 W/m -3,1 C -2,3 C 0,0 km/h (0 Bft) 100,00 %
09.01.2017 21:10 -2,3 C 94 % 1023,4 hPa 0,0 l/m 0,0 km/h (0 Bft) W-SW 252 0 min 0,000 mm 0,0 UV-I 0 W/m -3,1 C -2,3 C 0,0 km/h (0 Bft) 100,00 %
09.01.2017 21:12 -2,4 C 94 % 1023,3 hPa 0,0 l/m 1,2 km/h (1 Bft) W-SW 252 0 min 0,000 mm 0,0 UV-I 0 W/m -3,2 C -2,4 C 1,6 km/h (1 Bft) 98,00 %
09.01.2017 21:14 -2,4 C 94 % 1023,3 hPa 0,0 l/m 1,7 km/h (1 Bft) W-SW 252 0 min 0,000 mm 0,0 UV-I 0 W/m -3,2 C -2,4 C 3,2 km/h (1 Bft) 100,00 %
09.01.2017 21:16 -2,4 C 94 % 1023,2 hPa 0,0 l/m 2,3 km/h (1 Bft) W-SW 252 0 min 0,000 mm 0,0 UV-I 0 W/m -3,2 C -2,4 C 3,2 km/h (1 Bft) 100,00 %
09.01.2017 21:18 -2,4 C 94 % 1023,2 hPa 0,0 l/m 2,0 km/h (1 Bft) W-SW 252 0 min 0,000 mm 0,0 UV-I 0 W/m -3,2 C -2,4 C 3,2 km/h (1 Bft) 100,00 %
09.01.2017 21:20 -2,5 C 94 % 1023,2 hPa 0,0 l/m 2,1 km/h (1 Bft) W-SW 252 0 min 0,000 mm 0,0 UV-I 0 W/m -3,3 C -2,5 C 3,2 km/h (1 Bft) 98,11 %
09.01.2017 21:22 -2,6 C 94 % 1023,2 hPa 0,0 l/m 2,3 km/h (1 Bft) W-SW 252 0 min 0,000 mm 0,0 UV-I 0 W/m -3,4 C -2,6 C 3,2 km/h (1 Bft) 100,00 %
09.01.2017 21:24 -2,5 C 94 % 1023,2 hPa 0,0 l/m 2,0 km/h (1 Bft) W-SW 252 0 min 0,000 mm 0,0 UV-I 0 W/m -3,3 C -2,5 C 3,2 km/h (1 Bft) 100,00 %
09.01.2017 21:26 -2,5 C 95 % 1023,1 hPa 0,0 l/m 1,0 km/h (0 Bft) W-SW 252 0 min 0,000 mm 0,0 UV-I 0 W/m -3,2 C -2,5 C 1,6 km/h (1 Bft) 100,00 %
09.01.2017 21:28 -2,5 C 95 % 1023,1 hPa 0,0 l/m 1,4 km/h (1 Bft) W-SW 252 0 min 0,000 mm 0,0 UV-I 0 W/m -3,2 C -2,5 C 1,6 km/h (1 Bft) 100,00 %
09.01.2017 21:30 -2,4 C 95 % 1023,1 hPa 0,0 l/m 0,8 km/h (0 Bft) W-SW 252 0 min 0,000 mm 0,0 UV-I 0 W/m -3,1 C -2,4 C 1,6 km/h (1 Bft) 100,00 %
09.01.2017 21:32 -2,5 C 95 % 1023,1 hPa 0,0 l/m 0,0 km/h (0 Bft) W-SW 252 0 min 0,000 mm 0,0 UV-I 0 W/m -3,2 C -2,5 C 1,6 km/h (1 Bft) 97,87 %
09.01.2017 21:34 -2,5 C 95 % 1023,0 hPa 0,0 l/m 0,0 km/h (0 Bft) W-SW 252 0 min 0,000 mm 0,0 UV-I 0 W/m -3,2 C -2,5 C 0,0 km/h (0 Bft) 100,00 %
09.01.2017 21:36 -2,5 C 95 % 1023,0 hPa 0,0 l/m 0,9 km/h (0 Bft) W-SW 252 0 min 0,000 mm 0,0 UV-I 0 W/m -3,2 C -2,5 C 1,6 km/h (1 Bft) 100,00 %
09.01.2017 21:38 -2,6 C 95 % 1023,0 hPa 0,0 l/m 0,1 km/h (0 Bft) W-SW 252 0 min 0,000 mm 0,0 UV-I 0 W/m -3,3 C -2,6 C 1,6 km/h (1 Bft) 100,00 %
09.01.2017 21:40 -2,6 C 95 % 1023,0 hPa 0,0 l/m 0,2 km/h (0 Bft) W-SW 252 0 min 0,000 mm 0,0 UV-I 0 W/m -3,3 C -2,6 C 1,6 km/h (1 Bft) 100,00 %
09.01.2017 21:42 -2,6 C 95 % 1023,0 hPa 0,0 l/m 2,4 km/h (1 Bft) W-SW 252 0 min 0,000 mm 0,0 UV-I 0 W/m -3,3 C -2,6 C 3,2 km/h (1 Bft) 100,00 %
09.01.2017 21:44 -2,6 C 95 % 1023,0 hPa 0,0 l/m 2,1 km/h (1 Bft) W-SW 252 0 min 0,000 mm 0,0 UV-I 0 W/m -3,3 C -2,6 C 4,8 km/h (1 Bft) 100,00 %
09.01.2017 21:46 -2,6 C 95 % 1023,0 hPa 0,0 l/m 0,7 km/h (0 Bft) W-SW 252 0 min 0,000 mm 0,0 UV-I 0 W/m -3,3 C -2,6 C 1,6 km/h (1 Bft) 100,00 %
09.01.2017 21:48 -2,6 C 95 % 1023,0 hPa 0,0 l/m 0,7 km/h (0 Bft) W-SW 252 0 min 0,000 mm 0,0 UV-I 0 W/m -3,3 C -2,6 C 1,6 km/h (1 Bft) 97,73 %
09.01.2017 21:50 -2,6 C 95 % 1022,9 hPa 0,0 l/m 0,8 km/h (0 Bft) W-SW 252 0 min 0,000 mm 0,0 UV-I 0 W/m -3,3 C -2,6 C 1,6 km/h (1 Bft) 98,11 %
09.01.2017 21:52 -2,6 C 95 % 1022,9 hPa 0,0 l/m 0,8 km/h (0 Bft) W-SW 252 0 min 0,000 mm 0,0 UV-I 0 W/m -3,3 C -2,6 C 1,6 km/h (1 Bft) 100,00 %
09.01.2017 21:54 -2,7 C 95 % 1022,9 hPa 0,0 l/m 1,1 km/h (1 Bft) W-SW 252 0 min 0,000 mm 0,0 UV-I 0 W/m -3,4 C -2,7 C 1,6 km/h (1 Bft) 100,00 %
09.01.2017 21:56 -2,7 C 95 % 1022,9 hPa 0,0 l/m 0,2 km/h (0 Bft) W-SW 252 0 min 0,000 mm 0,0 UV-I 0 W/m -3,4 C -2,7 C 1,6 km/h (1 Bft) 100,00 %
09.01.2017 21:58 -2,7 C 95 % 1022,8 hPa 0,0 l/m 0,0 km/h (0 Bft) W-SW 252 0 min 0,000 mm 0,0 UV-I 0 W/m -3,4 C -2,7 C 0,0 km/h (0 Bft) 97,87 %
09.01.2017 22:00 -2,7 C 95 % 1022,8 hPa 0,0 l/m 0,0 km/h (0 Bft) W-SW 252 0 min 0,000 mm 0,0 UV-I 0 W/m -3,4 C -2,7 C 0,0 km/h (0 Bft) 100,00 %
09.01.2017 22:02 -2,7 C 95 % 1022,7 hPa 0,0 l/m 0,2 km/h (0 Bft) W-SW 252 0 min 0,000 mm 0,0 UV-I 0 W/m -3,4 C -2,7 C 1,6 km/h (1 Bft) 98,11 %
09.01.2017 22:04 -2,7 C 95 % 1022,7 hPa 0,0 l/m 0,0 km/h (0 Bft) W-SW 252 0 min 0,000 mm 0,0 UV-I 0 W/m -3,4 C -2,7 C 1,6 km/h (1 Bft) 97,87 %
09.01.2017 22:06 -2,7 C 95 % 1022,7 hPa 0,0 l/m 2,1 km/h (1 Bft) W-SW 252 0 min 0,000 mm 0,0 UV-I 0 W/m -3,4 C -2,7 C 3,2 km/h (1 Bft) 100,00 %
09.01.2017 22:08 -2,8 C 95 % 1022,7 hPa 0,0 l/m 2,9 km/h (1 Bft) W-SW 252 0 min 0,000 mm 0,0 UV-I 0 W/m -3,5 C -2,8 C 3,2 km/h (1 Bft) 100,00 %
09.01.2017 22:10 -2,8 C 95 % 1022,7 hPa 0,0 l/m 2,1 km/h (1 Bft) W-SW 252 0 min 0,000 mm 0,0 UV-I 0 W/m -3,5 C -2,8 C 3,2 km/h (1 Bft) 100,00 %
09.01.2017 22:12 -2,8 C 95 % 1022,6 hPa 0,0 l/m 0,7 km/h (0 Bft) W-SW 252 0 min 0,000 mm 0,0 UV-I 0 W/m -3,5 C -2,8 C 1,6 km/h (1 Bft) 100,00 %
09.01.2017 22:14 -2,8 C 95 % 1022,6 hPa 0,0 l/m 0,0 km/h (0 Bft) W-SW 252 0 min 0,000 mm 0,0 UV-I 0 W/m -3,5 C -2,8 C 0,0 km/h (0 Bft) 100,00 %
09.01.2017 22:16 -2,8 C 95 % 1022,6 hPa 0,0 l/m 0,0 km/h (0 Bft) W-SW 252 0 min 0,000 mm 0,0 UV-I 0 W/m -3,5 C -2,8 C 0,0 km/h (0 Bft) 100,00 %
09.01.2017 22:18 -2,8 C 95 % 1022,6 hPa 0,0 l/m 0,0 km/h (0 Bft) W-SW 252 0 min 0,000 mm 0,0 UV-I 0 W/m -3,5 C -2,8 C 0,0 km/h (0 Bft) 100,00 %
09.01.2017 22:20 -2,8 C 95 % 1022,6 hPa 0,0 l/m 0,4 km/h (0 Bft) W-SW 252 0 min 0,000 mm 0,0 UV-I 0 W/m -3,5 C -2,8 C 1,6 km/h (1 Bft) 100,00 %
09.01.2017 22:22 -2,8 C 95 % 1022,6 hPa 0,0 l/m 2,0 km/h (1 Bft) W-SW 252 0 min 0,000 mm 0,0 UV-I 0 W/m -3,5 C -2,8 C 3,2 km/h (1 Bft) 98,00 %
09.01.2017 22:24 -2,7 C 95 % 1022,6 hPa 0,0 l/m 1,2 km/h (1 Bft) W-SW 252 0 min 0,000 mm 0,0 UV-I 0 W/m -3,4 C -2,7 C 3,2 km/h (1 Bft) 95,12 %
09.01.2017 22:26 -2,7 C 95 % 1022,6 hPa 0,0 l/m 0,0 km/h (0 Bft) W-SW 252 0 min 0,000 mm 0,0 UV-I 0 W/m -3,4 C -2,7 C 0,0 km/h (0 Bft) 93,62 %
09.01.2017 22:28 -2,7 C 95 % 1022,6 hPa 0,0 l/m 0,0 km/h (0 Bft) W-SW 252 0 min 0,000 mm 0,0 UV-I 0 W/m -3,4 C -2,7 C 0,0 km/h (0 Bft) 97,87 %
09.01.2017 22:30 -2,7 C 95 % 1022,5 hPa 0,0 l/m 0,0 km/h (0 Bft) W-SW 252 0 min 0,000 mm 0,0 UV-I 0 W/m -3,4 C -2,7 C 0,0 km/h (0 Bft) 97,87 %
09.01.2017 22:32 -2,7 C 95 % 1022,5 hPa 0,0 l/m 0,1 km/h (0 Bft) W-SW 252 0 min 0,000 mm 0,0 UV-I 0 W/m -3,4 C -2,7 C 1,6 km/h (1 Bft) 95,74 %
09.01.2017 22:34 -2,8 C 95 % 1022,5 hPa 0,0 l/m 3,7 km/h (1 Bft) N-NO 27 0 min 0,000 mm 0,0 UV-I 0 W/m -3,5 C -2,8 C 4,8 km/h (1 Bft) 98,11 %
09.01.2017 22:36 -2,8 C 95 % 1022,4 hPa 0,0 l/m 3,9 km/h (1 Bft) O-NO 73 0 min 0,000 mm 0,0 UV-I 0 W/m -3,5 C -2,8 C 6,4 km/h (2 Bft) 97,37 %
09.01.2017 22:38 -2,7 C 95 % 1022,4 hPa 0,0 l/m 5,7 km/h (1 Bft) O 97 0 min 0,000 mm 0,0 UV-I 0 W/m -3,4 C -2,7 C 9,7 km/h (2 Bft) 97,96 %
09.01.2017 22:40 -2,6 C 95 % 1022,4 hPa 0,0 l/m 5,3 km/h (1 Bft) O-SO 110 0 min 0,000 mm 0,0 UV-I 0 W/m -3,3 C -2,6 C 9,7 km/h (2 Bft) 97,87 %
09.01.2017 22:42 -2,5 C 95 % 1022,4 hPa 0,0 l/m 2,5 km/h (1 Bft) O-SO 110 0 min 0,000 mm 0,0 UV-I 0 W/m -3,2 C -2,5 C 4,8 km/h (1 Bft) 96,23 %
09.01.2017 22:44 -2,5 C 95 % 1022,4 hPa 0,0 l/m 2,2 km/h (1 Bft) SO 146 0 min 0,000 mm 0,0 UV-I 0 W/m -3,2 C -2,5 C 4,8 km/h (1 Bft) 97,37 %
09.01.2017 22:46 -2,5 C 95 % 1022,3 hPa 0,0 l/m 0,8 km/h (0 Bft) SO 146 0 min 0,000 mm 0,0 UV-I 0 W/m -3,2 C -2,5 C 3,2 km/h (1 Bft) 98,00 %
09.01.2017 22:48 -2,5 C 95 % 1022,3 hPa 0,0 l/m 0,2 km/h (0 Bft) SO 146 0 min 0,000 mm 0,0 UV-I 0 W/m -3,2 C -2,5 C 1,6 km/h (1 Bft) 95,74 %
09.01.2017 22:50 -2,5 C 95 % 1022,3 hPa 0,0 l/m 0,2 km/h (0 Bft) SO 146 0 min 0,000 mm 0,0 UV-I 0 W/m -3,2 C -2,5 C 1,6 km/h (1 Bft) 97,62 %
09.01.2017 22:52 -2,6 C 95 % 1022,3 hPa 0,0 l/m 3,2 km/h (1 Bft) O 98 0 min 0,000 mm 0,0 UV-I 0 W/m -3,3 C -2,6 C 6,4 km/h (2 Bft) 96,36 %
09.01.2017 22:54 -2,6 C 95 % 1022,2 hPa 0,0 l/m 2,4 km/h (1 Bft) O 98 0 min 0,000 mm 0,0 UV-I 0 W/m -3,3 C -2,6 C 4,8 km/h (1 Bft) 97,87 %
09.01.2017 22:56 -2,5 C 95 % 1022,2 hPa 0,0 l/m 4,4 km/h (1 Bft) O 98 0 min 0,000 mm 0,0 UV-I 0 W/m -3,2 C -2,5 C 6,4 km/h (2 Bft) 97,92 %
09.01.2017 22:58 -2,5 C 95 % 1022,2 hPa 0,0 l/m 4,2 km/h (1 Bft) O 98 0 min 0,000 mm 0,0 UV-I 0 W/m -3,2 C -2,5 C 4,8 km/h (1 Bft) 97,37 %
09.01.2017 23:00 -2,4 C 95 % 1022,2 hPa 0,0 l/m 1,8 km/h (1 Bft) O 101 0 min 0,000 mm 0,0 UV-I 0 W/m -3,1 C -2,4 C 3,2 km/h (1 Bft) 98,00 %
09.01.2017 23:02 -2,4 C 95 % 1022,1 hPa 0,0 l/m 1,1 km/h (1 Bft) O-SO 102 0 min 0,000 mm 0,0 UV-I 0 W/m -3,1 C -2,4 C 3,2 km/h (1 Bft) 100,00 %
09.01.2017 23:04 -2,4 C 94 % 1022,1 hPa 0,0 l/m 1,5 km/h (1 Bft) O-SO 102 0 min 0,000 mm 0,0 UV-I 0 W/m -3,2 C -2,4 C 3,2 km/h (1 Bft) 100,00 %
09.01.2017 23:06 -2,6 C 94 % 1022,1 hPa 0,0 l/m 1,1 km/h (1 Bft) O-SO 102 0 min 0,000 mm 0,0 UV-I 0 W/m -3,4 C -2,6 C 3,2 km/h (1 Bft) 100,00 %
09.01.2017 23:08 -2,6 C 94 % 1022,1 hPa 0,0 l/m 2,3 km/h (1 Bft) O-SO 104 0 min 0,000 mm 0,0 UV-I 0 W/m -3,4 C -2,6 C 4,8 km/h (1 Bft) 98,00 %
09.01.2017 23:10 -2,6 C 94 % 1022,1 hPa 0,0 l/m 4,8 km/h (1 Bft) O 96 0 min 0,000 mm 0,0 UV-I 0 W/m -3,4 C -2,6 C 6,4 km/h (2 Bft) 100,00 %
09.01.2017 23:12 -2,6 C 95 % 1022,1 hPa 0,0 l/m 4,8 km/h (1 Bft) O 99 0 min 0,000 mm 0,0 UV-I 0 W/m -3,3 C -2,6 C 6,4 km/h (2 Bft) 100,00 %
09.01.2017 23:14 -2,6 C 95 % 1022,1 hPa 0,0 l/m 4,2 km/h (1 Bft) O-SO 118 0 min 0,000 mm 0,0 UV-I 0 W/m -3,3 C -2,6 C 4,8 km/h (1 Bft) 100,00 %
09.01.2017 23:16 -2,5 C 94 % 1022,1 hPa 0,0 l/m 5,7 km/h (1 Bft) O-SO 113 0 min 0,000 mm 0,0 UV-I 0 W/m -3,3 C -2,5 C 11,3 km/h (2 Bft) 97,56 %
09.01.2017 23:18 -2,4 C 94 % 1022,1 hPa 0,0 l/m 8,2 km/h (2 Bft) O-SO 114 0 min 0,000 mm 0,0 UV-I 0 W/m -3,2 C -4,4 C 11,3 km/h (2 Bft) 98,11 %
09.01.2017 23:20 -2,4 C 94 % 1022,1 hPa 0,0 l/m 8,5 km/h (2 Bft) O-SO 115 0 min 0,000 mm 0,0 UV-I 0 W/m -3,2 C -4,7 C 11,3 km/h (2 Bft) 100,00 %
09.01.2017 23:22 -2,4 C 94 % 1022,0 hPa 0,0 l/m 6,8 km/h (2 Bft) O-SO 115 0 min 0,000 mm 0,0 UV-I 0 W/m -3,2 C -2,8 C 12,9 km/h (3 Bft) 100,00 %
09.01.2017 23:24 -2,4 C 94 % 1021,9 hPa 0,0 l/m 3,9 km/h (1 Bft) SO 128 0 min 0,000 mm 0,0 UV-I 0 W/m -3,2 C -2,4 C 6,4 km/h (2 Bft) 100,00 %
09.01.2017 23:26 -2,3 C 94 % 1021,9 hPa 0,0 l/m 3,3 km/h (1 Bft) SO 129 0 min 0,000 mm 0,0 UV-I 0 W/m -3,1 C -2,3 C 6,4 km/h (2 Bft) 97,37 %
09.01.2017 23:28 -2,3 C 94 % 1021,8 hPa 0,0 l/m 4,7 km/h (1 Bft) O-SO 119 0 min 0,000 mm 0,0 UV-I 0 W/m -3,1 C -2,3 C 6,4 km/h (2 Bft) 100,00 %
09.01.2017 23:30 -2,3 C 94 % 1021,8 hPa 0,0 l/m 4,8 km/h (1 Bft) SO 132 0 min 0,000 mm 0,0 UV-I 0 W/m -3,1 C -2,3 C 6,4 km/h (2 Bft) 96,00 %
09.01.2017 23:32 -2,3 C 94 % 1021,8 hPa 0,0 l/m 3,2 km/h (1 Bft) SO 132 0 min 0,000 mm 0,0 UV-I 0 W/m -3,1 C -2,3 C 4,8 km/h (1 Bft) 100,00 %
09.01.2017 23:34 -2,3 C 94 % 1021,8 hPa 0,0 l/m 3,5 km/h (1 Bft) O 99 0 min 0,000 mm 0,0 UV-I 0 W/m -3,1 C -2,3 C 4,8 km/h (1 Bft) 100,00 %
09.01.2017 23:36 -2,3 C 94 % 1021,8 hPa 0,0 l/m 4,8 km/h (1 Bft) O-SO 114 0 min 0,000 mm 0,0 UV-I 0 W/m -3,1 C -2,3 C 6,4 km/h (2 Bft) 100,00 %
09.01.2017 23:38 -2,4 C 94 % 1021,8 hPa 0,0 l/m 4,3 km/h (1 Bft) O-SO 117 0 min 0,000 mm 0,0 UV-I 0 W/m -3,2 C -2,4 C 6,4 km/h (2 Bft) 100,00 %
09.01.2017 23:40 -2,4 C 94 % 1021,8 hPa 0,0 l/m 5,2 km/h (1 Bft) O-SO 113 0 min 0,000 mm 0,0 UV-I 0 W/m -3,2 C -2,4 C 9,7 km/h (2 Bft) 100,00 %
09.01.2017 23:42 -2,4 C 94 % 1021,7 hPa 0,0 l/m 6,5 km/h (2 Bft) O-SO 118 0 min 0,000 mm 0,0 UV-I 0 W/m -3,2 C -2,5 C 9,7 km/h (2 Bft) 100,00 %
09.01.2017 23:44 -2,4 C 94 % 1021,7 hPa 0,0 l/m 5,7 km/h (1 Bft) O-SO 121 0 min 0,000 mm 0,0 UV-I 0 W/m -3,2 C -2,4 C 9,7 km/h (2 Bft) 100,00 %
09.01.2017 23:46 -2,4 C 94 % 1021,8 hPa 0,0 l/m 5,1 km/h (1 Bft) O-SO 121 0 min 0,000 mm 0,0 UV-I 0 W/m -3,2 C -2,4 C 8,0 km/h (2 Bft) 100,00 %
09.01.2017 23:48 -2,4 C 94 % 1021,7 hPa 0,0 l/m 6,5 km/h (2 Bft) O-SO 121 0 min 0,000 mm 0,0 UV-I 0 W/m -3,2 C -2,5 C 9,7 km/h (2 Bft) 97,87 %
09.01.2017 23:50 -2,4 C 94 % 1021,8 hPa 0,0 l/m 5,7 km/h (1 Bft) O-SO 107 0 min 0,000 mm 0,0 UV-I 0 W/m -3,2 C -2,4 C 9,7 km/h (2 Bft) 98,00 %
09.01.2017 23:52 -2,4 C 94 % 1021,7 hPa 0,0 l/m 4,5 km/h (1 Bft) O-SO 120 0 min 0,000 mm 0,0 UV-I 0 W/m -3,2 C -2,4 C 6,4 km/h (2 Bft) 100,00 %
09.01.2017 23:54 -2,4 C 94 % 1021,7 hPa 0,0 l/m 2,1 km/h (1 Bft) O-SO 120 0 min 0,000 mm 0,0 UV-I 0 W/m -3,2 C -2,4 C 3,2 km/h (1 Bft) 97,87 %
09.01.2017 23:56 -2,4 C 94 % 1021,6 hPa 0,0 l/m 3,8 km/h (1 Bft) O-SO 117 0 min 0,000 mm 0,0 UV-I 0 W/m -3,2 C -2,4 C 6,4 km/h (2 Bft) 100,00 %
09.01.2017 23:58 -2,4 C 94 % 1021,6 hPa 0,0 l/m 3,6 km/h (1 Bft) SO 128 0 min 0,000 mm 0,0 UV-I 0 W/m -3,2 C -2,4 C 6,4 km/h (2 Bft) 100,00 %
_ Min-Zeit 22:06 13:26 23:56 - 17:14 - - - - - - 20:42 00:26 17:14 02:14
Minimum _ -2,8 C 87 % 1021,6 hPa - 0,0 km/h (0 Bft) - - - - - - -3,6 C -10,0 C 0,0 km/h (0 Bft) 92,68 %
_ Max-Zeit 13:24 00:20 00:00 00:00 00:26 - - 12:56 12:02 11:28 13:00 13:24 13:24 00:26 00:00
Maximum _ 0,0 C 96 % 1030,6 hPa 0,0 l/m 16,1 km/h
W-SW (3 Bft)
- - 2 min 0,051 mm 0,5 UV-I 215 W/m -1,7 C 0,0 C 22,5 km/h
W-SW (4 Bft)
100,00 %
Durchschnitt _ -1,7 C 93 % 1027,1 hPa #0,0 l/m 5,2 km/h (1 Bft) W-SW - #22 min. #0,254 mm 0,5 UV-I 86 W/m -2,7 C -2,5 C 8,7 km/h (2 Bft) 98,72 %